[[{"header":{"parameterUnit":"m.s-1","parameterCategory":1,"la1":31.0,"la2":29.5877,"lo1":-88.7671,"lo2":-86.6584,"dy":0.0162,"dx":0.0185,"nx":115,"ny":88,"refTime":"2023-04-27T06:00:00:Z","depth":0,"parameterNumber":2,"parameterNumberName":"U-component_of_WINDS"},"data":[0.0,0.0,0.0,0.0,0.0,0.0,0.0,0.0,0.0,0.0,0.0,0.0,0.0,0.0,0.0,0.0,0.0,0.0,0.0,0.0,0.0,0.0,0.0,0.0,0.0,0.0,0.0,0.0,0.0,0.0,0.0,0.0,0.0,0.0,0.0,0.0,0.0,0.0,0.0,0.0,0.0,0.0,0.0,0.0,0.0,0.0,0.0,0.0,0.0,0.0,0.0,0.0,0.0,0.0,0.0,0.0,0.0,0.0,0.0,0.0,0.0,0.0,0.0,0.0,0.0,0.0,0.0,0.0,0.0,0.0,0.0,0.0,0.0,0.0,0.0,0.0,0.0,0.0,0.0,0.0,0.0,0.0,0.0,0.0,0.0,0.0,0.0,0.0,0.0,0.0,0.0,0.0,0.0,0.0,0.0,0.0,0.0,0.0,0.0,0.0,0.0,0.0,0.0,0.0,0.0,0.0,0.0,0.0,0.0,0.0,0.0,0.0,0.0,0.0,0.0,0.0,0.0,0.0,0.0,0.0,0.0,0.0,0.0,0.0,0.0,0.0,0.0,0.0,0.0,0.0,0.0,0.0,0.0,0.0,0.0,0.0,0.0,0.0,0.0,0.0,0.0,0.0,0.0,0.0,0.0,0.0,0.0,0.0,0.0,0.0,0.0,0.0,0.0,0.0,0.0,0.0,0.0,0.0,0.0,0.0,0.0,0.0,0.0,0.0,0.0,0.0,0.0,0.0,0.0,0.0,0.0,0.0,0.0,0.0,0.0,0.0,0.0,0.0,0.0,0.0,0.0,0.0,0.0,0.0,0.0,0.0,0.0,0.0,0.0,0.0,0.0,0.0,0.0,0.0,0.0,0.0,0.0,0.0,0.0,0.0,0.0,0.0,0.0,0.0,0.0,0.0,0.0,0.0,0.0,0.0,0.0,0.0,0.0,0.0,0.0,0.0,0.0,0.0,0.0,0.0,0.0,0.0,0.0,0.0,0.0,0.0,0.0,0.0,0.0,0.0,0.0,0.0,0.0,0.0,0.0,0.0,0.0,0.0,0.0,0.0,0.0,0.0,0.0,0.0,0.0,0.0,0.0,0.0,0.0,0.0,0.0,0.0,0.0,0.0,0.0,0.0,0.0,0.0,0.0,0.0,0.0,0.0,0.0,0.0,0.0,0.0,0.0,0.0,0.0,0.0,0.0,0.0,0.0,0.0,0.0,0.0,0.0,0.0,0.0,0.0,0.0,0.0,0.0,0.0,0.0,0.0,0.0,0.0,0.0,0.0,0.0,0.0,0.0,0.0,0.0,0.0,0.0,0.0,0.0,0.0,0.0,0.0,0.0,0.0,0.0,0.0,0.0,0.0,0.0,0.0,0.0,0.0,0.0,0.0,0.0,0.0,0.0,0.0,0.0,0.0,0.0,0.0,0.0,0.0,0.0,0.0,0.0,0.0,0.0,0.0,0.0,0.0,0.0,0.0,0.0,0.0,0.0,0.0,0.0,0.0,0.0,0.0,0.0,0.0,0.0,0.0,0.0,0.0,0.0,0.0,0.0,0.0,0.0,0.0,0.0,0.0,0.0,0.0,0.0,0.0,0.0,0.0,0.0,0.0,0.0,0.0,0.0,0.0,0.0,0.0,0.0,0.0,0.0,0.0,0.0,0.0,0.0,0.0,0.0,0.0,0.0,0.0,0.0,0.0,0.0,0.0,0.0,0.0,0.0,0.0,0.0,0.0,0.0,0.0,0.0,0.0,0.0,0.0,0.0,0.0,0.0,0.0,0.0,0.0,0.0,0.0,0.0,0.0,0.0,0.0,0.0,0.0,0.0,0.0,0.0,0.0,0.0,0.0,0.0,0.0,0.0,0.0,0.0,0.0,0.0,0.0,0.0,0.0,0.0,0.0,0.0,0.0,0.0,0.0,0.0,0.0,0.0,0.0,0.0,0.0,0.0,0.0,0.0,0.0,0.0,0.0,0.0,0.0,0.0,0.0,0.0,0.0,0.0,0.0,0.0,0.0,0.0,0.0,0.0,0.0,0.0,0.0,0.0,0.0,0.0,0.0,0.0,0.0,0.0,0.0,0.0,0.0,0.0,0.0,0.0,0.0,0.0,0.0,0.0,0.0,0.0,0.0,0.0,0.0,0.0,0.0,0.0,0.0,0.0,0.0,0.0,0.0,0.0,0.0,0.0,0.0,0.0,0.0,0.0,0.0,0.0,0.0,0.0,0.0,0.0,0.0,0.0,0.0,0.0,0.0,0.0,0.0,0.0,0.0,0.0,0.0,0.0,0.0,0.0,0.0,0.0,0.0,0.0,0.0,0.0,0.0,0.0,0.0,0.0,0.0,0.0,0.0,0.0,0.0,0.0,0.0,0.0,0.0,0.0,0.0,0.0,0.0,0.0,0.0,0.0,0.0,0.0,0.0,0.0,0.0,0.0,0.0,0.0,0.0,0.0,0.0,0.0,0.0,0.0,0.0,0.0,0.0,0.0,0.0,0.0,0.0,0.0,0.0,0.0,0.0,0.0,0.0,0.0,0.0,0.0,0.0,0.0,0.0,0.0,0.0,0.0,0.0,0.0,0.0,0.0,0.0,0.0,0.0,0.0,0.0,0.0,0.0,0.0,0.0,0.0,0.0,0.0,0.0,0.0,0.0,0.0,0.0,0.0,0.0,0.0,0.0,0.0,0.0,0.0,0.0,0.0,0.0,0.0,0.0,0.0,0.0,0.0,0.0,0.0,0.0,0.0,0.0,0.0,0.0,0.0,0.0,0.0,0.0,0.0,0.0,0.0,0.0,0.0,0.0,0.0,0.0,0.0,0.0,0.0,0.0,0.0,0.0,0.0,0.0,0.0,0.0,0.0,0.0,0.0,0.0,0.0,0.0,0.0,0.0,0.0,0.0,0.0,0.0,0.0,0.0,0.0,0.0,0.0,0.0,0.0,0.0,0.0,0.0,0.0,0.0,0.0,0.0,0.0,0.0,0.0,0.0,0.0,0.0,0.0,0.0,0.0,0.0,0.0,0.0,0.0,0.0,0.0,0.0,0.0,0.0,0.0,0.0,0.0,0.0,0.0,0.0,0.0,0.0,0.0,0.0,0.0,0.0,0.0,0.0,0.0,0.0,0.0,0.0,0.0,0.0,0.0,0.0,0.0,0.0,0.0,0.0,0.0,0.0,0.0,0.0,0.0,0.0,0.0,0.0,0.0,0.0,0.0,0.0,0.0,0.0,0.0,0.0,0.0,0.0,0.0,0.0,0.0,0.0,0.0,0.0,0.0,0.0,0.0,0.0,0.0,0.0,0.0,0.0,0.0,0.0,0.0,0.0,0.0,0.0,0.0,0.0,0.0,0.0,0.0,0.0,0.0,0.0,0.0,0.0,0.0,0.0,0.0,0.0,0.0,0.0,0.0,0.0,0.0,0.0,0.0,0.0,0.0,0.0,0.0,0.0,0.0,0.0,0.0,0.0,0.0,0.0,0.0,0.0,0.0,0.0,0.0,0.0,0.0,0.0,0.0,0.0,0.0,0.0,0.0,0.0,0.0,0.0,0.0,0.0,0.0,0.0,0.0,0.0,0.0,0.0,0.0,0.0,0.0,0.0,0.0,0.0,0.0,0.0,0.0,0.0,0.0,0.0,0.0,0.0,0.0,0.0,0.0,0.0,0.0,0.0,0.0,0.0,0.0,0.0,0.0,0.0,0.0,0.0,0.0,0.0,0.0,0.0,0.0,0.0,0.0,0.0,0.0,0.0,0.0,0.0,0.0,0.0,0.0,0.0,0.0,0.0,0.0,0.0,0.0,0.0,0.0,0.0,0.0,0.0,0.0,0.0,0.0,0.0,0.0,0.0,0.0,0.0,0.0,0.0,0.0,0.0,0.0,0.0,0.0,0.0,0.0,0.0,0.0,0.0,0.0,0.0,0.0,0.0,0.0,0.0,0.0,0.0,0.0,0.0,0.0,0.0,0.0,0.0,0.0,0.0,0.0,0.0,0.0,0.0,0.0,0.0,0.0,0.0,0.0,0.0,0.0,0.0,0.0,0.0,0.0,0.0,0.0,0.0,0.0,0.0,0.0,0.0,0.0,0.0,0.0,0.0,0.0,0.0,0.0,0.0,0.0,0.0,0.0,0.0,0.0,0.0,0.0,0.0,0.0,0.0,0.0,0.0,0.0,0.0,0.0,0.0,0.0,0.0,0.0,0.0,0.0,0.0,0.0,0.0,0.0,0.0,0.0,0.0,0.0,0.0,0.0,0.0,0.0,0.0,0.0,0.0,-4.1163,0.0,0.0,0.0,0.0,0.0,0.0,0.0,0.0,0.0,0.0,0.0,0.0,0.0,0.0,0.0,0.0,0.0,0.0,0.0,0.0,0.0,0.0,0.0,0.0,0.0,0.0,0.0,0.0,0.0,0.0,0.0,0.0,0.0,0.0,0.0,0.0,0.0,0.0,0.0,0.0,0.0,0.0,0.0,0.0,0.0,0.0,0.0,0.0,0.0,0.0,0.0,0.0,0.0,0.0,0.0,0.0,0.0,0.0,0.0,0.0,0.0,0.0,0.0,0.0,0.0,0.0,0.0,0.0,0.0,0.0,0.0,0.0,0.0,0.0,0.0,0.0,0.0,0.0,0.0,0.0,0.0,0.0,0.0,0.0,0.0,0.0,0.0,0.0,0.0,0.0,0.0,0.0,0.0,0.0,0.0,0.0,0.0,0.0,0.0,0.0,0.0,0.0,0.0,0.0,0.0,0.0,0.0,0.0,0.0,0.0,-4.2533,-4.2486,-4.2533,-4.2509,-4.2402,0.0,0.0,0.0,0.0,0.0,0.0,0.0,0.0,0.0,0.0,0.0,0.0,0.0,0.0,0.0,0.0,0.0,0.0,0.0,0.0,0.0,0.0,0.0,0.0,0.0,0.0,0.0,0.0,0.0,0.0,0.0,0.0,0.0,0.0,0.0,0.0,0.0,0.0,0.0,0.0,0.0,0.0,0.0,0.0,0.0,0.0,0.0,0.0,0.0,0.0,0.0,0.0,0.0,0.0,0.0,0.0,0.0,0.0,0.0,0.0,0.0,0.0,0.0,0.0,0.0,0.0,0.0,0.0,0.0,0.0,0.0,0.0,0.0,0.0,0.0,0.0,0.0,0.0,0.0,0.0,0.0,0.0,0.0,0.0,0.0,0.0,0.0,0.0,0.0,0.0,0.0,0.0,0.0,0.0,0.0,0.0,0.0,0.0,0.0,0.0,0.0,0.0,0.0,0.0,0.0,0.0,0.0,0.0,0.0,0.0,0.0,0.0,-4.3698,-4.3626,-4.3419,0.0,0.0,0.0,0.0,0.0,0.0,0.0,0.0,0.0,0.0,0.0,0.0,0.0,0.0,0.0,0.0,0.0,0.0,0.0,0.0,0.0,0.0,0.0,0.0,0.0,0.0,0.0,0.0,0.0,0.0,0.0,0.0,0.0,0.0,0.0,0.0,0.0,0.0,0.0,0.0,0.0,0.0,0.0,0.0,0.0,0.0,0.0,0.0,0.0,0.0,0.0,0.0,0.0,0.0,0.0,0.0,0.0,0.0,0.0,0.0,0.0,0.0,0.0,0.0,0.0,0.0,0.0,0.0,0.0,0.0,0.0,0.0,0.0,0.0,0.0,0.0,0.0,0.0,0.0,0.0,0.0,0.0,0.0,0.0,0.0,0.0,0.0,0.0,0.0,0.0,0.0,0.0,0.0,0.0,0.0,0.0,0.0,0.0,0.0,0.0,0.0,0.0,0.0,0.0,0.0,0.0,0.0,0.0,0.0,0.0,-4.4014,-4.3863,-4.3898,0.0,-4.3482,0.0,0.0,0.0,0.0,0.0,0.0,0.0,0.0,0.0,0.0,0.0,0.0,0.0,0.0,0.0,0.0,0.0,0.0,0.0,0.0,0.0,0.0,0.0,0.0,0.0,0.0,0.0,0.0,0.0,0.0,0.0,0.0,0.0,0.0,0.0,0.0,0.0,0.0,0.0,0.0,0.0,0.0,0.0,0.0,0.0,0.0,0.0,0.0,0.0,0.0,0.0,0.0,0.0,0.0,0.0,0.0,0.0,0.0,0.0,0.0,0.0,0.0,0.0,0.0,0.0,0.0,0.0,0.0,0.0,0.0,0.0,0.0,0.0,0.0,0.0,0.0,0.0,0.0,0.0,0.0,0.0,0.0,0.0,0.0,0.0,0.0,0.0,0.0,0.0,0.0,0.0,0.0,0.0,0.0,0.0,0.0,0.0,0.0,0.0,0.0,0.0,0.0,0.0,0.0,0.0,0.0,0.0,0.0,0.0,0.0,-4.5446,-4.5375,-4.5207,-4.5072,0.0,0.0,0.0,0.0,0.0,0.0,0.0,0.0,0.0,0.0,0.0,0.0,0.0,0.0,0.0,0.0,0.0,0.0,0.0,0.0,0.0,0.0,0.0,0.0,0.0,0.0,0.0,0.0,0.0,0.0,0.0,0.0,0.0,0.0,0.0,0.0,0.0,0.0,0.0,0.0,0.0,0.0,0.0,0.0,0.0,0.0,0.0,0.0,0.0,0.0,0.0,0.0,0.0,0.0,0.0,0.0,0.0,0.0,0.0,0.0,0.0,0.0,0.0,0.0,0.0,0.0,0.0,0.0,0.0,0.0,0.0,0.0,0.0,0.0,0.0,0.0,0.0,0.0,0.0,0.0,0.0,0.0,0.0,0.0,0.0,0.0,0.0,0.0,0.0,0.0,0.0,0.0,0.0,0.0,0.0,0.0,0.0,0.0,0.0,0.0,0.0,0.0,0.0,0.0,0.0,0.0,0.0,0.0,0.0,0.0,-4.6236,-4.6423,-4.635,-4.608,-4.5914,-4.5812,0.0,0.0,0.0,0.0,0.0,0.0,0.0,0.0,0.0,0.0,0.0,0.0,0.0,0.0,0.0,0.0,0.0,0.0,0.0,0.0,0.0,0.0,0.0,0.0,0.0,0.0,0.0,0.0,0.0,0.0,0.0,0.0,0.0,0.0,0.0,0.0,0.0,0.0,0.0,0.0,0.0,0.0,0.0,0.0,0.0,0.0,0.0,0.0,0.0,0.0,0.0,0.0,0.0,0.0,0.0,0.0,0.0,0.0,0.0,0.0,0.0,0.0,0.0,0.0,0.0,0.0,0.0,0.0,0.0,0.0,0.0,0.0,0.0,0.0,0.0,0.0,0.0,0.0,0.0,0.0,0.0,0.0,0.0,0.0,0.0,0.0,0.0,0.0,0.0,0.0,0.0,0.0,0.0,0.0,0.0,0.0,0.0,0.0,0.0,0.0,0.0,0.0,0.0,0.0,0.0,0.0,0.0,0.0,-4.6543,-4.6554,-4.6471,-4.6204,-4.5965,-4.5812,0.0,0.0,0.0,0.0,0.0,0.0,0.0,0.0,0.0,0.0,0.0,0.0,0.0,0.0,0.0,0.0,0.0,0.0,0.0,0.0,0.0,0.0,0.0,0.0,0.0,0.0,0.0,0.0,0.0,0.0,0.0,0.0,0.0,0.0,0.0,0.0,0.0,0.0,0.0,0.0,0.0,0.0,0.0,0.0,0.0,0.0,0.0,0.0,0.0,0.0,0.0,0.0,0.0,0.0,0.0,0.0,0.0,0.0,0.0,0.0,0.0,0.0,0.0,0.0,0.0,0.0,0.0,0.0,0.0,0.0,0.0,0.0,0.0,0.0,0.0,0.0,0.0,0.0,0.0,0.0,0.0,0.0,0.0,0.0,0.0,0.0,0.0,0.0,0.0,0.0,0.0,0.0,0.0,0.0,0.0,0.0,0.0,0.0,0.0,0.0,0.0,0.0,0.0,0.0,0.0,0.0,0.0,0.0,0.0,-4.6731,-4.6637,-4.6518,-4.6326,-4.6228,-4.6105,0.0,0.0,0.0,0.0,0.0,0.0,0.0,0.0,0.0,0.0,0.0,0.0,0.0,0.0,0.0,0.0,0.0,0.0,0.0,0.0,0.0,0.0,0.0,0.0,0.0,0.0,0.0,0.0,0.0,0.0,0.0,0.0,0.0,0.0,0.0,0.0,0.0,0.0,0.0,0.0,0.0,0.0,0.0,0.0,0.0,0.0,0.0,0.0,0.0,0.0,0.0,0.0,0.0,0.0,0.0,0.0,0.0,0.0,0.0,0.0,0.0,0.0,0.0,0.0,0.0,0.0,0.0,0.0,0.0,0.0,0.0,0.0,0.0,0.0,0.0,0.0,0.0,0.0,0.0,0.0,0.0,0.0,0.0,0.0,0.0,0.0,0.0,0.0,0.0,0.0,0.0,0.0,0.0,0.0,0.0,0.0,0.0,0.0,0.0,0.0,0.0,0.0,0.0,0.0,0.0,0.0,0.0,0.0,0.0,-4.6731,0.0,-4.6447,-4.6387,-4.6374,-4.6228,0.0,0.0,0.0,0.0,0.0,0.0,0.0,0.0,0.0,0.0,0.0,0.0,0.0,0.0,0.0,0.0,0.0,0.0,0.0,0.0,0.0,0.0,0.0,0.0,0.0,0.0,0.0,0.0,0.0,0.0,0.0,0.0,0.0,0.0,0.0,0.0,0.0,0.0,0.0,0.0,0.0,0.0,0.0,0.0,0.0,0.0,0.0,0.0,0.0,0.0,0.0,0.0,0.0,0.0,0.0,0.0,0.0,0.0,0.0,0.0,0.0,0.0,0.0,0.0,0.0,0.0,0.0,0.0,0.0,0.0,0.0,0.0,0.0,0.0,0.0,0.0,0.0,0.0,0.0,0.0,0.0,0.0,0.0,0.0,0.0,0.0,0.0,0.0,0.0,0.0,0.0,0.0,0.0,0.0,0.0,0.0,0.0,0.0,0.0,0.0,0.0,0.0,0.0,0.0,0.0,0.0,0.0,0.0,-4.659,-4.659,-4.6326,-4.6277,-4.6363,-4.6277,-4.6055,0.0,0.0,0.0,0.0,0.0,0.0,0.0,0.0,0.0,0.0,0.0,0.0,0.0,0.0,0.0,0.0,0.0,0.0,0.0,0.0,0.0,0.0,0.0,0.0,0.0,0.0,0.0,0.0,0.0,0.0,0.0,0.0,0.0,0.0,0.0,0.0,0.0,0.0,0.0,0.0,0.0,0.0,0.0,0.0,0.0,0.0,0.0,0.0,0.0,0.0,0.0,0.0,0.0,0.0,0.0,0.0,0.0,0.0,0.0,0.0,0.0,0.0,0.0,0.0,0.0,0.0,0.0,0.0,0.0,0.0,0.0,0.0,0.0,0.0,0.0,0.0,0.0,0.0,0.0,0.0,0.0,0.0,0.0,0.0,0.0,0.0,0.0,0.0,0.0,0.0,0.0,0.0,0.0,0.0,0.0,0.0,0.0,0.0,0.0,0.0,0.0,0.0,0.0,0.0,0.0,0.0,0.0,0.0,0.0,-4.659,-4.6423,-4.6398,-4.6518,-4.6326,-4.613,0.0,0.0,0.0,0.0,0.0,0.0,0.0,0.0,0.0,0.0,0.0,0.0,0.0,0.0,0.0,0.0,0.0,0.0,0.0,0.0,0.0,0.0,0.0,0.0,0.0,0.0,0.0,0.0,0.0,0.0,0.0,0.0,0.0,0.0,0.0,0.0,0.0,0.0,0.0,0.0,0.0,0.0,0.0,0.0,0.0,0.0,0.0,0.0,0.0,0.0,0.0,0.0,0.0,0.0,0.0,0.0,0.0,0.0,0.0,0.0,0.0,0.0,0.0,0.0,0.0,0.0,0.0,0.0,0.0,0.0,0.0,0.0,0.0,0.0,0.0,0.0,0.0,0.0,0.0,0.0,0.0,0.0,0.0,0.0,0.0,0.0,0.0,0.0,0.0,0.0,0.0,0.0,0.0,0.0,0.0,0.0,0.0,0.0,0.0,0.0,0.0,0.0,0.0,0.0,0.0,0.0,0.0,0.0,0.0,-4.6566,-4.6423,-4.6423,-4.659,-4.635,-4.6105,-4.5844,0.0,0.0,0.0,0.0,0.0,0.0,0.0,0.0,0.0,0.0,0.0,0.0,0.0,0.0,0.0,0.0,0.0,0.0,0.0,0.0,0.0,0.0,0.0,0.0,0.0,0.0,0.0,0.0,0.0,0.0,0.0,0.0,0.0,0.0,0.0,0.0,0.0,0.0,0.0,0.0,0.0,0.0,0.0,0.0,0.0,0.0,0.0,0.0,0.0,0.0,0.0,0.0,0.0,0.0,0.0,0.0,0.0,0.0,0.0,0.0,0.0,0.0,0.0,0.0,0.0,0.0,0.0,0.0,0.0,0.0,0.0,0.0,0.0,0.0,0.0,0.0,0.0,0.0,0.0,0.0,0.0,0.0,0.0,0.0,0.0,0.0,0.0,0.0,0.0,0.0,0.0,0.0,0.0,0.0,0.0,0.0,0.0,0.0,0.0,0.0,0.0,0.0,0.0,0.0,0.0,0.0,0.0,0.0,-4.659,-4.635,-4.635,-4.6613,-4.6326,-4.6005,0.0,0.0,0.0,0.0,0.0,0.0,0.0,0.0,0.0,0.0,0.0,0.0,0.0,0.0,0.0,0.0,0.0,0.0,0.0,0.0,0.0,0.0,0.0,0.0,0.0,0.0,0.0,0.0,0.0,0.0,0.0,0.0,0.0,0.0,0.0,0.0,0.0,0.0,0.0,0.0,0.0,0.0,0.0,0.0,0.0,0.0,0.0,0.0,0.0,0.0,0.0,0.0,0.0,0.0,0.0,0.0,0.0,0.0,0.0,0.0,0.0,0.0,0.0,0.0,0.0,0.0,0.0,0.0,0.0,0.0,0.0,0.0,0.0,0.0,0.0,0.0,0.0,0.0,0.0,0.0,0.0,0.0,0.0,0.0,0.0,0.0,0.0,0.0,0.0,0.0,0.0,0.0,0.0,0.0,0.0,0.0,0.0,0.0,0.0,0.0,0.0,0.0,0.0,0.0,0.0,0.0,0.0,0.0,0.0,-4.6411,-4.6495,-4.6566,-4.6731,-4.6398,-4.613,0.0,0.0,0.0,0.0,0.0,0.0,0.0,0.0,0.0,0.0,0.0,0.0,0.0,0.0,0.0,0.0,0.0,0.0,0.0,0.0,0.0,0.0,0.0,0.0,0.0,0.0,0.0,0.0,0.0,0.0,0.0,0.0,0.0,0.0,0.0,0.0,0.0,0.0,0.0,0.0,0.0,0.0,0.0,0.0,0.0,0.0,0.0,0.0,0.0,0.0,0.0,0.0,0.0,0.0,0.0,0.0,0.0,0.0,0.0,0.0,0.0,0.0,0.0,0.0,0.0,0.0,0.0,0.0,0.0,0.0,0.0,0.0,0.0,0.0,0.0,0.0,0.0,0.0,0.0,0.0,0.0,0.0,0.0,0.0,0.0,0.0,0.0,0.0,0.0,0.0,0.0,0.0,0.0,0.0,0.0,0.0,0.0,0.0,0.0,0.0,0.0,0.0,0.0,0.0,0.0,0.0,0.0,0.0,-4.6636,-4.7061,-4.7299,-4.7511,-4.7773,-4.6788,-4.6179,0.0,0.0,0.0,0.0,0.0,0.0,0.0,0.0,0.0,0.0,0.0,0.0,0.0,0.0,0.0,0.0,0.0,0.0,0.0,0.0,0.0,0.0,0.0,0.0,0.0,0.0,0.0,0.0,0.0,0.0,0.0,0.0,0.0,0.0,0.0,0.0,0.0,0.0,0.0,0.0,0.0,0.0,0.0,0.0,0.0,0.0,0.0,0.0,0.0,0.0,0.0,0.0,0.0,0.0,0.0,0.0,0.0,0.0,0.0,0.0,0.0,0.0,0.0,0.0,0.0,0.0,0.0,0.0,0.0,0.0,0.0,0.0,0.0,0.0,0.0,0.0,0.0,0.0,0.0,0.0,0.0,0.0,0.0,0.0,0.0,0.0,0.0,0.0,0.0,0.0,0.0,0.0,0.0,0.0,0.0,0.0,0.0,0.0,0.0,0.0,0.0,0.0,0.0,0.0,0.0,0.0,0.0,0.0,-4.7204,-4.7986,-4.8302,-4.866,-4.9017,-4.7521,-4.6463,0.0,0.0,0.0,0.0,0.0,0.0,0.0,0.0,0.0,0.0,0.0,0.0,0.0,0.0,0.0,0.0,0.0,0.0,0.0,0.0,0.0,0.0,0.0,0.0,0.0,0.0,0.0,0.0,0.0,0.0,0.0,0.0,0.0,0.0,0.0,0.0,0.0,0.0,0.0,0.0,0.0,0.0,0.0,0.0,0.0,0.0,0.0,0.0,0.0,0.0,0.0,0.0,0.0,0.0,0.0,0.0,0.0,0.0,0.0,0.0,0.0,0.0,0.0,0.0,0.0,0.0,0.0,0.0,0.0,0.0,0.0,0.0,0.0,0.0,0.0,0.0,0.0,0.0,0.0,0.0,0.0,0.0,0.0,0.0,0.0,0.0,0.0,0.0,0.0,0.0,0.0,0.0,0.0,0.0,0.0,0.0,0.0,0.0,0.0,0.0,0.0,0.0,0.0,0.0,0.0,0.0,0.0,0.0,-4.7169,-4.7986,-4.8209,-4.859,-4.9088,-4.8755,-4.8272,0.0,0.0,0.0,0.0,0.0,0.0,0.0,0.0,0.0,0.0,0.0,0.0,0.0,0.0,0.0,0.0,0.0,0.0,0.0,0.0,0.0,0.0,0.0,0.0,0.0,0.0,0.0,0.0,0.0,0.0,0.0,0.0,0.0,0.0,0.0,0.0,0.0,0.0,0.0,0.0,0.0,0.0,0.0,0.0,0.0,0.0,0.0,0.0,-4.4803,0.0,0.0,0.0,0.0,0.0,0.0,0.0,0.0,0.0,0.0,0.0,0.0,0.0,0.0,0.0,0.0,0.0,0.0,0.0,0.0,0.0,0.0,0.0,0.0,0.0,0.0,0.0,0.0,0.0,0.0,0.0,0.0,0.0,0.0,0.0,0.0,0.0,0.0,0.0,0.0,0.0,0.0,0.0,0.0,0.0,0.0,0.0,0.0,0.0,0.0,0.0,0.0,0.0,0.0,0.0,0.0,0.0,0.0,0.0,-4.7866,-4.8687,-4.9614,-5.0092,-5.015,-5.0531,-4.9998,0.0,0.0,0.0,0.0,0.0,0.0,0.0,0.0,0.0,0.0,0.0,0.0,0.0,0.0,0.0,0.0,0.0,0.0,0.0,0.0,0.0,0.0,0.0,0.0,0.0,0.0,0.0,0.0,0.0,0.0,0.0,0.0,0.0,0.0,0.0,0.0,0.0,0.0,0.0,0.0,0.0,0.0,0.0,0.0,0.0,0.0,0.0,0.0,0.0,0.0,0.0,0.0,0.0,0.0,0.0,0.0,0.0,0.0,0.0,0.0,0.0,0.0,0.0,0.0,0.0,0.0,0.0,0.0,0.0,0.0,0.0,0.0,0.0,0.0,0.0,0.0,0.0,0.0,0.0,0.0,0.0,0.0,0.0,0.0,0.0,0.0,0.0,0.0,0.0,0.0,0.0,0.0,0.0,0.0,0.0,0.0,0.0,0.0,0.0,0.0,0.0,0.0,0.0,0.0,0.0,0.0,0.0,-4.7839,-4.8637,-4.9496,-5.1179,-5.1833,-5.1324,-5.2138,-5.1414,-4.8977,0.0,0.0,0.0,0.0,0.0,0.0,0.0,0.0,0.0,0.0,0.0,0.0,0.0,0.0,0.0,0.0,0.0,0.0,0.0,0.0,0.0,0.0,0.0,0.0,0.0,0.0,0.0,0.0,0.0,0.0,0.0,0.0,0.0,0.0,0.0,0.0,0.0,0.0,-4.4256,-4.3654,0.0,0.0,0.0,0.0,0.0,0.0,0.0,0.0,-4.4575,0.0,0.0,0.0,0.0,0.0,0.0,0.0,0.0,0.0,0.0,0.0,0.0,0.0,0.0,0.0,0.0,0.0,0.0,0.0,0.0,0.0,0.0,0.0,0.0,0.0,0.0,0.0,0.0,0.0,0.0,0.0,0.0,0.0,0.0,0.0,0.0,0.0,0.0,0.0,0.0,0.0,0.0,0.0,0.0,0.0,0.0,0.0,0.0,0.0,0.0,0.0,0.0,0.0,0.0,0.0,0.0,-4.6661,-4.7677,-4.8591,-4.9341,-5.1034,-5.1733,-5.1324,-5.2068,-5.1891,-5.0584,0.0,0.0,0.0,0.0,0.0,0.0,0.0,0.0,0.0,0.0,0.0,0.0,0.0,0.0,0.0,0.0,0.0,0.0,0.0,0.0,0.0,0.0,0.0,0.0,0.0,0.0,0.0,0.0,0.0,0.0,0.0,0.0,0.0,0.0,0.0,0.0,0.0,0.0,0.0,-4.3,-4.2699,0.0,0.0,0.0,0.0,0.0,0.0,0.0,0.0,-4.4525,0.0,0.0,0.0,0.0,0.0,0.0,0.0,0.0,0.0,0.0,0.0,0.0,0.0,0.0,0.0,0.0,0.0,0.0,0.0,0.0,0.0,0.0,0.0,0.0,0.0,0.0,0.0,0.0,0.0,0.0,0.0,0.0,0.0,0.0,0.0,0.0,0.0,0.0,0.0,0.0,0.0,0.0,0.0,0.0,0.0,0.0,0.0,0.0,0.0,0.0,0.0,0.0,0.0,0.0,0.0,-4.6872,-4.8128,-4.9162,-5.0032,-5.1593,-5.2264,-5.1927,-5.2201,-5.1836,0.0,0.0,0.0,0.0,0.0,0.0,0.0,0.0,0.0,0.0,0.0,0.0,0.0,0.0,0.0,0.0,0.0,0.0,0.0,0.0,0.0,0.0,0.0,0.0,0.0,0.0,0.0,0.0,0.0,0.0,0.0,0.0,0.0,0.0,0.0,0.0,0.0,0.0,0.0,0.0,-4.3031,-4.2879,-4.2936,0.0,0.0,0.0,0.0,0.0,0.0,-4.448,-4.4574,0.0,0.0,0.0,0.0,0.0,0.0,0.0,0.0,0.0,0.0,0.0,0.0,0.0,0.0,0.0,0.0,0.0,0.0,0.0,0.0,0.0,0.0,0.0,0.0,0.0,0.0,0.0,0.0,0.0,0.0,0.0,0.0,0.0,0.0,0.0,0.0,0.0,0.0,0.0,0.0,0.0,0.0,0.0,0.0,0.0,0.0,0.0,0.0,0.0,0.0,0.0,0.0,0.0,0.0,0.0,-4.6964,-4.8508,-4.9627,-5.0414,-5.2019,-5.2659,-5.2254,-5.2199,-5.1595,0.0,0.0,0.0,0.0,0.0,0.0,0.0,0.0,0.0,0.0,0.0,0.0,0.0,0.0,0.0,0.0,0.0,0.0,0.0,0.0,0.0,0.0,0.0,0.0,0.0,0.0,0.0,0.0,0.0,0.0,0.0,0.0,0.0,0.0,0.0,0.0,0.0,0.0,0.0,0.0,0.0,-4.3149,-4.3322,-4.3235,0.0,0.0,0.0,0.0,-4.4919,-4.4847,0.0,0.0,0.0,0.0,0.0,0.0,0.0,0.0,0.0,0.0,0.0,0.0,0.0,0.0,0.0,0.0,0.0,0.0,0.0,0.0,0.0,0.0,0.0,0.0,0.0,0.0,0.0,0.0,0.0,0.0,0.0,0.0,0.0,0.0,0.0,0.0,0.0,0.0,0.0,0.0,0.0,0.0,0.0,0.0,0.0,0.0,0.0,0.0,0.0,0.0,0.0,0.0,0.0,0.0,0.0,0.0,-4.6708,-4.8378,-4.9281,-4.9386,-5.1531,-5.2254,-5.1291,-5.1755,-5.1212,0.0,0.0,0.0,0.0,0.0,0.0,0.0,0.0,0.0,0.0,0.0,0.0,0.0,0.0,0.0,0.0,0.0,0.0,0.0,0.0,0.0,0.0,0.0,0.0,0.0,0.0,0.0,0.0,0.0,0.0,0.0,0.0,0.0,0.0,0.0,0.0,0.0,0.0,0.0,0.0,0.0,-4.2896,-4.3046,-4.3121,-4.3137,0.0,0.0,-4.3815,-4.4255,-4.4657,0.0,0.0,0.0,0.0,0.0,0.0,0.0,0.0,0.0,0.0,0.0,0.0,0.0,0.0,0.0,0.0,0.0,0.0,0.0,0.0,0.0,0.0,0.0,0.0,0.0,0.0,0.0,0.0,0.0,0.0,0.0,0.0,0.0,0.0,0.0,0.0,0.0,0.0,0.0,0.0,0.0,0.0,0.0,0.0,0.0,0.0,0.0,0.0,0.0,0.0,0.0,0.0,0.0,0.0,0.0,-4.6586,-4.7079,-4.8349,-4.9451,-5.0246,-5.1272,-5.1652,-5.1367,-5.1123,-5.0278,0.0,0.0,0.0,0.0,0.0,0.0,0.0,0.0,0.0,0.0,0.0,0.0,0.0,0.0,0.0,0.0,0.0,0.0,0.0,0.0,0.0,0.0,0.0,0.0,0.0,0.0,0.0,0.0,0.0,0.0,0.0,0.0,0.0,0.0,0.0,0.0,0.0,0.0,0.0,0.0,0.0,0.0,-4.3296,-4.3447,0.0,0.0,0.0,-4.4341,-4.4843,0.0,0.0,0.0,0.0,0.0,0.0,0.0,0.0,0.0,0.0,0.0,0.0,0.0,0.0,0.0,0.0,0.0,0.0,0.0,0.0,0.0,0.0,0.0,0.0,0.0,0.0,0.0,0.0,0.0,0.0,0.0,0.0,0.0,0.0,0.0,0.0,0.0,0.0,0.0,0.0,0.0,0.0,0.0,0.0,0.0,0.0,0.0,0.0,0.0,0.0,0.0,0.0,0.0,0.0,0.0,0.0,0.0,-4.7261,-4.8277,-4.9395,-5.0576,-5.0768,-5.0927,-5.109,-5.0368,0.0,0.0,0.0,0.0,0.0,0.0,0.0,0.0,0.0,0.0,0.0,0.0,0.0,0.0,0.0,0.0,0.0,0.0,0.0,0.0,0.0,0.0,0.0,0.0,0.0,0.0,0.0,-4.5997,0.0,0.0,0.0,0.0,0.0,0.0,0.0,0.0,0.0,0.0,0.0,0.0,0.0,0.0,-4.2477,-4.3455,-4.3596,-4.3793,0.0,0.0,-4.4685,-4.521,-4.5137,-4.5112,0.0,0.0,0.0,0.0,0.0,0.0,0.0,0.0,0.0,0.0,0.0,0.0,0.0,0.0,0.0,0.0,0.0,0.0,0.0,0.0,0.0,0.0,0.0,0.0,0.0,0.0,0.0,0.0,0.0,0.0,0.0,0.0,0.0,0.0,0.0,0.0,0.0,0.0,0.0,0.0,0.0,0.0,0.0,0.0,0.0,0.0,0.0,0.0,0.0,0.0,0.0,0.0,0.0,0.0,-4.6048,-4.6908,-4.7971,-4.8776,-4.9311,-4.9868,-5.0086,-4.9835,-4.9471,-4.8455,0.0,0.0,0.0,0.0,0.0,0.0,0.0,0.0,0.0,0.0,0.0,0.0,0.0,0.0,0.0,0.0,0.0,0.0,0.0,0.0,0.0,0.0,0.0,0.0,0.0,0.0,0.0,0.0,0.0,0.0,0.0,0.0,0.0,0.0,0.0,0.0,0.0,0.0,0.0,0.0,0.0,-4.2289,-4.3189,-4.3329,-4.3409,0.0,-4.4104,-4.4381,-4.4648,-4.5104,-4.5478,-4.5478,0.0,0.0,0.0,0.0,0.0,0.0,0.0,0.0,0.0,0.0,0.0,0.0,0.0,0.0,0.0,0.0,0.0,0.0,0.0,0.0,0.0,0.0,0.0,0.0,0.0,0.0,0.0,0.0,0.0,0.0,0.0,0.0,0.0,0.0,0.0,0.0,0.0,0.0,0.0,0.0,0.0,0.0,0.0,0.0,0.0,0.0,0.0,0.0,0.0,0.0,0.0,0.0,0.0,-4.5868,-4.6788,-4.7486,-4.8273,-4.9159,-4.9566,-4.9466,-4.8951,-4.8827,-4.7843,0.0,0.0,0.0,0.0,0.0,0.0,0.0,0.0,0.0,0.0,0.0,0.0,0.0,0.0,0.0,0.0,0.0,0.0,0.0,0.0,0.0,0.0,0.0,0.0,0.0,0.0,0.0,0.0,-4.6388,-4.5472,-4.4388,0.0,0.0,0.0,0.0,0.0,0.0,0.0,0.0,0.0,0.0,-4.2168,-4.315,-4.329,0.0,0.0,-4.3832,-4.4065,-4.4343,-4.4685,-4.4986,-4.5098,-4.5285,0.0,0.0,0.0,0.0,0.0,0.0,0.0,0.0,0.0,0.0,0.0,0.0,0.0,0.0,0.0,0.0,0.0,0.0,0.0,0.0,0.0,0.0,0.0,0.0,0.0,0.0,0.0,0.0,0.0,0.0,0.0,0.0,0.0,0.0,0.0,0.0,0.0,0.0,0.0,0.0,0.0,0.0,0.0,0.0,0.0,0.0,0.0,0.0,0.0,0.0,0.0,0.0,-4.5466,-4.6505,-4.6989,-4.7687,-4.879,-4.8951,-4.8664,-4.7958,-4.783,-4.6844,0.0,0.0,0.0,0.0,0.0,0.0,0.0,0.0,0.0,0.0,0.0,0.0,0.0,0.0,0.0,0.0,0.0,0.0,0.0,0.0,0.0,0.0,0.0,0.0,0.0,0.0,0.0,0.0,-4.675,-4.5865,-4.4852,0.0,0.0,0.0,0.0,0.0,0.0,0.0,0.0,0.0,0.0,-4.2092,-4.315,-4.329,-4.3369,-4.3557,-4.3636,-4.3793,-4.4065,-4.4305,-4.4534,-4.4685,0.0,0.0,0.0,0.0,0.0,0.0,0.0,0.0,0.0,0.0,0.0,0.0,0.0,0.0,0.0,0.0,0.0,0.0,0.0,0.0,0.0,0.0,0.0,0.0,0.0,0.0,0.0,-4.8956,0.0,0.0,-4.7636,0.0,0.0,0.0,0.0,0.0,0.0,0.0,0.0,0.0,0.0,0.0,0.0,0.0,0.0,0.0,0.0,0.0,0.0,0.0,0.0,0.0,0.0,-4.4883,-4.616,-4.6517,-4.7073,-4.7868,-4.7901,-4.7505,-4.6683,-4.6323,-4.5407,-4.3783,0.0,0.0,0.0,0.0,0.0,0.0,0.0,0.0,0.0,0.0,0.0,0.0,0.0,0.0,0.0,0.0,0.0,0.0,0.0,0.0,0.0,0.0,0.0,0.0,0.0,0.0,-4.6682,-4.6617,-4.6389,0.0,0.0,0.0,0.0,0.0,0.0,0.0,0.0,0.0,-4.1808,-4.1798,-4.2122,-4.315,-4.329,-4.329,-4.329,-4.3518,-4.3675,-4.3714,-4.4065,-4.4335,0.0,0.0,0.0,0.0,0.0,0.0,0.0,0.0,0.0,0.0,0.0,0.0,0.0,0.0,0.0,0.0,0.0,0.0,0.0,0.0,0.0,0.0,0.0,0.0,0.0,0.0,0.0,-4.9415,-4.9176,0.0,0.0,0.0,0.0,0.0,0.0,0.0,0.0,0.0,0.0,0.0,-4.468,-4.5694,0.0,0.0,0.0,0.0,0.0,0.0,0.0,0.0,0.0,0.0,0.0,0.0,-4.4086,-4.4559,-4.5255,-4.6016,-4.683,-4.6645,-4.632,-4.5925,-4.5338,-4.4685,-4.3903,0.0,0.0,0.0,0.0,0.0,0.0,0.0,0.0,0.0,0.0,0.0,0.0,0.0,0.0,0.0,0.0,0.0,0.0,0.0,0.0,0.0,0.0,0.0,0.0,0.0,-4.6703,0.0,0.0,0.0,0.0,0.0,0.0,0.0,0.0,0.0,0.0,0.0,-4.163,-4.2016,-4.2266,-4.2565,-4.321,-4.329,-4.329,0.0,0.0,0.0,0.0,0.0,0.0,0.0,0.0,0.0,0.0,0.0,0.0,0.0,0.0,-4.6643,-4.7358,-4.7572,-4.7816,-4.8329,0.0,0.0,0.0,0.0,0.0,0.0,0.0,0.0,0.0,0.0,0.0,0.0,0.0,0.0,-4.9514,-4.9305,-4.8853,0.0,0.0,0.0,0.0,0.0,0.0,0.0,0.0,-4.3516,-4.3685,-4.4055,-4.4648,-4.5102,-4.5454,-4.6616,-4.7467,0.0,0.0,0.0,0.0,0.0,0.0,0.0,0.0,-4.3532,-4.369,-4.4179,-4.4808,-4.5603,-4.5248,-4.4937,-4.4777,-4.4228,-4.3932,-4.3881,-4.3178,-4.296,0.0,0.0,0.0,0.0,0.0,0.0,0.0,0.0,0.0,0.0,0.0,0.0,0.0,0.0,0.0,0.0,0.0,0.0,0.0,0.0,0.0,0.0,0.0,-4.6824,0.0,0.0,0.0,0.0,0.0,0.0,0.0,0.0,0.0,-4.2293,-4.1975,-4.2107,-4.2603,-4.275,-4.296,-4.3388,0.0,0.0,0.0,0.0,0.0,0.0,0.0,-4.3754,-4.3871,-4.3949,-4.4065,-4.4181,-4.4458,-4.4778,-4.4994,0.0,0.0,-4.7014,-4.7399,-4.7754,-4.7958,-4.7781,-4.766,-4.7762,-4.783,-4.7997,0.0,0.0,0.0,0.0,-4.875,0.0,0.0,0.0,-4.9544,-4.9544,0.0,-4.9061,0.0,0.0,0.0,0.0,-4.3661,-4.3266,0.0,0.0,-4.2952,-4.3382,-4.4216,-4.3938,-4.4381,-4.5561,-4.6109,-4.6779,-4.7636,-4.803,0.0,0.0,0.0,0.0,0.0,0.0,-4.322,-4.3524,-4.3335,-4.3562,-4.4329,-4.3885,-4.35,-4.3197,-4.3032,-4.318,-4.3643,-4.3244,-4.3382,-4.4289,-4.3845,0.0,0.0,0.0,0.0,0.0,0.0,0.0,0.0,0.0,0.0,0.0,0.0,0.0,0.0,0.0,0.0,0.0,0.0,0.0,0.0,-4.8541,0.0,0.0,0.0,0.0,0.0,0.0,0.0,0.0,0.0,0.0,-4.3174,-4.2482,-4.2536,-4.3445,0.0,0.0,0.0,0.0,-4.329,-4.329,-4.329,-4.329,-4.329,-4.3518,-4.3705,-4.3675,0.0,0.0,-4.3988,-4.4181,-4.4511,-4.5122,-4.5962,-4.6585,-4.6448,-4.7152,-4.7561,-4.722,-4.7216,-4.7321,-4.7357,-4.7509,-4.7945,-5.1999,0.0,0.0,0.0,0.0,-4.8808,-4.8942,-4.9295,-4.9498,-4.9574,-4.9529,-4.9209,0.0,0.0,0.0,0.0,0.0,0.0,-4.2778,-4.3137,-4.2826,-4.3109,-4.3856,-4.4175,-4.4696,-4.539,-4.6296,-4.7113,-4.7819,-4.7782,-4.764,-4.7262,0.0,0.0,0.0,0.0,-4.2981,-4.2951,-4.2896,-4.3069,-4.3593,-4.2812,-4.2228,-4.207,-4.2986,-4.3619,-4.3913,-4.3759,-4.4219,-4.5299,-4.4753,0.0,0.0,0.0,0.0,0.0,0.0,0.0,0.0,0.0,0.0,0.0,0.0,0.0,0.0,0.0,0.0,0.0,0.0,0.0,-4.8732,-4.8515,-4.8255,0.0,0.0,0.0,0.0,0.0,0.0,0.0,0.0,0.0,-4.5253,-4.4732,-4.4304,0.0,0.0,-4.4014,-4.3723,-4.3636,-4.3518,-4.3329,-4.329,0.0,-4.329,-4.3369,-4.3409,-4.3438,-4.3636,-4.3793,-4.3793,-4.4343,-4.4752,-4.4664,-4.5598,-4.6269,-4.5998,-4.6571,-4.7028,-4.6736,-4.646,-4.6326,-4.6438,-4.7001,-4.763,-5.3338,-5.1861,-5.0435,-4.9807,-4.9736,-4.9539,-4.9639,-5.0047,-5.0349,-5.031,-4.9956,-4.9625,-4.8899,-4.7866,-4.6424,0.0,0.0,0.0,-4.2692,-4.3295,-4.2917,-4.3028,-4.3523,-4.3908,-4.4359,-4.4925,-4.5734,-4.6731,-4.7884,-4.7854,-4.7871,-4.788,0.0,-4.5183,-4.4236,-4.3549,-4.318,-4.3071,-4.2818,-4.2948,-4.3482,-4.2802,-4.2441,-4.244,-4.3516,-4.4221,-4.4532,-4.4569,-4.5162,-4.6383,-4.5897,-4.5865,0.0,0.0,0.0,0.0,0.0,0.0,0.0,0.0,0.0,0.0,0.0,-4.5787,-4.6656,0.0,0.0,0.0,-4.9719,-5.009,-4.9846,-4.9785,0.0,0.0,0.0,0.0,0.0,0.0,0.0,-4.8644,-4.8461,-4.8055,-4.7293,-4.6834,-4.6082,-4.4637,-4.4551,-4.4458,-4.4104,0.0,-4.3754,-4.3606,-4.3566,-4.3566,-4.3566,-4.3596,-4.3566,-4.3566,-4.3956,-4.4186,-4.4255,-4.4929,-4.5401,-4.5275,-4.5892,-4.6388,-4.5827,-4.6238,-4.6586,-4.6448,-4.6302,-4.6239,-4.6385,-4.6884,-4.7513,-5.4599,-5.3302,-5.2025,-5.1092,-5.0487,-5.057,-5.0855,-5.1323,-5.1588,-5.1295,-5.0659,-5.0294,-4.9251,-4.7638,-4.545,0.0,-4.3622,-4.2859,-4.2922,-4.358,-4.3205,-4.3188,-4.3429,-4.3498,-4.3828,-4.4498,-4.494,-4.6067,-4.7867,-4.8136,-4.849,-4.8878,-4.6927,-4.554,-4.4779,-4.4065,-4.3732,-4.3702,-4.3098,-4.3145,-4.3758,-4.3533,-4.35,-4.3671,-4.4306,-4.4865,-4.5277,-4.5484,-4.6214,-4.7437,-4.721,-4.7404,-4.8133,0.0,0.0,0.0,0.0,0.0,0.0,0.0,0.0,0.0,0.0,0.0,0.0,0.0,0.0,0.0,-5.1083,0.0,-5.2137,-5.1836,0.0,0.0,0.0,-5.1229,-5.1284,-5.0996,-5.1005,-5.1471,0.0,0.0,-4.9001,-4.8477,-4.7564,-4.5798,-4.5024,-4.4648,-4.461,-4.4305,-4.4065,-4.4065,-4.4026,-4.4026,-4.3988,-4.4048,-4.407,-4.41,-4.4664,-4.502,-4.5111,-4.5757,-4.6274,-4.6263,-4.6674,-4.6795,-4.6152,-4.6282,-4.6341,-4.6403,-4.651,-4.6676,-4.6687,-4.7024,-4.7722,-5.4974,-5.4229,-5.3518,-5.2422,-5.1071,-5.0163,-5.0357,-5.1268,-5.0953,-5.107,-5.1428,-5.0517,-4.8756,-4.6484,-4.5521,-4.4846,-4.4332,-4.4201,-4.4293,-4.452,-4.4288,-4.4388,-4.4725,-4.4922,-4.5375,-4.6146,-4.6578,-4.7268,-4.8225,-4.86,-4.8932,-4.9151,-4.8796,-4.7764,-4.6102,-4.5191,-4.4662,-4.451,-4.4013,-4.3682,-4.3505,-4.3423,-4.35,-4.3674,-4.4005,-4.4596,-4.5484,-4.5721,-4.6643,-4.8361,-4.853,-4.8962,-4.9793,-4.9826,0.0,0.0,0.0,0.0,0.0,0.0,0.0,0.0,0.0,-4.7775,-4.8233,0.0,-4.96,0.0,-5.076,-5.1511,-5.2145,-5.2326,0.0,0.0,-5.283,-5.2674,-5.2291,-5.1969,-5.1671,-5.1503,-5.1424,-5.0686,-4.9001,-4.8698,-4.8002,-4.6231,-4.5604,-4.5204,-4.4874,-4.4761,-4.461,-4.4488,-4.4374,-4.4258,-4.4319,-4.453,-4.4786,-4.4747,-4.5363,-4.5758,-4.5789,-4.6376,-4.6773,-4.6597,-4.7034,-4.7265,-4.7022,-4.7213,-4.7479,-4.7416,-4.6734,-4.6117,-4.6262,-4.7271,-4.8354,-5.5594,-5.5072,-5.4472,-5.3631,-5.2652,-5.1605,-5.1467,-5.188,-5.1683,-5.1585,-5.1591,-5.0026,-4.8229,-4.6358,-4.5529,-4.4925,-4.4523,-4.4681,-4.4845,-4.5024,-4.4986,-4.5091,-4.5203,-4.5521,-4.6003,-4.6536,-4.6945,-4.7654,-4.8586,-4.8866,-4.9473,-5.0344,-5.0081,-4.9372,-4.8243,-4.6997,-4.6126,-4.5624,-4.5593,-4.5372,-4.4921,-4.4921,-4.4835,-4.4795,-4.4798,-4.5109,-4.579,-4.6471,-4.7461,-4.8859,-4.9393,-4.9892,-5.0359,-5.0593,-5.0525,0.0,0.0,0.0,0.0,0.0,0.0,0.0,0.0,0.0,0.0,0.0,-5.0259,-5.0427,-5.0894,-5.1599,-5.2639,-5.2768,-5.3083,-5.386,-5.3673,-5.3349,-5.2904,-5.2447,-5.2086,-5.1794,-5.161,-5.1002,-4.9677,-4.9074,-4.8312,-4.7005,-4.6271,-4.5719,-4.5389,-4.521,-4.5266,-4.5503,-4.5415,-4.5394,-4.5672,-4.592,-4.6041,-4.6072,-4.6564,-4.7025,-4.7056,-4.7579,-4.7875,-4.749,-4.7814,-4.8043,-4.769,-4.7915,-4.8185,-4.8275,-4.7801,-4.7321,-4.7185,-4.797,-4.8799,-5.6072,-5.5671,-5.5195,-5.4792,-5.4473,-5.3813,-5.321,-5.2715,-5.2748,-5.2265,-5.1323,-4.9507,-4.8057,-4.6802,-4.5794,-4.5063,-4.4617,-4.4808,-4.5047,-4.5278,-4.5468,-4.5505,-4.5358,-4.5909,-4.6301,-4.6512,-4.6862,-4.7699,-4.8995,-4.9128,-4.9993,-5.1464,-5.0894,-5.0527,-5.036,-4.8987,-4.7779,-4.6848,-4.7212,-4.7207,-4.6877,-4.6782,-4.6502,-4.6108,-4.5837,-4.5876,-4.622,-4.7353,-4.8376,-4.9159,-5.0025,-5.0558,-5.0693,-5.0928,-5.1061,0.0,-5.0712,0.0,0.0,0.0,0.0,0.0,0.0,0.0,0.0,-5.1016,-5.0954,-5.1096,-5.1167,-5.1829,-5.3246,-5.307,-5.3345,-5.4503,-5.4108,-5.3617,-5.3247,-5.2764,-5.234,-5.2158,-5.1831,-5.1316,-5.0424,-4.9548,-4.8715,-4.7967,-4.7245,-4.6674,-4.6258,-4.5976,-4.6097,-4.6909,-4.6855,-4.6856,-4.7327,-4.7488,-4.7465,-4.7528,-4.7989,-4.8497,-4.8457,-4.8965,-4.9193,-4.8732,-4.8851,-4.8934,-4.8377,-4.8653,-4.9024,-4.9382,-4.9426,-4.926,-4.8776,-4.8877,-4.9309,-5.5774,-5.5512,-5.5799,-5.5723,-5.5339,-5.4827,-5.3904,-5.2748,-5.2217,-5.167,-5.1062,-5.0707,-4.9459,-4.7672,-4.7233,-4.6475,-4.5562,-4.5824,-4.5917,-4.5714,-4.5864,-4.6044,-4.6124,-4.6719,-4.7168,-4.7605,-4.8,-4.8453,-4.9001,-4.9734,-5.0297,-5.0825,-5.1235,-5.1167,-5.0558,0.0,0.0,0.0,-4.7648,-4.7385,-4.728,-4.6593,-4.6171,-4.608,-4.5472,0.0,-4.67,-4.7575,-4.8567,-4.9681,-5.0616,0.0,0.0,0.0,0.0,0.0,0.0,0.0,0.0,0.0,0.0,0.0,-5.1008,-5.1034,-5.1096,-5.1096,-5.1008,-5.0927,-5.0954,-5.1587,-5.3071,-5.2927,-5.3262,-5.4503,-5.4271,-5.3783,-5.3382,-5.3179,-5.2868,-5.2307,-5.2233,-5.172,-5.0631,-5.0225,-4.9685,-4.8784,-4.8526,-4.8425,-4.8207,-4.7513,-4.734,-4.8015,-4.8063,-4.7908,-4.7814,-4.8313,-4.8622,-4.8677,-4.915,-4.956,-4.9592,-4.9655,-4.986,-4.9796,-5.0062,-5.0224,-5.0288,-5.0661,-5.0862,-5.1002,-5.1226,-5.1011,-4.9684,-4.9913,-5.0445,-5.595,-5.5767,-5.5923,-5.6018,0.0,-5.5702,-5.4967,-5.3923,-5.2422,-5.1468,-5.0888,-5.0889,-4.998,-4.8382,-4.7776,-4.6872,-4.579,-4.6153,-4.6311,-4.6266,-4.6239,-4.6486,-4.7023,-4.7295,-4.7704,-4.8194,-4.8578,-4.8954,-4.9354,-4.9876,-5.0403,-5.0961,-5.1309,-5.1279,-5.0845,-5.0224,-4.9555,-4.8791,-4.8958,-4.8691,-4.8047,-4.7545,-4.7121,-4.6733,-4.5885,0.0,0.0,0.0,0.0,0.0,0.0,0.0,0.0,-5.3007,0.0,-5.2875,-5.283,-5.2603,-5.2157,-5.2107,-5.1961,-5.1633,-5.1432,-5.1272,-5.1193,-5.1246,-5.1229,-5.1043,-5.1333,-5.2009,-5.3078,-5.3305,-5.3769,-5.4695,-5.4494,-5.411,-5.375,-5.3551,-5.3281,-5.28,-5.2555,-5.2142,-5.1454,-5.0736,-5.0225,-4.9685,-4.9329,-4.9231,-4.9309,-4.8748,-4.8518,-4.9305,-4.9608,-4.9689,-4.9652,-4.9801,-4.9981,-5.0045,-5.0269,-5.0454,-5.0486,-5.0486,-5.0525,-5.064,-5.0832,-5.1054,-5.1162,-5.1499,-5.1762,-5.1908,-5.2092,-5.1976,-5.0916,-5.0843,-5.1001,-5.6285,-5.6184,-5.6178,-5.638,-5.6726,-5.6457,-5.5879,-5.495,-5.3058,0.0,0.0,-5.1084,-5.0382,-4.9118,-4.8239,-4.7165,-4.6052,-4.6416,-4.6629,-4.6808,-4.6761,-4.7081,-4.7748,-4.7895,-4.8132,-4.8547,-4.8892,-4.9388,-4.9943,-5.0056,-5.0645,-5.1477,-5.1413,-5.1222,-5.0942,-5.0447,-4.9883,-4.936,-5.0206,-5.0069,-4.8812,-4.8661,-4.8134,-4.7265,-4.6362,-4.6578,-4.8104,-4.8533,-4.9426,-5.0859,-5.1651,-5.2302,-5.2834,-5.2903,-5.3076,-5.3416,-5.3205,-5.3115,-5.3291,-5.3103,-5.2844,-5.2509,-5.2067,-5.1647,-5.1402,-5.1454,-5.1402,-5.1202,-5.1847,-5.2533,-5.3233,-5.38,-5.4395,-5.5009,-5.4807,-5.4494,-5.4175,-5.3948,-5.3717,-5.3382,-5.2973,-5.2661,-5.2381,-5.1421,-5.07,-5.0598,-5.0203,-4.9906,-5.0249,-4.9949,-4.9823,-5.0489,-5.0867,-5.1322,-5.1466,-5.1327,-5.1252,-5.1257,-5.129,-5.1322,-5.1322,-5.1322,-5.1322,-5.1327,-5.1508,-5.1651,-5.1688,-5.198,-5.2233,-5.2378,-5.2555,-5.2497,-5.1965,-5.1494,-5.1223,-5.6564,-5.6505,-5.7148,-5.7375,-5.7267,-5.7066,-5.5966,-5.4348,-5.3991,-5.3162,-5.2018,-5.2207,-5.1524,-5.023,-4.9463,-4.831,-4.697,-4.73,-4.7253,-4.6871,-4.7786,-4.8051,-4.7926,-4.8524,-4.8794,-4.8704,-4.9199,-4.9932,-5.0809,-5.1054,-5.1639,-5.2462,-5.1958,-5.1153,-5.046,-5.118,-5.1091,-5.0043,-5.0449,-5.0141,-4.9062,-4.8844,-4.8091,-4.6773,-4.6287,-4.6681,-4.7993,-4.8349,-4.924,-5.068,-5.1474,-5.2194,-5.2834,-5.2903,-5.3109,-5.3484,-5.3845,-5.3791,-5.336,-5.3763,-5.3986,-5.3753,-5.3187,-5.2534,-5.1729,-5.1556,-5.1479,-5.1464,-5.2095,-5.2758,-5.3474,-5.4113,-5.4717,-5.5308,-5.5234,-5.4957,-5.4648,-5.4494,-5.4239,-5.3948,-5.3551,-5.3145,-5.2835,-5.2316,-5.1861,-5.175,-5.1372,-5.1467,-5.1572,-5.1455,-5.1312,-5.1525,-5.1659,-5.1762,-5.1908,-5.1911,-5.1948,-5.2092,-5.2128,-5.2092,-5.2092,-5.2092,-5.2128,-5.2128,-5.2272,-5.2414,-5.2449,-5.2624,-5.2764,-5.2834,-5.2973,-5.2808,-5.2135,-5.1529,-5.1059,-5.6333,-5.5945,-5.6917,-5.719,-5.7065,-5.761,-5.6948,-5.5436,-5.5361,-5.4148,-5.2313,-5.2302,-5.1654,-5.0487,-4.9669,-4.8744,-4.789,-4.7761,-4.7842,-4.8098,-4.8216,-4.8322,-4.8332,-4.8611,-4.8663,-4.8644,-4.9421,-5.0226,-5.0995,-5.1578,-5.2195,-5.2712,-5.2079,-5.1667,-5.1685,-5.1933,-5.171,-5.0997,-5.106,-5.0498,-4.9245,-4.8638,-4.7942,-4.7052,-4.6905,-4.7329,-4.8397,-4.8928,-4.9863,-5.127,-5.1598,-5.2125,-5.2834,-5.2903,-5.311,-5.3584,-5.3979,-5.4161,-5.4071,-5.4437,-5.4674,-5.4713,-5.4266,-5.3866,-5.3507,-5.2471,-5.2012,-5.2405,-5.3028,-5.3708,-5.4403,-5.5056,-5.5518,-5.57,-5.5555,-5.5348,-5.5174,-5.4957,-5.4807,-5.4523,-5.4108,-5.3716,-5.3382,-5.2938,-5.2485,-5.22,-5.198,-5.1941,-5.2227,-5.2046,-5.1868,-5.2086,-5.2089,-5.2161,-5.2305,-5.2447,-5.2485,-5.2624,-5.2624,-5.2626,-5.2626,-5.2729,-5.2765,-5.2765,-5.2939,-5.3009,-5.3009,-5.3179,-5.3315,-5.3281,-5.3077,-5.2702,-5.2022,-5.0973,-5.0067,-5.5988,-5.5377,-5.6322,-5.6738,-5.6923,-5.7923,-5.7566,-5.6303,-5.6186,-5.4748,-5.2582,-5.2344,-5.1665,-5.0597,-4.9928,-4.9272,-4.8657,-4.8426,-4.8698,-4.9184,-4.8897,-4.8765,-4.8744,-4.8765,-4.8761,-4.8788,-4.9639,-5.0552,-5.1424,-5.2244,-5.2761,-5.2956,-5.2466,-5.2481,-5.2978,-5.2606,-5.2183,-5.1853,-5.1628,-5.079,-4.9267,-4.85,-4.7958,-4.7605,-4.7497,-4.7987,-4.9074,-4.9586,-5.0459,-5.1765,-5.1835,-5.2227,-5.3068,-5.3207,-5.355,-5.4126,-5.4484,-5.4755,-5.5044,-5.5256,-5.5482,-5.5826,-5.541,-5.5245,-5.5312,-5.3925,-5.3134,-5.3664,-5.4273,-5.484,-5.5362,-5.5991,-5.63,-5.6126,-5.5993,-5.585,-5.5735,-5.5496,-5.5319,-5.5139,-5.4679,-5.4205,-5.3913,-5.345,-5.2938,-5.2485,-5.2257,-5.2317,-5.2534,-5.2594,-5.2726,-5.2771,-5.2644,-5.2483,-5.2694,-5.2903,-5.3007,-5.3076,-5.3144,-5.3179,-5.3213,-5.3315,-5.3382,-5.345,-5.3517,-5.3583,-5.365,-5.3716,-5.3782,-5.3748,-5.3473,-5.2855,-5.1867,-5.0413,-4.9274,-5.5429,-5.555,-5.5738,-5.6352,-5.7138,-5.7737,-5.7184,-5.6029,-5.5892,-5.4828,-5.3115,-5.271,-5.1982,-5.1061,-5.0967,-5.0243,-4.916,-4.9899,-5.0014,-4.9641,-5.0262,-5.0064,-4.9091,-4.9431,-4.9522,-4.9359,-4.9846,-5.1099,-5.2698,-5.3153,-5.3589,-5.4016,-5.3549,-5.3288,-5.3359,-5.3127,-5.2718,-5.2153,-5.1819,-5.0848,-4.9226,-4.8688,-4.838,-4.8139,-4.7819,-4.8465,-5.0091,-4.9992,-5.0496,-5.1911,-5.205,-5.2569,-5.3738,-5.4258,-5.4838,-5.5655,-5.5874,-5.6029,-5.6205,-5.6366,-5.6668,-5.7119,-5.672,-5.6539,-5.6765,-5.6028,-5.5346,-5.5245,-5.5535,-5.5873,-5.6128,-5.6617,-5.6855,-5.6724,-5.66,-5.6465,-5.63,-5.6049,-5.5815,-5.5815,-5.5169,-5.4648,-5.4523,-5.4047,-5.3484,-5.3004,-5.3149,-5.3265,-5.3404,-5.3801,-5.417,-5.4183,-5.3521,-5.2964,-5.3176,-5.3281,-5.3518,-5.3652,-5.3784,-5.3817,-5.385,-5.3849,-5.3948,-5.4011,-5.4108,-5.4173,-5.4237,-5.4303,-5.4173,-5.4139,-5.3834,-5.3363,-5.1999,-5.0407,-4.9335,-5.401,-5.3984,-5.4873,-5.5849,-5.6803,-5.7376,-5.7115,-5.6271,-5.5794,-5.5082,-5.4282,-5.336,-5.2516,-5.1829,-5.1309,-5.0943,-5.0794,-5.0671,-5.0514,-5.037,-5.0615,-5.0197,-4.941,-4.9863,-5.0002,-4.9756,-5.0627,-5.1658,-5.2819,-5.3836,-5.4539,-5.4764,-5.4358,-5.4331,-5.4684,-5.4125,-5.3591,-5.3142,-5.239,-5.1458,-5.0388,-4.9327,-4.8852,-4.8898,-4.9248,-4.9704,-5.0326,-5.0746,-5.1353,-5.2083,-5.259,-5.3282,-5.4151,-5.4868,-5.5621,-5.6403,-5.7035,-5.73,-5.7179,-5.7539,-5.7735,-5.7703,-5.7629,-5.7715,-5.8016,-5.7765,-5.758,-5.746,-5.6985,-5.6827,-5.7258,-5.746,-5.7449,-5.7289,-5.7138,-5.701,-5.6881,-5.6626,-5.6402,-5.6265,-5.57,-5.5199,-5.4996,-5.4615,-5.4228,-5.3988,-5.4176,-5.4395,-5.4425,-5.4659,-5.4901,-5.5046,-5.4686,-5.4488,-5.4492,-5.4769,-5.4737,-5.4499,-5.453,-5.4594,-5.4246,-5.4239,-5.4335,-5.4457,-5.4586,-5.4648,-5.4745,-5.4745,-5.4679,-5.4513,-5.3556,-5.2743,-5.1584,-5.0373,-4.9577,-5.243,-5.2674,-5.4091,-5.5309,-5.6311,-5.6948,-5.6927,-5.6439,-5.5829,-5.5454,-5.4976,-5.394,-5.333,-5.2916,-5.2074,-5.1856,-5.19,-5.1415,-5.1096,-5.1054,-5.0896,-5.0472,-4.9866,-5.0245,-5.0418,-5.0444,-5.1225,-5.2102,-5.2934,-5.4184,-5.4957,-5.5094,-5.4758,-5.4937,-5.5536,-5.4787,-5.4332,-5.4107,-5.2943,-5.2104,-5.1577,-5.0422,-4.9825,-4.9934,-5.0492,-5.0889,-5.1015,-5.1612,-5.2152,-5.2636,-5.3349,-5.4104,-5.4967,-5.5788,-5.6678,-5.7471,-5.8184,-5.8545,-5.8322,-5.8776,-5.8993,-5.8819,-5.9057,-5.9376,-5.96,-5.9738,-5.9834,-5.9853,-5.9098,-5.8743,-5.8591,-5.8733,-5.8699,-5.855,-5.8384,-5.8166,-5.7886,-5.754,-5.7237,-5.6901,-5.6506,-5.6094,-5.5894,-5.5596,-5.5314,-5.5213,-5.5375,-5.5526,-5.5557,-5.5691,-5.5895,-5.6044,-5.622,-5.6053,-5.5747,-5.5756,-5.5758,-5.5586,-5.5445,-5.5163,-5.4741,-5.4799,-5.4683,-5.4834,-5.4957,-5.5083,-5.5083,-5.5113,-5.5053,-5.4748,-5.3892,-5.2735,-5.2205,-5.0952,-5.0232,-5.079,-5.2015,-5.3517,-5.4738,-5.5716,-5.6474,-5.6526,-5.6126,-5.6092,-5.5668,-5.4955,-5.4378,-5.4296,-5.4472,-5.3629,-5.2875,-5.2169,-5.2295,-5.2026,-5.1462,-5.1424,-5.1071,-5.0424,-5.0609,-5.0859,-5.1177,-5.1554,-5.237,-5.3615,-5.4271,-5.4776,-5.5134,-5.4677,-5.4822,-5.5437,-5.4909,-5.4729,-5.485,-5.3431,-5.2654,-5.2835,-5.1941,-5.1391,-5.1426,-5.1317,-5.1682,-5.2354,-5.2345,-5.2748,-5.3839,-5.4151,-5.5001,-5.6498,-5.7398,-5.8268,-5.9152,-5.9568,-5.9757,-5.9782,-6.0115,-6.0471,-6.0846,-6.1175,-6.16,-6.1507,-6.1762,-6.1867,-6.1984,-6.1867,-6.1446,-6.0466,-6.0522,-6.0741,-6.0641,-6.0512,-6.0029,-5.9357,-5.8956,-5.8373,-5.7812,-5.7522,-5.7384,-5.7381,-5.7025,-5.6669,-5.6507,-5.6609,-5.6696,-5.6619,-5.7018,-5.7398,-5.7575,-5.7616,-5.7378,-5.6369,-5.6577,-5.6745,-5.6501,-5.6221,-5.5923,-5.5772,-5.5618,-5.5327,-5.5109,-5.5199,-5.5294,-5.5354,-5.5324,-5.5234,-5.4899,-5.4386,-5.3505,-5.3033,-5.1954,-5.1232,-5.0216,-5.1954,-5.3179,-5.4359,-5.5484,-5.6007,-5.6358,-5.6566,-5.6136,-5.6063,-5.6046,-5.5255,-5.5016,-5.5312,-5.4513,-5.3764,-5.3077,-5.2769,-5.22,-5.1573,-5.1499,-5.122,-5.0806,-5.1182,-5.1474,-5.172,-5.2513,-5.3409,-5.4363,-5.496,-5.5104,-5.4996,-5.5049,-5.5291,-5.549,-5.5402,-5.5344,-5.5243,-5.4156,-5.3653,-5.388,-5.3138,-5.2819,-5.3043,-5.2707,-5.267,-5.2939,-5.2938,-5.3342,-5.4325,-5.5076,-5.6064,-5.7261,-5.8656,-5.971,-6.0386,-6.1012,-6.1277,-6.1153,-6.1596,-6.1831,-6.1631,-6.192,-6.2246,-6.2345,-6.2493,-6.2588,-6.2772,-6.3207,-6.3096,-6.2707,-6.2126,-6.1673,-6.1531,-6.1351,-6.113,-6.0698,-6.0344,-5.9923,-5.9408,-5.8937,-5.8409,-5.8094,-5.802,-5.7953,-5.7564,-5.7741,-5.7907,-5.7868,-5.8035,-5.8273,-5.8277,-5.8385,-5.8354,-5.8084,-5.8015,-5.8014,-5.7527,-5.714,-5.6637,-5.6373,-5.5737,-5.5344,-5.5354,-5.5413,-5.5502,-5.5561,-5.5561,-5.5443,-5.5308,-5.4729,-5.4266,-5.3898,-5.279,-5.2235,-4.9686,-5.1451,-5.2733,-5.3943,-5.5069,-5.5671,-5.6237,-5.674,-5.6341,-5.6377,-5.658,-5.5893,-5.5525,-5.5432,-5.4807,-5.4175,-5.355,-5.2904,-5.2233,-5.1647,-5.1536,-5.135,-5.1232,-5.1727,-5.2085,-5.2331,-5.347,-5.4278,-5.4669,-5.5107,-5.509,-5.4752,-5.5026,-5.5239,-5.5324,-5.5472,-5.5502,-5.5243,-5.4554,-5.4251,-5.451,-5.3863,-5.3642,-5.3941,-5.3717,-5.3517,-5.345,-5.345,-5.389,-5.4771,-5.562,-5.664,-5.807,-5.9401,-6.0468,-6.1243,-6.1996,-6.2425,-6.2382,-6.2876,-6.314,-6.288,-6.309,-6.334,-6.3551,-6.3618,-6.3743,-6.3939,-6.4245,-6.4661,-6.4741,-6.4171,-6.3413,-6.2954,-6.2673,-6.2407,-6.1963,-6.1661,-6.1293,-6.0785,-6.0191,-5.9645,-5.9283,-5.9628,-5.958,-5.9069,-5.9459,-5.9737,-5.9528,-5.9456,-5.9421,-5.9421,-5.932,-5.9391,-5.9185,-5.9114,-5.904,-5.8585,-5.7925,-5.7419,-5.6807,-5.6099,-5.5564,-5.5572,-5.5619,-5.5706,-5.5735,-5.5764,-5.5735,-5.5671,-5.535,-5.4858,-5.4325,-5.3664,-5.3251,-4.9287,-5.0589,-5.2137,-5.3449,-5.4485,-5.5402,-5.6077,-5.6402,-5.6608,-5.6582,-5.6465,-5.6209,-5.5716,-5.5199,-5.4683,-5.411,-5.3382,-5.2732,-5.2236,-5.1794,-5.1573,-5.1494,-5.1554,-5.2113,-5.2655,-5.2978,-5.4162,-5.457,-5.4459,-5.4703,-5.4731,-5.4537,-5.4526,-5.4745,-5.5022,-5.5139,-5.5229,-5.5059,-5.45,-5.4446,-5.4818,-5.4148,-5.3832,-5.4168,-5.4175,-5.411,-5.4013,-5.398,-5.4388,-5.5202,-5.5535,-5.6741,-5.8686,-5.9544,-6.0418,-6.1616,-6.2417,-6.2964,-6.3453,-6.3876,-6.4332,-6.4509,-6.4932,-6.507,-6.5235,-6.5356,-6.5474,-6.5487,-6.5641,-6.5985,-6.6611,-6.6586,-6.6109,-6.523,-6.4833,-6.435,-6.3615,-6.3063,-6.254,-6.1982,-6.1663,-6.1306,-6.1386,-6.1599,-6.1592,-6.1292,-6.1453,-6.1637,-6.1259,-6.105,-6.1221,-6.1047,-6.0634,-6.029,-6.0218,-6.0073,-5.9892,-5.9639,-5.8908,-5.8272,-5.7491,-5.6811,-5.6029,-5.5901,-5.5799,-5.585,-5.5964,-5.5993,-5.5879,-5.5786,-5.5565,-5.5379,-5.4922,-5.447,-5.4344,-4.8677,-5.0119,-5.1561,-5.2907,-5.4106,-5.4926,-5.5613,-5.6182,-5.6328,-5.6383,-5.6328,-5.5993,-5.5561,-5.5022,-5.4431,-5.3783,-5.3008,-5.2343,-5.1911,-5.1758,-5.1462,-5.1534,-5.1923,-5.2183,-5.3068,-5.4278,-5.4551,-5.4689,-5.4749,-5.4734,-5.4499,-5.4247,-5.4402,-5.4623,-5.4842,-5.4992,-5.5083,-5.5048,-5.4839,-5.4783,-5.4838,-5.4568,-5.4444,-5.4397,-5.456,-5.4592,-5.456,-5.4434,-5.4842,-5.5819,-5.6137,-5.7083,-5.8585,-5.9335,-6.0214,-6.1401,-6.2214,-6.3081,-6.3995,-6.4539,-6.4951,-6.5245,-6.5485,-6.5678,-6.582,-6.5895,-6.5943,-6.6067,-6.6468,-6.6959,-6.7167,-6.7628,-6.7616,-6.7133,-6.6919,-6.6581,-6.5971,-6.5532,-6.512,-6.4688,-6.4266,-6.3899,-6.3398,-6.3392,-6.3015,-6.2521,-6.2546,-6.2527,-6.2192,-6.2125,-6.1849,-6.1675,-6.1397,-6.1224,-6.1082,-6.0798,-6.0408,-6.0086,-5.9523,-5.879,-5.811,-5.76,-5.6816,-5.6188,-5.6084,-5.6021,-5.6162,-5.6162,-5.6049,-5.5964,-5.5815,-5.5636,-5.5555,-5.5389,-5.5188,-4.8221,-4.9686,-5.1112,-5.2491,-5.3748,-5.4554,-5.5259,-5.5844,-5.6021,-5.6077,-5.5964,-5.5677,-5.5199,-5.4648,-5.4044,-5.3382,-5.2626,-5.1878,-5.1675,-5.175,-5.1512,-5.1617,-5.2068,-5.2663,-5.3519,-5.4704,-5.4853,-5.47,-5.457,-5.4525,-5.4296,-5.4019,-5.4175,-5.4399,-5.4592,-5.4749,-5.4807,-5.4807,-5.4869,-5.4807,-5.4749,-5.4749,-5.4749,-5.4655,-5.4717,-5.4842,-5.49,-5.4869,-5.517,-5.5833,-5.6294,-5.7149,-5.8307,-5.895,-5.983,-6.1018,-6.2042,-6.3011,-6.3936,-6.4641,-6.5213,-6.547,-6.5717,-6.5883,-6.6001,-6.6036,-6.6058,-6.6196,-6.6819,-6.7417,-6.773,-6.8398,-6.8869,-6.9059,-6.8281,-6.7845,-6.7514,-6.6952,-6.6459,-6.5992,-6.5619,-6.5165,-6.4713,-6.4592,-6.4291,-6.3841,-6.3808,-6.3763,-6.35,-6.3335,-6.3165,-6.289,-6.2681,-6.2402,-6.1947,-6.1523,-6.0959,-6.0499,-6.0005,-5.9303,-5.8562,-5.833,-5.7786,-5.6857,-5.6496,-5.6261,-5.63,-5.6273,-5.6253,-5.6141,-5.6099,-5.6091,-5.6053,-5.5994,-5.5929,-4.7958,-4.9318,-5.0767,-5.2134,-5.3382,-5.4235,-5.4961,-5.5413,-5.5677,-5.5677,-5.5478,-5.5204,-5.4738,-5.4139,-5.355,-5.2905,-5.2203,-5.1655,-5.1491,-5.1662,-5.1613,-5.1654,-5.2021,-5.319,-5.4019,-5.446,-5.4814,-5.4514,-5.382,-5.3978,-5.4023,-5.3719,-5.3882,-5.4078,-5.4239,-5.4399,-5.4463,-5.4494,-5.4589,-5.4554,-5.4497,-5.4655,-5.4749,-5.478,-5.4842,-5.4961,-5.5204,-5.5413,-5.5537,-5.566,-5.6184,-5.6948,-5.7836,-5.8464,-5.9346,-6.0563,-6.1853,-6.2703,-6.3407,-6.4364,-6.5161,-6.5556,-6.5769,-6.5881,-6.608,-6.6102,-6.6091,-6.6179,-6.6973,-6.7714,-6.8385,-6.9245,-6.9934,-7.0388,-6.9314,-6.833,-6.7777,-6.741,-6.718,-6.6761,-6.6142,-6.5729,-6.5647,-6.5859,-6.5786,-6.5646,-6.5775,-6.5772,-6.5551,-6.5284,-6.5014,-6.4597,-6.4073,-6.3408,-6.2883,-6.201,-6.1478,-6.0882,-6.0349,-5.9675,-5.9003,-5.8738,-5.839,-5.749,-5.6929,-5.6684,-5.6418,-5.6391,-5.6506,-5.6573,-5.6567,-5.6588,-5.6663,-5.677,-5.6881,-4.7619,-4.9075,-5.0384,-5.1696,-5.287,-5.3782,-5.4494,-5.4865,-5.4987,-5.5079,-5.4992,-5.4557,-5.4076,-5.3583,-5.3043,-5.2381,-5.1762,-5.1242,-5.1057,-5.1216,-5.1543,-5.2049,-5.2644,-5.351,-5.41,-5.4251,-5.3803,-5.3395,-5.3258,-5.3332,-5.3345,-5.3382,-5.3651,-5.3882,-5.4045,-5.411,-5.411,-5.411,-5.4175,-5.4239,-5.4303,-5.4335,-5.4494,-5.4811,-5.4992,-5.5204,-5.5443,-5.5908,-5.6134,-5.6162,-5.6492,-5.6875,-5.7412,-5.7947,-5.8787,-5.9856,-6.0737,-6.1921,-6.3247,-6.4057,-6.4762,-6.5653,-6.587,-6.6036,-6.6244,-6.6144,-6.6134,-6.6404,-6.7393,-6.8292,-6.8693,-6.9732,-7.0508,-7.0547,-7.0009,-6.9578,-6.9333,-6.9056,-6.8671,-6.8516,-6.8497,-6.8284,-6.8094,-6.8156,-6.8327,-6.8054,-6.7858,-6.7725,-6.7189,-6.6744,-6.6264,-6.5783,-6.5189,-6.4452,-6.3647,-6.2703,-6.1932,-6.1298,-6.0659,-6.0012,-5.9364,-5.8915,-5.8378,-5.7619,-5.7512,-5.7311,-5.6775,-5.6427,-5.6649,-5.7155,-5.7142,-5.7242,-5.7652,-5.7895,-5.7978,-4.7417,-4.9025,-5.0182,-5.1438,-5.2626,-5.3416,-5.4044,-5.446,-5.4586,-5.4554,-5.4494,-5.411,-5.355,-5.3009,-5.2451,-5.2039,-5.1594,-5.1089,-5.1033,-5.1304,-5.1663,-5.224,-5.2932,-5.3387,-5.3472,-5.3434,-5.3046,-5.2865,-5.2937,-5.2896,-5.304,-5.3348,-5.3584,-5.3717,-5.375,-5.3849,-5.3816,-5.3783,-5.3816,-5.3948,-5.411,-5.4175,-5.4463,-5.4807,-5.5113,-5.5348,-5.585,-5.6328,-5.6519,-5.6519,-5.676,-5.7061,-5.7289,-5.781,-5.8467,-5.9298,-6.011,-6.1374,-6.2804,-6.3679,-6.4575,-6.5512,-6.5895,-6.6013,-6.6102,-6.608,-6.608,-6.6179,-6.761,-6.8359,-6.868,-6.9854,-7.0569,-7.0592,-7.0641,-7.058,-7.0261,-7.0061,-6.993,-6.9901,-7.0065,-7.0215,-6.9884,-6.9981,-6.9775,-6.9427,-6.8953,-6.8687,-6.8271,-6.7855,-6.7335,-6.665,-6.6095,-6.5286,-6.4338,-6.339,-6.2546,-6.1844,-6.0921,-6.0269,-5.9937,-5.9378,-5.8999,-5.8538,-5.8246,-5.7917,-5.7418,-5.7204,-5.7604,-5.7932,-5.7911,-5.8174,-5.8656,-5.897,-5.9082,-4.7521,-4.9025,-5.0065,-5.129,-5.252,-5.3111,-5.3649,-5.4108,-5.4237,-5.4276,-5.4118,-5.382,-5.3447,-5.2753,-5.2514,-5.1977,-5.1984,-5.1511,-5.1552,-5.1799,-5.2155,-5.2564,-5.3121,-5.282,-5.2667,-5.2462,-5.2622,-5.265,-5.2682,-5.2832,-5.3109,-5.3382,-5.3584,-5.3584,-5.3517,-5.3584,-5.3551,-5.3484,-5.3551,-5.3717,-5.3915,-5.4078,-5.4399,-5.4869,-5.5324,-5.57,-5.6273,-5.668,-5.676,-5.6492,-5.6969,-5.7213,-5.7437,-5.7927,-5.8371,-5.89,-5.9903,-6.1111,-6.2315,-6.348,-6.4517,-6.5457,-6.5846,-6.5946,-6.5919,-6.5943,-6.5931,-6.5858,-6.7436,-6.8345,-6.8925,-6.9942,-7.0582,-7.0718,-7.1114,-7.108,-7.0704,-7.0763,-7.0959,-7.0825,-7.1041,-7.1143,-7.0956,-7.0692,-7.0367,-7.0668,-7.0271,-6.9942,-6.9345,-6.8654,-6.7962,-6.7204,-6.668,-6.6086,-6.5098,-6.4008,-6.3229,-6.2415,-6.1309,-6.062,-6.061,-6.0202,-5.9977,-5.9608,-5.9066,-5.8702,-5.8353,-5.8388,-5.8638,-5.903,-5.9216,-5.9478,-5.9846,-5.9992,-6.0132,-4.8188,-4.9228,-5.0104,-5.1102,-5.2164,-5.2904,-5.3349,-5.3583,-5.3617,-5.399,-5.4126,-5.3742,-5.3645,-5.3775,-5.3231,-5.2987,-5.2572,-5.2356,-5.2504,-5.2671,-5.2734,-5.3172,-5.3446,-5.2946,-5.2385,-5.233,-5.2368,-5.2401,-5.2518,-5.2938,-5.3212,-5.3348,-5.3518,-5.3551,-5.3518,-5.3416,-5.3315,-5.3247,-5.3281,-5.3416,-5.3617,-5.3915,-5.4303,-5.4834,-5.5561,-5.6134,-5.6546,-5.6943,-5.7098,-5.7061,-5.7138,-5.7338,-5.7583,-5.7973,-5.8334,-5.8863,-5.9806,-6.098,-6.2153,-6.3275,-6.4352,-6.5297,-6.5635,-6.5756,-6.5756,-6.5731,-6.5769,-6.5985,-6.7132,-6.851,-6.9594,-7.0675,-7.1014,-7.1062,-7.1503,-7.192,-7.1783,-7.1738,-7.1706,-7.1686,-7.1966,-7.2222,-7.1888,-7.2039,-7.1876,-7.1835,-7.1523,-7.1229,-7.0454,-6.9525,-6.8769,-6.8011,-6.7061,-6.6467,-6.5652,-6.4486,-6.3318,-6.2568,-6.1529,-6.0878,-6.0867,-6.0826,-6.0499,-6.0172,-5.9779,-5.9523,-5.9452,-5.9173,-5.9345,-5.9951,-6.0594,-6.0921,-6.1188,-6.1188,-6.0928,-4.8748,-4.9706,-5.0388,-5.114,-5.202,-5.2764,-5.311,-5.328,-5.3788,-5.3989,-5.4116,-5.4095,-5.4162,-5.401,-5.3406,-5.3045,-5.3255,-5.3221,-5.3419,-5.3646,-5.3524,-5.3785,-5.4391,-5.3929,-5.3395,-5.3029,-5.3069,-5.3026,-5.3005,-5.328,-5.3619,-5.3821,-5.372,-5.3721,-5.3754,-5.3551,-5.3246,-5.3144,-5.328,-5.3416,-5.355,-5.3849,-5.4431,-5.5079,-5.5936,-5.6519,-5.6812,-5.7112,-5.7289,-5.7363,-5.7473,-5.7571,-5.7739,-5.8065,-5.8378,-5.8725,-5.9729,-6.0886,-6.2011,-6.3107,-6.4198,-6.5175,-6.5382,-6.5479,-6.5509,-6.547,-6.5441,-6.5756,-6.685,-6.8433,-6.9936,-7.036,-7.0706,-7.1047,-7.1367,-7.1703,-7.1933,-7.2246,-7.23,-7.2153,-7.2312,-7.2154,-7.2149,-7.2344,-7.2176,-7.1645,-7.1326,-7.1041,-7.1277,-7.0382,-6.9725,-6.889,-6.7659,-6.6812,-6.6103,-6.4895,-6.3329,-6.2475,-6.1579,-6.1146,-6.0998,-6.0992,-6.095,-6.0629,-6.038,-6.0772,-6.0701,-6.0415,-6.0522,-6.1521,-6.2199,-6.2449,-6.2358,-6.2,-6.1628,-4.9341,-5.0278,-5.0593,-5.1177,-5.198,-5.2589,-5.2868,-5.3073,-5.3955,-5.4054,-5.3968,-5.4606,-5.4376,-5.3987,-5.3258,-5.3363,-5.389,-5.4171,-5.442,-5.4727,-5.45,-5.4874,-5.5473,-5.5525,-5.5219,-5.4376,-5.4315,-5.4156,-5.4059,-5.4058,-5.4601,-5.4771,-5.4397,-5.433,-5.4295,-5.3888,-5.3449,-5.3109,-5.328,-5.3484,-5.3651,-5.3915,-5.4557,-5.5467,-5.6154,-5.6707,-5.6984,-5.7264,-5.7559,-5.7813,-5.7993,-5.8137,-5.8304,-5.8377,-5.8643,-5.881,-6.0116,-6.1294,-6.2203,-6.316,-6.4168,-6.5002,-6.5101,-6.5172,-6.5172,-6.5188,-6.5134,-6.5584,-6.6505,-6.8106,-6.9588,-7.008,-7.0224,-7.0554,-7.0801,-7.1169,-7.1613,-7.2342,-7.2237,-7.2093,-7.2041,-7.192,-7.1727,-7.1726,-7.159,-7.1462,-7.115,-7.1059,-7.1267,-7.1023,-7.0188,-6.9275,-6.8005,-6.6806,-6.606,-6.5244,-6.3676,-6.2816,-6.1884,-6.1486,-6.1236,-6.1058,-6.1058,-6.1129,-6.1129,-6.1486,-6.1843,-6.1807,-6.2271,-6.3306,-6.3555,-6.3484,-6.3146,-6.2742,-6.2297,-4.9929,-5.0309,-5.0461,-5.0978,-5.1614,-5.2343,-5.2731,-5.2938,-5.338,-5.3751,-5.4184,-5.4069,-5.4392,-5.4435,-5.4199,-5.4213,-5.4665,-5.5075,-5.5505,-5.5868,-5.5875,-5.6402,-5.6821,-5.7234,-5.7185,-5.6814,-5.6235,-5.5792,-5.5689,-5.596,-5.5924,-5.6062,-5.5791,-5.5485,-5.4873,-5.4363,-5.382,-5.328,-5.3315,-5.3416,-5.3651,-5.4108,-5.4741,-5.5764,-5.6427,-5.692,-5.721,-5.7485,-5.8007,-5.8844,-5.9058,-5.9541,-5.9868,-5.97,-5.9612,-5.9934,-6.1092,-6.2184,-6.2705,-6.3633,-6.4257,-6.467,-6.4797,-6.4868,-6.485,-6.4888,-6.4891,-6.5311,-6.6182,-6.7648,-6.9185,-6.9644,-7.0038,-7.0338,-7.0592,-7.1018,-7.1139,-7.1298,-7.1551,-7.1456,-7.1542,-7.1611,-7.1342,-7.1329,-7.1564,-7.1582,-7.1443,-7.1368,-7.1562,-7.1006,-7.0113,-6.9164,-6.8174,-6.7007,-6.5982,-6.5165,-6.4131,-6.3453,-6.2628,-6.1878,-6.1557,-6.12,-6.1129,-6.1379,-6.17,-6.2057,-6.248,-6.2944,-6.352,-6.4198,-6.4341,-6.4376,-6.4041,-6.3598,-6.2832,-5.0494,-5.0809,-5.0581,-5.0946,-5.1619,-5.2307,-5.2835,-5.3246,-5.389,-5.433,-5.46,-5.4868,-5.523,-5.5381,-5.5032,-5.5073,-5.5582,-5.6316,-5.6691,-5.6915,-5.7297,-5.7668,-5.8029,-5.8492,-5.8737,-5.8595,-5.8181,-5.7425,-5.6836,-5.6963,-5.7175,-5.7183,-5.681,-5.6232,-5.5689,-5.5043,-5.4296,-5.3686,-5.3551,-5.3684,-5.3881,-5.4554,-5.5383,-5.595,-5.6912,-5.7598,-5.8053,-5.8775,-5.9344,-5.9886,-6.0089,-6.0402,-6.0751,-6.0981,-6.0781,-6.084,-6.1831,-6.2652,-6.2932,-6.3597,-6.4169,-6.4307,-6.4462,-6.4463,-6.4425,-6.4501,-6.4781,-6.5486,-6.5891,-6.7164,-6.8682,-6.9029,-6.9283,-6.9595,-6.9781,-6.9843,-6.9954,-6.988,-7.0163,-7.0629,-7.1077,-7.1056,-7.0747,-7.0956,-7.1474,-7.1664,-7.1662,-7.1689,-7.1769,-7.1106,-7.0224,-6.9346,-6.8395,-6.7186,-6.6125,-6.5304,-6.4626,-6.3948,-6.3377,-6.2628,-6.2164,-6.195,-6.1807,-6.1878,-6.2235,-6.2587,-6.3377,-6.3948,-6.4519,-6.4983,-6.5054,-6.5058,-6.4895,-6.445,-6.3615,-5.0974,-5.1141,-5.0747,-5.096,-5.1582,-5.2274,-5.2974,-5.3685,-5.4594,-5.4964,-5.5069,-5.5752,-5.6167,-5.63,-5.6194,-5.6188,-5.6583,-5.7437,-5.7777,-5.7884,-5.8351,-5.8702,-5.8909,-5.9284,-5.9547,-5.9674,-5.9765,-5.9278,-5.8317,-5.8202,-5.8352,-5.8365,-5.779,-5.7009,-5.6535,-5.5788,-5.4869,-5.4121,-5.3948,-5.4143,-5.4758,-5.5504,-5.6233,-5.6567,-5.7837,-5.8714,-5.9103,-5.9773,-6.0475,-6.0896,-6.1098,-6.1217,-6.1589,-6.2168,-6.2168,-6.1782,-6.2345,-6.2693,-6.3019,-6.3376,-6.3915,-6.4063,-6.4042,-6.4083,-6.42,-6.4383,-6.4775,-6.5843,-6.6323,-6.6871,-6.8074,-6.8185,-6.8354,-6.8572,-6.8413,-6.8218,-6.8609,-6.8772,-6.8876,-6.9496,-7.0313,-7.0797,-7.0721,-7.0924,-7.1571,-7.1903,-7.1897,-7.1605,-7.1615,-7.1304,-7.0551,-6.9711,-6.8651,-6.7371,-6.6339,-6.5518,-6.4912,-6.4412,-6.3948,-6.3413,-6.3092,-6.2842,-6.2735,-6.2556,-6.2592,-6.2985,-6.3984,-6.4804,-6.5126,-6.5447,-6.5697,-6.5633,-6.529,-6.488,-6.422,-5.1407,-5.0808,-5.0796,-5.0905,-5.1097,-5.2065,-5.3112,-5.4072,-5.4818,-5.5057,-5.5574,-5.6047,-5.6443,-5.6703,-5.7521,-5.7635,-5.7844,-5.8325,-5.8771,-5.8737,-5.9114,-5.9349,-5.9448,-5.994,-6.0135,-6.0294,-6.0508,-6.0441,-5.9831,-5.9765,-5.991,-5.9787,-5.9321,-5.8609,-5.7032,-5.6531,-5.5513,-5.4319,-5.4209,-5.4903,-5.5981,-5.6664,-5.7455,-5.8363,-5.9203,-5.9743,-6.0079,-6.0638,-6.1168,-6.1929,-6.2026,-6.2464,-6.3111,-6.3356,-6.3431,-6.3319,-6.3416,-6.3557,-6.355,-6.358,-6.3714,-6.3808,-6.3808,-6.3851,-6.4053,-6.445,-6.4962,-6.5713,-6.6236,-6.6886,-6.7683,-6.7667,-6.7606,-6.7552,-6.7542,-6.7513,-6.7724,-6.782,-6.7904,-6.8472,-6.9392,-7.0543,-7.112,-7.134,-7.1637,-7.1916,-7.2087,-7.169,-7.1422,-7.111,-7.0273,-6.9253,-6.8654,-6.7514,-6.6446,-6.5625,-6.5268,-6.484,-6.459,-6.4198,-6.3841,-6.3591,-6.3484,-6.3341,-6.3341,-6.3591,-6.4483,-6.5161,-6.559,-6.57,-6.5736,-6.5675,-6.551,-6.5062,-6.465,-5.1383,-5.0227,-4.9909,-5.0147,-5.0849,-5.1938,-5.3311,-5.4826,-5.6046,-5.668,-5.7033,-5.759,-5.8017,-5.8414,-5.9236,-5.9471,-5.9418,-5.9601,-5.9714,-5.9546,-5.9774,-5.9905,-6.0005,-6.0294,-6.0481,-6.0564,-6.0818,-6.0938,-6.0788,-6.0666,-6.0569,-6.0508,-6.0156,-5.9166,-5.7723,-5.7225,-5.6374,-5.5787,-5.5911,-5.6667,-5.7339,-5.7829,-5.8402,-5.924,-6.0119,-6.0747,-6.1214,-6.1882,-6.2364,-6.2955,-6.3059,-6.3193,-6.3513,-6.3647,-6.3669,-6.3602,-6.3602,-6.3565,-6.3542,-6.3511,-6.3534,-6.3511,-6.3548,-6.3674,-6.4067,-6.4503,-6.5199,-6.6235,-6.639,-6.6885,-6.7386,-6.7266,-6.7126,-6.6967,-6.6769,-6.6579,-6.6682,-6.6892,-6.7126,-6.7777,-6.8456,-6.953,-7.0367,-7.0413,-7.0621,-7.1107,-7.1308,-7.1184,-7.0987,-7.0847,-6.9788,-6.8475,-6.8049,-6.7552,-6.6553,-6.5697,-6.5661,-6.5375,-6.5375,-6.4983,-6.4519,-6.4269,-6.4234,-6.4376,-6.4555,-6.484,-6.5233,-6.5197,-6.534,-6.5522,-6.5707,-6.5611,-6.5447,-6.5214,-6.4731,-5.0607,-4.88,-4.8432,-4.9378,-5.1175,-5.1991,-5.4029,-5.6763,-5.8065,-5.8762,-5.9003,-5.9543,-6.0025,-6.0444,-6.082,-6.099,-6.0974,-6.0569,-6.0347,-6.0281,-6.0078,-5.9871,-5.9896,-6.0129,-6.0468,-6.0653,-6.0933,-6.1058,-6.1123,-6.0998,-6.0878,-6.0873,-6.0605,-5.9823,-5.8822,-5.8145,-5.7503,-5.6776,-5.7338,-5.7993,-5.8633,-5.9016,-5.9526,-6.0223,-6.1069,-6.1887,-6.2498,-6.3248,-6.3816,-6.4256,-6.4428,-6.445,-6.422,-6.4182,-6.3996,-6.3818,-6.3624,-6.3511,-6.3442,-6.3373,-6.3326,-6.3292,-6.3466,-6.3846,-6.4278,-6.4599,-6.5188,-6.6423,-6.6669,-6.6911,-6.7112,-6.699,-6.6815,-6.6467,-6.6105,-6.5779,-6.5649,-6.6061,-6.6454,-6.6921,-6.757,-6.8238,-6.8896,-6.9031,-6.9464,-7.0125,-7.0422,-7.0572,-7.0646,-7.0642,-6.9578,-6.8263,-6.7692,-6.7299,-6.6446,-6.5804,-6.5804,-6.5804,-6.5804,-6.5661,-6.5126,-6.509,-6.5161,-6.5375,-6.559,-6.5804,-6.5946,-6.5482,-6.5054,-6.5451,-6.5675,-6.5513,-6.5349,-6.5115,-6.47,-4.8712,-4.5934,-4.6594,-4.9016,-5.2267,-5.2303,-5.5437,-5.9827,-6.0641,-6.0985,-6.113,-6.1507,-6.1875,-6.2077,-6.1943,-6.1957,-6.186,-6.0946,-6.05,-6.0008,-5.9537,-5.9388,-5.9581,-5.9916,-6.0201,-6.0425,-6.086,-6.1123,-6.1123,-6.1152,-6.1117,-6.1211,-6.1021,-6.0727,-6.0048,-5.9192,-5.8597,-5.8069,-5.8395,-5.9017,-5.9724,-6.0344,-6.0992,-6.1885,-6.2581,-6.3284,-6.4192,-6.461,-6.5053,-6.5634,-6.5769,-6.5612,-6.5098,-6.4979,-6.4674,-6.4108,-6.387,-6.3636,-6.3386,-6.3242,-6.3194,-6.3416,-6.3737,-6.4205,-6.4475,-6.5764,-6.6397,-6.6443,-6.6811,-6.6983,-6.7004,-6.6786,-6.6542,-6.6295,-6.5862,-6.5387,-6.5287,-6.5509,-6.5887,-6.6161,-6.6736,-6.7522,-6.8122,-6.8393,-6.8947,-6.9672,-7.0609,-7.0825,-7.0538,-7.0353,-6.9361,-6.8296,-6.7514,-6.6871,-6.6157,-6.5804,-6.5804,-6.5804,-6.5804,-6.5804,-6.5625,-6.5732,-6.5946,-6.6018,-6.6161,-6.641,-6.6624,-6.6339,-6.6089,-6.5775,-6.5643,-6.5415,-6.5182,-6.498,-6.4491,-5.129,-4.791,-4.9018,-5.0063,-5.1287,-5.4496,-5.7802,-6.0824,-6.2251,-6.2985,-6.322,-6.3338,-6.3121,-6.2725,-6.2355,-6.1932,-6.1408,-6.0761,-6.0387,-6.029,-6.0006,-5.997,-6.0156,-6.0375,-6.0869,-6.0985,-6.1221,-6.1299,-6.1422,-6.127,-6.1241,-6.1312,-6.1521,-6.1229,-6.0691,-6.0002,-5.943,-5.9473,-5.9734,-6.0438,-6.1104,-6.1876,-6.2567,-6.3236,-6.4101,-6.4685,-6.5236,-6.5557,-6.5895,-6.6209,-6.6493,-6.6313,-6.6067,-6.5888,-6.5374,-6.4637,-6.4376,-6.391,-6.3353,-6.3208,-6.3123,-6.3101,-6.3689,-6.4425,-6.4827,-6.6003,-6.6749,-6.6993,-6.7131,-6.7117,-6.7097,-6.6691,-6.6325,-6.6181,-6.5779,-6.5196,-6.5091,-6.5286,-6.5392,-6.5694,-6.6215,-6.6882,-6.7453,-6.792,-6.8582,-6.9219,-7.0258,-7.0938,-7.0574,-7.009,-6.9134,-6.8281,-6.7461,-6.6753,-6.6074,-6.5867,-6.5804,-6.5875,-6.5911,-6.6018,-6.6161,-6.6446,-6.6624,-6.666,-6.691,-6.7374,-6.7552,-6.7374,-6.7053,-6.6521,-6.5898,-6.5282,-6.5048,-6.4844,-6.4319,-5.3756,-5.0761,-5.2375,-5.299,-5.3285,-5.6677,-5.9963,-6.2572,-6.398,-6.4423,-6.4419,-6.4229,-6.3615,-6.2784,-6.2337,-6.1922,-6.1342,-6.0839,-6.0549,-6.0408,-6.0464,-6.0508,-6.0621,-6.0763,-6.0955,-6.1299,-6.1466,-6.1444,-6.1444,-6.1357,-6.1478,-6.1712,-6.1914,-6.1686,-6.1437,-6.0736,-6.0339,-6.0516,-6.1185,-6.1825,-6.2412,-6.3166,-6.3784,-6.4332,-6.4977,-6.5681,-6.611,-6.6495,-6.6843,-6.712,-6.7344,-6.723,-6.6977,-6.6687,-6.6262,-6.565,-6.4971,-6.4415,-6.3783,-6.3185,-6.3149,-6.3369,-6.4079,-6.4886,-6.5595,-6.6366,-6.7173,-6.7423,-6.735,-6.7219,-6.719,-6.6691,-6.6421,-6.6313,-6.5671,-6.5154,-6.5032,-6.5099,-6.5141,-6.5255,-6.6074,-6.7157,-6.7746,-6.842,-6.9116,-6.96,-6.9984,-7.0545,-7.0382,-6.9789,-6.897,-6.8151,-6.733,-6.6693,-6.6128,-6.603,-6.6006,-6.6375,-6.6446,-6.6589,-6.6767,-6.7088,-6.7552,-6.7873,-6.8195,-6.8516,-6.8587,-6.8516,-6.7873,-6.7088,-6.6256,-6.5286,-6.4946,-6.4705,-6.4319,-5.558,-5.3731,-5.6241,-5.7877,-5.8532,-5.8638,-6.1484,-6.527,-6.5899,-6.5422,-6.4457,-6.4167,-6.3464,-6.2559,-6.2293,-6.1996,-6.171,-6.1309,-6.101,-6.0907,-6.0748,-6.0347,-6.0398,-6.0719,-6.1135,-6.0891,-6.1212,-6.1501,-6.1357,-6.1328,-6.1628,-6.1837,-6.1889,-6.2007,-6.2199,-6.235,-6.2015,-6.1536,-6.2407,-6.2895,-6.3373,-6.4175,-6.4802,-6.5202,-6.5727,-6.6408,-6.6963,-6.7361,-6.7747,-6.8249,-6.854,-6.8388,-6.7975,-6.7703,-6.7203,-6.6411,-6.55,-6.486,-6.4401,-6.3456,-6.3468,-6.3932,-6.4556,-6.5437,-6.6329,-6.71,-6.7623,-6.7799,-6.7541,-6.7336,-6.7063,-6.6793,-6.6686,-6.6452,-6.5875,-6.5334,-6.5242,-6.5149,-6.5257,-6.5278,-6.6634,-6.7945,-6.8518,-6.9098,-6.9823,-7.0196,-7.0143,-7.0152,-7.0157,-6.9476,-6.8589,-6.8053,-6.7266,-6.6674,-6.6217,-6.616,-6.628,-6.6721,-6.7017,-6.716,-6.7481,-6.7873,-6.8373,-6.898,-6.9229,-6.9372,-6.9551,-6.9729,-6.8768,-6.7634,-6.6297,-6.5393,-6.4983,-6.4601,-6.4285,-5.9267,-5.7084,-5.9988,-6.1816,-6.2692,-6.2786,-6.4198,-6.6017,-6.6291,-6.5799,-6.4801,-6.4436,-6.3803,-6.3,-6.2525,-6.2345,-6.2243,-6.1939,-6.1673,-6.1487,-6.1441,-6.1356,-6.1337,-6.1433,-6.1615,-6.1643,-6.1795,-6.1644,-6.1501,-6.1386,-6.1312,-6.145,-6.1711,-6.1777,-6.2158,-6.2451,-6.2348,-6.2558,-6.3271,-6.392,-6.421,-6.505,-6.5742,-6.6009,-6.6659,-6.7269,-6.7741,-6.8044,-6.8432,-6.8846,-6.9087,-6.8972,-6.8688,-6.8474,-6.8024,-6.7344,-6.6565,-6.6132,-6.5594,-6.4906,-6.4487,-6.4632,-6.5011,-6.582,-6.6465,-6.7273,-6.7807,-6.8239,-6.8145,-6.8223,-6.8553,-6.7764,-6.7475,-6.7198,-6.6626,-6.5869,-6.5567,-6.5504,-6.5547,-6.5511,-6.6351,-6.7909,-6.8814,-6.9502,-7.0227,-7.0444,-7.0382,-7.0206,-7.017,-6.9121,-6.8222,-6.7836,-6.727,-6.6649,-6.6274,-6.6469,-6.667,-6.701,-6.741,-6.7766,-6.8123,-6.8801,-6.9122,-6.9658,-6.9907,-7.0157,-7.0122,-6.9909,-6.9203,-6.8142,-6.7013,-6.5749,-6.5055,-6.4706,-6.439,-6.2663,-6.111,-6.2947,-6.4251,-6.4991,-6.5179,-6.5708,-6.6375,-6.6467,-6.5918,-6.5083,-6.4723,-6.4075,-6.3322,-6.294,-6.2719,-6.2696,-6.269,-6.2503,-6.2371,-6.2534,-6.2479,-6.2461,-6.235,-6.2277,-6.2265,-6.2033,-6.1784,-6.1644,-6.1415,-6.1426,-6.1527,-6.1492,-6.2092,-6.2474,-6.2701,-6.2772,-6.3271,-6.4065,-6.4744,-6.519,-6.5823,-6.6436,-6.6765,-6.73,-6.7878,-6.8146,-6.8432,-6.8697,-6.8838,-6.8998,-6.9094,-6.9065,-6.89,-6.8585,-6.8143,-6.7459,-6.6861,-6.6049,-6.5753,-6.5361,-6.5384,-6.5653,-6.6254,-6.6975,-6.7857,-6.8382,-6.8752,-6.8953,-6.9242,-6.9456,-6.8602,-6.8374,-6.8162,-6.7813,-6.7053,-6.6885,-6.6895,-6.6888,-6.6714,-6.7069,-6.8374,-6.9316,-6.9828,-7.0553,-7.0589,-7.0553,-7.0372,-7.0154,-6.9249,-6.838,-6.8066,-6.768,-6.7239,-6.6978,-6.7034,-6.7167,-6.7335,-6.7945,-6.8623,-6.9479,-7.0229,-7.03,-7.0336,-7.0728,-7.0871,-7.0443,-7.0018,-6.9523,-6.8924,-6.8042,-6.6775,-6.5407,-6.4952,-6.4741,-6.543,-6.5244,-6.51,-6.5263,-6.5704,-6.5866,-6.629,-6.6746,-6.6711,-6.6146,-6.5174,-6.5093,-6.4503,-6.3575,-6.3335,-6.328,-6.3253,-6.3557,-6.3492,-6.3389,-6.3501,-6.3423,-6.3234,-6.2965,-6.2705,-6.2475,-6.2212,-6.195,-6.1756,-6.1717,-6.1783,-6.2068,-6.2367,-6.2862,-6.3142,-6.3304,-6.3412,-6.4128,-6.4865,-6.5438,-6.5859,-6.6445,-6.6785,-6.7093,-6.7396,-6.7714,-6.7941,-6.8222,-6.8506,-6.8697,-6.8869,-6.8929,-6.8929,-6.8861,-6.8861,-6.8567,-6.7844,-6.7118,-6.6577,-6.6476,-6.6614,-6.6716,-6.6789,-6.7354,-6.7956,-6.8605,-6.9068,-6.9566,-6.9871,-7.0017,-7.0059,-6.9814,-6.9566,-6.9398,-6.9236,-6.8958,-6.8875,-6.8839,-6.8772,-6.8845,-6.9201,-6.9962,-7.0428,-7.0936,-7.0542,-7.0687,-7.0579,-7.0294,-7.0113,-6.9968,-6.9176,-6.8814,-6.8428,-6.7945,-6.7791,-6.7851,-6.8238,-6.8546,-6.9194,-6.9907,-7.0835,-7.1478,-7.1513,-7.1549,-7.1727,-7.1585,-7.1049,-7.0552,-7.0093,-6.9456,-6.8751,-6.7693,-6.6286,-6.5689,-6.5373,-6.607,-6.5958,-6.5854,-6.5953,-6.6291,-6.704,-6.7498,-6.7617,-6.7491,-6.691,-6.604,-6.5906,-6.529,-6.4413,-6.4268,-6.4488,-6.4709,-6.4863,-6.4737,-6.4568,-6.4217,-6.4009,-6.3683,-6.3312,-6.2953,-6.2629,-6.237,-6.215,-6.2029,-6.199,-6.2694,-6.3281,-6.3328,-6.3866,-6.4189,-6.4357,-6.4615,-6.4986,-6.5731,-6.6,-6.6263,-6.6714,-6.691,-6.699,-6.7206,-6.746,-6.7714,-6.7878,-6.8134,-6.8493,-6.8684,-6.8791,-6.8921,-6.8828,-6.8721,-6.8626,-6.8389,-6.8236,-6.798,-6.7952,-6.805,-6.8105,-6.8121,-6.8383,-6.8837,-6.9315,-6.9843,-7.0417,-7.1065,-7.1425,-7.1544,-7.1403,-7.1157,-7.0975,-7.0668,-7.0192,-7.0036,-6.9836,-6.9769,-6.9775,-7.0174,-7.055,-7.109,-7.0701,-7.038,-7.0635,-7.0609,-7.0397,-7.0221,-7.0149,-7.004,-6.9647,-6.9182,-6.8765,-6.8764,-6.879,-6.9314,-6.983,-7.0406,-7.1085,-7.1906,-7.2441,-7.2584,-7.262,-7.2584,-7.2156,-7.1549,-7.1087,-7.0732,-7.0167,-6.946,-6.8364,-6.7341,-6.6743,-6.611,-6.6361,-6.6392,-6.6307,-6.6354,-6.6691,-6.7537,-6.8102,-6.8344,-6.8358,-6.7938,-6.739,-6.6942,-6.6366,-6.5854,-6.5442,-6.5345,-6.5666,-6.5465,-6.5314,-6.4959,-6.4723,-6.4348,-6.3963,-6.3587,-6.3194,-6.2855,-6.2599,-6.243,-6.2493,-6.2926,-6.3572,-6.4262,-6.4363,-6.4837,-6.5243,-6.5519,-6.5826,-6.6097,-6.638,-6.6452,-6.6656,-6.6867,-6.6867,-6.6819,-6.701,-6.7375,-6.7423,-6.7542,-6.7836,-6.8197,-6.8371,-6.8493,-6.865,-6.8663,-6.8711,-6.8626,-6.8707,-6.874,-6.8642,-6.8711,-6.8869,-6.9019,-6.9243,-6.9724,-6.9941,-7.0326,-7.0919,-7.1547,-7.2347,-7.2943,-7.3065,-7.3083,-7.2876,-7.2702,-7.197,-7.1238,-7.0907,-7.0611,-7.0478,-7.0344,-7.0581,-7.0883,-7.0847,-7.0459,-7.0435,-7.0956,-7.1184,-7.1019,-7.0842,-7.077,-7.0734,-7.0553,-7.0051,-6.9591,-6.9661,-6.976,-7.0174,-7.0688,-7.1405,-7.2084,-7.2941,-7.3298,-7.3369,-7.3333,-7.3298,-7.2798,-7.2298,-7.1763,-7.1301,-7.07,-7.0061,-6.9176,-6.8327,-6.7691,-6.7093,-6.6513,-6.6507,-6.6537,-6.6651,-6.6857,-6.7598,-6.8304,-6.9033,-6.8972,-6.8993,-6.8752,-6.7957,-6.7398,-6.683,-6.604,-6.5546,-6.5538,-6.5423,-6.5207,-6.5137,-6.49,-6.4577,-6.4209,-6.383,-6.3428,-6.3099,-6.2865,-6.2725,-6.3366,-6.3876,-6.4505,-6.5143,-6.528,-6.5574,-6.6012,-6.6433,-6.6746,-6.704,-6.704,-6.6973,-6.704,-6.7189,-6.7245,-6.6844,-6.7178,-6.7644,-6.7295,-6.7263,-6.7414,-6.7704,-6.793,-6.8058,-6.8358,-6.8554,-6.865,-6.8744,-6.8838,-6.8884,-6.8929,-6.8998,-6.9132,-6.9439,-6.9956,-7.0706,-7.1116,-7.124,-7.1814,-7.2807,-7.3624,-7.4179,-7.437,-7.4468,-7.4386,-7.4114,-7.3574,-7.3039,-7.2692,-7.2358,-7.2127,-7.2023,-7.2152,-7.2419,-7.2383,-7.2176,-7.2023,-7.2071,-7.1983,-7.1888,-7.1784,-7.1712,-7.1422,-7.135,-7.0816,-7.0432,-7.057,-7.0701,-7.0962,-7.1509,-7.2262,-7.3048,-7.3869,-7.4083,-7.4118,-7.4118,-7.4083,-7.3619,-7.3119,-7.2655,-7.2014,-7.1091,-7.0486,-6.9953,-6.9278,-6.8569,-6.7971,-6.6739,-6.6727,-6.6678,-6.6967,-6.7521,-6.7669,-6.8148,-6.8762,-6.88,-6.9128,-6.9456,-6.874,-6.7861,-6.7089,-6.5793,-6.513,-6.5018,-6.4883,-6.473,-6.4762,-6.4753,-6.4684,-6.4425,-6.4004,-6.3632,-6.3218,-6.2965,-6.3064,-6.3738,-6.4637,-6.5395,-6.5656,-6.596,-6.6421,-6.6518,-6.6975,-6.7583,-6.7822,-6.8048,-6.8058,-6.8238,-6.8206,-6.8215,-6.7976,-6.8187,-6.799,-6.7733,-6.7685,-6.7549,-6.7496,-6.766,-6.7952,-6.8284,-6.853,-6.8674,-6.8721,-6.8921,-6.9064,-6.9192,-6.9372,-6.9641,-7.0067,-7.068,-7.1595,-7.2131,-7.2281,-7.2851,-7.3987,-7.4848,-7.537,-7.569,-7.5793,-7.5855,-7.5523,-7.515,-7.4779,-7.4402,-7.4007,-7.3676,-7.3738,-7.383,-7.3861,-7.3824,-7.3769,-7.3754,-7.3634,-7.3474,-7.3342,-7.3164,-7.2983,-7.2259,-7.201,-7.148,-7.1171,-7.1336,-7.1709,-7.2041,-7.2581,-7.3333,-7.4083,-7.4761,-7.4725,-7.4654,-7.4868,-7.4832,-7.4332,-7.3976,-7.3726,-7.2976,-7.1871,-7.1052,-7.059,-6.9912,-6.9202,-6.8638,-6.6791,-6.6796,-6.6714,-6.6853,-6.7191,-6.7472,-6.7793,-6.8126,-6.844,-6.8841,-6.917,-6.839,-6.7529,-6.6742,-6.5391,-6.4503,-6.4337,-6.4143,-6.4295,-6.4457,-6.4489,-6.4554,-6.4388,-6.4189,-6.3808,-6.3419,-6.3456,-6.3679,-6.4201,-6.5122,-6.584,-6.5985,-6.6518,-6.6903,-6.6895,-6.7576,-6.8205,-6.8316,-6.9043,-6.9449,-6.9501,-6.9268,-6.874,-6.8502,-6.8466,-6.8382,-6.8219,-6.8146,-6.7921,-6.7687,-6.7689,-6.7831,-6.8107,-6.8358,-6.8554,-6.8809,-6.9159,-6.9544,-6.9709,-7.0023,-7.0427,-7.0943,-7.1697,-7.2682,-7.3081,-7.3319,-7.4214,-7.5295,-7.6351,-7.6916,-7.7017,-7.7125,-7.7223,-7.707,-7.6272,-7.5617,-7.4902,-7.4238,-7.4046,-7.4014,-7.4108,-7.4201,-7.4134,-7.4041,-7.4024,-7.3961,-7.3982,-7.403,-7.3997,-7.4076,-7.3389,-7.2817,-7.2431,-7.1972,-7.1876,-7.25,-7.3223,-7.3797,-7.4297,-7.4654,-7.501,-7.5118,-7.5189,-7.5189,-7.5153,-7.4975,-7.4654,-7.4368,-7.3758,-7.2721,-7.1937,-7.1298,-7.0583,-6.9832,-6.9376,-6.6792,-6.6748,-6.6644,-6.651,-6.6461,-6.7038,-6.7258,-6.7321,-6.7795,-6.8065,-6.7973,-6.7263,-6.6576,-6.603,-6.5087,-6.4247,-6.3647,-6.3389,-6.3688,-6.4077,-6.4135,-6.4476,-6.4534,-6.4366,-6.407,-6.3928,-6.3923,-6.4174,-6.4563,-6.5505,-6.6043,-6.6116,-6.6599,-6.719,-6.7404,-6.7964,-6.8675,-6.9321,-6.9989,-7.055,-7.0437,-7.0071,-6.9294,-6.8977,-6.8944,-6.9082,-6.875,-6.8582,-6.8512,-6.8301,-6.8086,-6.833,-6.8525,-6.886,-6.9051,-6.9394,-6.9957,-7.033,-7.0676,-7.1096,-7.1516,-7.2071,-7.2865,-7.3441,-7.3824,-7.4692,-7.5592,-7.6467,-7.7528,-7.8035,-7.8104,-7.819,-7.8293,-7.8163,-7.7255,-7.6404,-7.5555,-7.479,-7.4733,-7.4606,-7.467,-7.4764,-7.4701,-7.457,-7.447,-7.4438,-7.4305,-7.4243,-7.429,-7.448,-7.4305,-7.3985,-7.374,-7.3279,-7.2782,-7.3041,-7.3904,-7.4333,-7.4725,-7.501,-7.5225,-7.5225,-7.5225,-7.5225,-7.5153,-7.5118,-7.4975,-7.4689,-7.4042,-7.3393,-7.2823,-7.2075,-7.1108,-7.0464,-7.0113,-6.672,-6.6561,-6.6528,-6.6398,-6.6234,-6.6337,-6.6306,-6.6203,-6.6346,-6.6372,-6.6332,-6.5727,-6.535,-6.5909,-6.4404,-6.3355,-6.2712,-6.2534,-6.2926,-6.3424,-6.3838,-6.4374,-6.4713,-6.469,-6.4554,-6.4413,-6.4302,-6.4303,-6.4772,-6.563,-6.5842,-6.544,-6.6755,-6.7539,-6.8231,-6.8866,-6.9616,-7.0163,-7.0661,-7.1223,-7.0998,-7.0668,-7.0434,-7.0191,-7.0089,-6.9663,-6.9267,-6.9385,-6.9114,-6.8925,-6.8886,-6.9141,-6.9403,-6.9626,-6.9902,-7.0202,-7.0768,-7.113,-7.1531,-7.1884,-7.2245,-7.2786,-7.3483,-7.3979,-7.4724,-7.5928,-7.6753,-7.7379,-7.8215,-7.8521,-7.8639,-7.8679,-7.8738,-7.8421,-7.7747,-7.7098,-7.6397,-7.6204,-7.614,-7.6012,-7.5948,-7.5948,-7.5883,-7.5782,-7.5749,-7.5647,-7.5512,-7.5412,-7.5239,-7.5209,-7.5105,-7.4932,-7.4756,-7.4544,-7.408,-7.3725,-7.4226,-7.4689,-7.5046,-7.5153,-7.5225,-7.5225,-7.5225,-7.5225,-7.5225,-7.5189,-7.5046,-7.4903,-7.4398,-7.3785,-7.3462,-7.2818,-7.1847,-7.1096,-7.078]},{"header":{"parameterUnit":"m.s-1","parameterCategory":1,"la1":31.0,"la2":29.5877,"lo1":-88.7671,"lo2":-86.6584,"dy":0.0162,"dx":0.0185,"nx":115,"ny":88,"refTime":"2023-04-27T06:00:00:Z","depth":0,"parameterNumber":3,"parameterNumberName":"V-component_of_WINDS"},"data":[0.0,0.0,0.0,0.0,0.0,0.0,0.0,0.0,0.0,0.0,0.0,0.0,0.0,0.0,0.0,0.0,0.0,0.0,0.0,0.0,0.0,0.0,0.0,0.0,0.0,0.0,0.0,0.0,0.0,0.0,0.0,0.0,0.0,0.0,0.0,0.0,0.0,0.0,0.0,0.0,0.0,0.0,0.0,0.0,0.0,0.0,0.0,0.0,0.0,0.0,0.0,0.0,0.0,0.0,0.0,0.0,0.0,0.0,0.0,0.0,0.0,0.0,0.0,0.0,0.0,0.0,0.0,0.0,0.0,0.0,0.0,0.0,0.0,0.0,0.0,0.0,0.0,0.0,0.0,0.0,0.0,0.0,0.0,0.0,0.0,0.0,0.0,0.0,0.0,0.0,0.0,0.0,0.0,0.0,0.0,0.0,0.0,0.0,0.0,0.0,0.0,0.0,0.0,0.0,0.0,0.0,0.0,0.0,0.0,0.0,0.0,0.0,0.0,0.0,0.0,0.0,0.0,0.0,0.0,0.0,0.0,0.0,0.0,0.0,0.0,0.0,0.0,0.0,0.0,0.0,0.0,0.0,0.0,0.0,0.0,0.0,0.0,0.0,0.0,0.0,0.0,0.0,0.0,0.0,0.0,0.0,0.0,0.0,0.0,0.0,0.0,0.0,0.0,0.0,0.0,0.0,0.0,0.0,0.0,0.0,0.0,0.0,0.0,0.0,0.0,0.0,0.0,0.0,0.0,0.0,0.0,0.0,0.0,0.0,0.0,0.0,0.0,0.0,0.0,0.0,0.0,0.0,0.0,0.0,0.0,0.0,0.0,0.0,0.0,0.0,0.0,0.0,0.0,0.0,0.0,0.0,0.0,0.0,0.0,0.0,0.0,0.0,0.0,0.0,0.0,0.0,0.0,0.0,0.0,0.0,0.0,0.0,0.0,0.0,0.0,0.0,0.0,0.0,0.0,0.0,0.0,0.0,0.0,0.0,0.0,0.0,0.0,0.0,0.0,0.0,0.0,0.0,0.0,0.0,0.0,0.0,0.0,0.0,0.0,0.0,0.0,0.0,0.0,0.0,0.0,0.0,0.0,0.0,0.0,0.0,0.0,0.0,0.0,0.0,0.0,0.0,0.0,0.0,0.0,0.0,0.0,0.0,0.0,0.0,0.0,0.0,0.0,0.0,0.0,0.0,0.0,0.0,0.0,0.0,0.0,0.0,0.0,0.0,0.0,0.0,0.0,0.0,0.0,0.0,0.0,0.0,0.0,0.0,0.0,0.0,0.0,0.0,0.0,0.0,0.0,0.0,0.0,0.0,0.0,0.0,0.0,0.0,0.0,0.0,0.0,0.0,0.0,0.0,0.0,0.0,0.0,0.0,0.0,0.0,0.0,0.0,0.0,0.0,0.0,0.0,0.0,0.0,0.0,0.0,0.0,0.0,0.0,0.0,0.0,0.0,0.0,0.0,0.0,0.0,0.0,0.0,0.0,0.0,0.0,0.0,0.0,0.0,0.0,0.0,0.0,0.0,0.0,0.0,0.0,0.0,0.0,0.0,0.0,0.0,0.0,0.0,0.0,0.0,0.0,0.0,0.0,0.0,0.0,0.0,0.0,0.0,0.0,0.0,0.0,0.0,0.0,0.0,0.0,0.0,0.0,0.0,0.0,0.0,0.0,0.0,0.0,0.0,0.0,0.0,0.0,0.0,0.0,0.0,0.0,0.0,0.0,0.0,0.0,0.0,0.0,0.0,0.0,0.0,0.0,0.0,0.0,0.0,0.0,0.0,0.0,0.0,0.0,0.0,0.0,0.0,0.0,0.0,0.0,0.0,0.0,0.0,0.0,0.0,0.0,0.0,0.0,0.0,0.0,0.0,0.0,0.0,0.0,0.0,0.0,0.0,0.0,0.0,0.0,0.0,0.0,0.0,0.0,0.0,0.0,0.0,0.0,0.0,0.0,0.0,0.0,0.0,0.0,0.0,0.0,0.0,0.0,0.0,0.0,0.0,0.0,0.0,0.0,0.0,0.0,0.0,0.0,0.0,0.0,0.0,0.0,0.0,0.0,0.0,0.0,0.0,0.0,0.0,0.0,0.0,0.0,0.0,0.0,0.0,0.0,0.0,0.0,0.0,0.0,0.0,0.0,0.0,0.0,0.0,0.0,0.0,0.0,0.0,0.0,0.0,0.0,0.0,0.0,0.0,0.0,0.0,0.0,0.0,0.0,0.0,0.0,0.0,0.0,0.0,0.0,0.0,0.0,0.0,0.0,0.0,0.0,0.0,0.0,0.0,0.0,0.0,0.0,0.0,0.0,0.0,0.0,0.0,0.0,0.0,0.0,0.0,0.0,0.0,0.0,0.0,0.0,0.0,0.0,0.0,0.0,0.0,0.0,0.0,0.0,0.0,0.0,0.0,0.0,0.0,0.0,0.0,0.0,0.0,0.0,0.0,0.0,0.0,0.0,0.0,0.0,0.0,0.0,0.0,0.0,0.0,0.0,0.0,0.0,0.0,0.0,0.0,0.0,0.0,0.0,0.0,0.0,0.0,0.0,0.0,0.0,0.0,0.0,0.0,0.0,0.0,0.0,0.0,0.0,0.0,0.0,0.0,0.0,0.0,0.0,0.0,0.0,0.0,0.0,0.0,0.0,0.0,0.0,0.0,0.0,0.0,0.0,0.0,0.0,0.0,0.0,0.0,0.0,0.0,0.0,0.0,0.0,0.0,0.0,0.0,0.0,0.0,0.0,0.0,0.0,0.0,0.0,0.0,0.0,0.0,0.0,0.0,0.0,0.0,0.0,0.0,0.0,0.0,0.0,0.0,0.0,0.0,0.0,0.0,0.0,0.0,0.0,0.0,0.0,0.0,0.0,0.0,0.0,0.0,0.0,0.0,0.0,0.0,0.0,0.0,0.0,0.0,0.0,0.0,0.0,0.0,0.0,0.0,0.0,0.0,0.0,0.0,0.0,0.0,0.0,0.0,0.0,0.0,0.0,0.0,0.0,0.0,0.0,0.0,0.0,0.0,0.0,0.0,0.0,0.0,0.0,0.0,0.0,0.0,0.0,0.0,0.0,0.0,0.0,0.0,0.0,0.0,0.0,0.0,0.0,0.0,0.0,0.0,0.0,0.0,0.0,0.0,0.0,0.0,0.0,0.0,0.0,0.0,0.0,0.0,0.0,0.0,0.0,0.0,0.0,0.0,0.0,0.0,0.0,0.0,0.0,0.0,0.0,0.0,0.0,0.0,0.0,0.0,0.0,0.0,0.0,0.0,0.0,0.0,0.0,0.0,0.0,0.0,0.0,0.0,0.0,0.0,0.0,0.0,0.0,0.0,0.0,0.0,0.0,0.0,0.0,0.0,0.0,0.0,0.0,0.0,0.0,0.0,0.0,0.0,0.0,0.0,0.0,0.0,0.0,0.0,0.0,0.0,0.0,0.0,0.0,0.0,0.0,0.0,0.0,0.0,0.0,0.0,0.0,0.0,0.0,0.0,0.0,0.0,0.0,0.0,0.0,0.0,0.0,0.0,0.0,0.0,0.0,0.0,0.0,0.0,0.0,0.0,0.0,0.0,0.0,0.0,0.0,0.0,0.0,0.0,0.0,0.0,0.0,0.0,0.0,0.0,0.0,0.0,0.0,0.0,0.0,0.0,0.0,0.0,0.0,0.0,0.0,0.0,0.0,0.0,0.0,0.0,0.0,0.0,0.0,0.0,0.0,0.0,0.0,0.0,0.0,0.0,0.0,0.0,0.0,0.0,0.0,0.0,0.0,0.0,0.0,0.0,0.0,0.0,0.0,0.0,0.0,0.0,0.0,0.0,0.0,0.0,0.0,0.0,0.0,0.0,0.0,0.0,0.0,0.0,0.0,0.0,0.0,0.0,0.0,0.0,0.0,0.0,0.0,0.0,0.0,0.0,0.0,0.0,0.0,0.0,0.0,0.0,0.0,0.0,0.0,0.0,0.0,0.0,0.0,0.0,0.0,0.0,0.0,0.0,0.0,0.0,0.0,0.0,0.0,0.0,0.0,0.0,0.0,0.0,0.0,0.0,0.0,0.0,0.0,0.0,0.0,0.0,0.0,0.0,0.0,0.0,0.0,0.0,0.0,0.0,0.0,0.0,0.0,0.0,0.0,0.0,0.0,0.0,0.0,0.0,0.0,0.0,0.0,0.0,0.0,0.0,0.0,0.0,0.0,0.0,0.0,0.0,0.0,0.0,0.0,0.0,0.0,0.0,0.0,0.0,0.0,0.0,0.0,0.0,0.0,0.0,2.1087,0.0,0.0,0.0,0.0,0.0,0.0,0.0,0.0,0.0,0.0,0.0,0.0,0.0,0.0,0.0,0.0,0.0,0.0,0.0,0.0,0.0,0.0,0.0,0.0,0.0,0.0,0.0,0.0,0.0,0.0,0.0,0.0,0.0,0.0,0.0,0.0,0.0,0.0,0.0,0.0,0.0,0.0,0.0,0.0,0.0,0.0,0.0,0.0,0.0,0.0,0.0,0.0,0.0,0.0,0.0,0.0,0.0,0.0,0.0,0.0,0.0,0.0,0.0,0.0,0.0,0.0,0.0,0.0,0.0,0.0,0.0,0.0,0.0,0.0,0.0,0.0,0.0,0.0,0.0,0.0,0.0,0.0,0.0,0.0,0.0,0.0,0.0,0.0,0.0,0.0,0.0,0.0,0.0,0.0,0.0,0.0,0.0,0.0,0.0,0.0,0.0,0.0,0.0,0.0,0.0,0.0,0.0,0.0,0.0,0.0,2.1496,2.1589,2.1496,2.1543,2.1838,0.0,0.0,0.0,0.0,0.0,0.0,0.0,0.0,0.0,0.0,0.0,0.0,0.0,0.0,0.0,0.0,0.0,0.0,0.0,0.0,0.0,0.0,0.0,0.0,0.0,0.0,0.0,0.0,0.0,0.0,0.0,0.0,0.0,0.0,0.0,0.0,0.0,0.0,0.0,0.0,0.0,0.0,0.0,0.0,0.0,0.0,0.0,0.0,0.0,0.0,0.0,0.0,0.0,0.0,0.0,0.0,0.0,0.0,0.0,0.0,0.0,0.0,0.0,0.0,0.0,0.0,0.0,0.0,0.0,0.0,0.0,0.0,0.0,0.0,0.0,0.0,0.0,0.0,0.0,0.0,0.0,0.0,0.0,0.0,0.0,0.0,0.0,0.0,0.0,0.0,0.0,0.0,0.0,0.0,0.0,0.0,0.0,0.0,0.0,0.0,0.0,0.0,0.0,0.0,0.0,0.0,0.0,0.0,0.0,0.0,0.0,0.0,2.1787,2.193,2.2422,0.0,0.0,0.0,0.0,0.0,0.0,0.0,0.0,0.0,0.0,0.0,0.0,0.0,0.0,0.0,0.0,0.0,0.0,0.0,0.0,0.0,0.0,0.0,0.0,0.0,0.0,0.0,0.0,0.0,0.0,0.0,0.0,0.0,0.0,0.0,0.0,0.0,0.0,0.0,0.0,0.0,0.0,0.0,0.0,0.0,0.0,0.0,0.0,0.0,0.0,0.0,0.0,0.0,0.0,0.0,0.0,0.0,0.0,0.0,0.0,0.0,0.0,0.0,0.0,0.0,0.0,0.0,0.0,0.0,0.0,0.0,0.0,0.0,0.0,0.0,0.0,0.0,0.0,0.0,0.0,0.0,0.0,0.0,0.0,0.0,0.0,0.0,0.0,0.0,0.0,0.0,0.0,0.0,0.0,0.0,0.0,0.0,0.0,0.0,0.0,0.0,0.0,0.0,0.0,0.0,0.0,0.0,0.0,0.0,0.0,2.123,2.1453,2.147,0.0,2.2215,0.0,0.0,0.0,0.0,0.0,0.0,0.0,0.0,0.0,0.0,0.0,0.0,0.0,0.0,0.0,0.0,0.0,0.0,0.0,0.0,0.0,0.0,0.0,0.0,0.0,0.0,0.0,0.0,0.0,0.0,0.0,0.0,0.0,0.0,0.0,0.0,0.0,0.0,0.0,0.0,0.0,0.0,0.0,0.0,0.0,0.0,0.0,0.0,0.0,0.0,0.0,0.0,0.0,0.0,0.0,0.0,0.0,0.0,0.0,0.0,0.0,0.0,0.0,0.0,0.0,0.0,0.0,0.0,0.0,0.0,0.0,0.0,0.0,0.0,0.0,0.0,0.0,0.0,0.0,0.0,0.0,0.0,0.0,0.0,0.0,0.0,0.0,0.0,0.0,0.0,0.0,0.0,0.0,0.0,0.0,0.0,0.0,0.0,0.0,0.0,0.0,0.0,0.0,0.0,0.0,0.0,0.0,0.0,0.0,0.0,2.1677,2.1825,2.2171,2.2533,0.0,0.0,0.0,0.0,0.0,0.0,0.0,0.0,0.0,0.0,0.0,0.0,0.0,0.0,0.0,0.0,0.0,0.0,0.0,0.0,0.0,0.0,0.0,0.0,0.0,0.0,0.0,0.0,0.0,0.0,0.0,0.0,0.0,0.0,0.0,0.0,0.0,0.0,0.0,0.0,0.0,0.0,0.0,0.0,0.0,0.0,0.0,0.0,0.0,0.0,0.0,0.0,0.0,0.0,0.0,0.0,0.0,0.0,0.0,0.0,0.0,0.0,0.0,0.0,0.0,0.0,0.0,0.0,0.0,0.0,0.0,0.0,0.0,0.0,0.0,0.0,0.0,0.0,0.0,0.0,0.0,0.0,0.0,0.0,0.0,0.0,0.0,0.0,0.0,0.0,0.0,0.0,0.0,0.0,0.0,0.0,0.0,0.0,0.0,0.0,0.0,0.0,0.0,0.0,0.0,0.0,0.0,0.0,0.0,0.0,2.1745,2.208,2.2232,2.2787,2.3206,2.3406,0.0,0.0,0.0,0.0,0.0,0.0,0.0,0.0,0.0,0.0,0.0,0.0,0.0,0.0,0.0,0.0,0.0,0.0,0.0,0.0,0.0,0.0,0.0,0.0,0.0,0.0,0.0,0.0,0.0,0.0,0.0,0.0,0.0,0.0,0.0,0.0,0.0,0.0,0.0,0.0,0.0,0.0,0.0,0.0,0.0,0.0,0.0,0.0,0.0,0.0,0.0,0.0,0.0,0.0,0.0,0.0,0.0,0.0,0.0,0.0,0.0,0.0,0.0,0.0,0.0,0.0,0.0,0.0,0.0,0.0,0.0,0.0,0.0,0.0,0.0,0.0,0.0,0.0,0.0,0.0,0.0,0.0,0.0,0.0,0.0,0.0,0.0,0.0,0.0,0.0,0.0,0.0,0.0,0.0,0.0,0.0,0.0,0.0,0.0,0.0,0.0,0.0,0.0,0.0,0.0,0.0,0.0,0.0,2.1641,2.1709,2.1979,2.2535,2.3105,2.3406,0.0,0.0,0.0,0.0,0.0,0.0,0.0,0.0,0.0,0.0,0.0,0.0,0.0,0.0,0.0,0.0,0.0,0.0,0.0,0.0,0.0,0.0,0.0,0.0,0.0,0.0,0.0,0.0,0.0,0.0,0.0,0.0,0.0,0.0,0.0,0.0,0.0,0.0,0.0,0.0,0.0,0.0,0.0,0.0,0.0,0.0,0.0,0.0,0.0,0.0,0.0,0.0,0.0,0.0,0.0,0.0,0.0,0.0,0.0,0.0,0.0,0.0,0.0,0.0,0.0,0.0,0.0,0.0,0.0,0.0,0.0,0.0,0.0,0.0,0.0,0.0,0.0,0.0,0.0,0.0,0.0,0.0,0.0,0.0,0.0,0.0,0.0,0.0,0.0,0.0,0.0,0.0,0.0,0.0,0.0,0.0,0.0,0.0,0.0,0.0,0.0,0.0,0.0,0.0,0.0,0.0,0.0,0.0,0.0,2.142,2.1623,2.1878,2.2283,2.2485,2.2736,0.0,0.0,0.0,0.0,0.0,0.0,0.0,0.0,0.0,0.0,0.0,0.0,0.0,0.0,0.0,0.0,0.0,0.0,0.0,0.0,0.0,0.0,0.0,0.0,0.0,0.0,0.0,0.0,0.0,0.0,0.0,0.0,0.0,0.0,0.0,0.0,0.0,0.0,0.0,0.0,0.0,0.0,0.0,0.0,0.0,0.0,0.0,0.0,0.0,0.0,0.0,0.0,0.0,0.0,0.0,0.0,0.0,0.0,0.0,0.0,0.0,0.0,0.0,0.0,0.0,0.0,0.0,0.0,0.0,0.0,0.0,0.0,0.0,0.0,0.0,0.0,0.0,0.0,0.0,0.0,0.0,0.0,0.0,0.0,0.0,0.0,0.0,0.0,0.0,0.0,0.0,0.0,0.0,0.0,0.0,0.0,0.0,0.0,0.0,0.0,0.0,0.0,0.0,0.0,0.0,0.0,0.0,0.0,0.0,2.142,0.0,2.203,2.2064,2.2182,2.2485,0.0,0.0,0.0,0.0,0.0,0.0,0.0,0.0,0.0,0.0,0.0,0.0,0.0,0.0,0.0,0.0,0.0,0.0,0.0,0.0,0.0,0.0,0.0,0.0,0.0,0.0,0.0,0.0,0.0,0.0,0.0,0.0,0.0,0.0,0.0,0.0,0.0,0.0,0.0,0.0,0.0,0.0,0.0,0.0,0.0,0.0,0.0,0.0,0.0,0.0,0.0,0.0,0.0,0.0,0.0,0.0,0.0,0.0,0.0,0.0,0.0,0.0,0.0,0.0,0.0,0.0,0.0,0.0,0.0,0.0,0.0,0.0,0.0,0.0,0.0,0.0,0.0,0.0,0.0,0.0,0.0,0.0,0.0,0.0,0.0,0.0,0.0,0.0,0.0,0.0,0.0,0.0,0.0,0.0,0.0,0.0,0.0,0.0,0.0,0.0,0.0,0.0,0.0,0.0,0.0,0.0,0.0,0.0,2.1725,2.1725,2.2283,2.2384,2.2114,2.2384,2.2837,0.0,0.0,0.0,0.0,0.0,0.0,0.0,0.0,0.0,0.0,0.0,0.0,0.0,0.0,0.0,0.0,0.0,0.0,0.0,0.0,0.0,0.0,0.0,0.0,0.0,0.0,0.0,0.0,0.0,0.0,0.0,0.0,0.0,0.0,0.0,0.0,0.0,0.0,0.0,0.0,0.0,0.0,0.0,0.0,0.0,0.0,0.0,0.0,0.0,0.0,0.0,0.0,0.0,0.0,0.0,0.0,0.0,0.0,0.0,0.0,0.0,0.0,0.0,0.0,0.0,0.0,0.0,0.0,0.0,0.0,0.0,0.0,0.0,0.0,0.0,0.0,0.0,0.0,0.0,0.0,0.0,0.0,0.0,0.0,0.0,0.0,0.0,0.0,0.0,0.0,0.0,0.0,0.0,0.0,0.0,0.0,0.0,0.0,0.0,0.0,0.0,0.0,0.0,0.0,0.0,0.0,0.0,0.0,0.0,2.1725,2.208,2.2131,2.1878,2.2283,2.2686,0.0,0.0,0.0,0.0,0.0,0.0,0.0,0.0,0.0,0.0,0.0,0.0,0.0,0.0,0.0,0.0,0.0,0.0,0.0,0.0,0.0,0.0,0.0,0.0,0.0,0.0,0.0,0.0,0.0,0.0,0.0,0.0,0.0,0.0,0.0,0.0,0.0,0.0,0.0,0.0,0.0,0.0,0.0,0.0,0.0,0.0,0.0,0.0,0.0,0.0,0.0,0.0,0.0,0.0,0.0,0.0,0.0,0.0,0.0,0.0,0.0,0.0,0.0,0.0,0.0,0.0,0.0,0.0,0.0,0.0,0.0,0.0,0.0,0.0,0.0,0.0,0.0,0.0,0.0,0.0,0.0,0.0,0.0,0.0,0.0,0.0,0.0,0.0,0.0,0.0,0.0,0.0,0.0,0.0,0.0,0.0,0.0,0.0,0.0,0.0,0.0,0.0,0.0,0.0,0.0,0.0,0.0,0.0,0.0,2.1776,2.208,2.208,2.1725,2.2232,2.2736,2.317,0.0,0.0,0.0,0.0,0.0,0.0,0.0,0.0,0.0,0.0,0.0,0.0,0.0,0.0,0.0,0.0,0.0,0.0,0.0,0.0,0.0,0.0,0.0,0.0,0.0,0.0,0.0,0.0,0.0,0.0,0.0,0.0,0.0,0.0,0.0,0.0,0.0,0.0,0.0,0.0,0.0,0.0,0.0,0.0,0.0,0.0,0.0,0.0,0.0,0.0,0.0,0.0,0.0,0.0,0.0,0.0,0.0,0.0,0.0,0.0,0.0,0.0,0.0,0.0,0.0,0.0,0.0,0.0,0.0,0.0,0.0,0.0,0.0,0.0,0.0,0.0,0.0,0.0,0.0,0.0,0.0,0.0,0.0,0.0,0.0,0.0,0.0,0.0,0.0,0.0,0.0,0.0,0.0,0.0,0.0,0.0,0.0,0.0,0.0,0.0,0.0,0.0,0.0,0.0,0.0,0.0,0.0,0.0,2.1725,2.2232,2.2232,2.1674,2.2283,2.2937,0.0,0.0,0.0,0.0,0.0,0.0,0.0,0.0,0.0,0.0,0.0,0.0,0.0,0.0,0.0,0.0,0.0,0.0,0.0,0.0,0.0,0.0,0.0,0.0,0.0,0.0,0.0,0.0,0.0,0.0,0.0,0.0,0.0,0.0,0.0,0.0,0.0,0.0,0.0,0.0,0.0,0.0,0.0,0.0,0.0,0.0,0.0,0.0,0.0,0.0,0.0,0.0,0.0,0.0,0.0,0.0,0.0,0.0,0.0,0.0,0.0,0.0,0.0,0.0,0.0,0.0,0.0,0.0,0.0,0.0,0.0,0.0,0.0,0.0,0.0,0.0,0.0,0.0,0.0,0.0,0.0,0.0,0.0,0.0,0.0,0.0,0.0,0.0,0.0,0.0,0.0,0.0,0.0,0.0,0.0,0.0,0.0,0.0,0.0,0.0,0.0,0.0,0.0,0.0,0.0,0.0,0.0,0.0,0.0,2.2013,2.1928,2.1776,2.142,2.2131,2.2686,0.0,0.0,0.0,0.0,0.0,0.0,0.0,0.0,0.0,0.0,0.0,0.0,0.0,0.0,0.0,0.0,0.0,0.0,0.0,0.0,0.0,0.0,0.0,0.0,0.0,0.0,0.0,0.0,0.0,0.0,0.0,0.0,0.0,0.0,0.0,0.0,0.0,0.0,0.0,0.0,0.0,0.0,0.0,0.0,0.0,0.0,0.0,0.0,0.0,0.0,0.0,0.0,0.0,0.0,0.0,0.0,0.0,0.0,0.0,0.0,0.0,0.0,0.0,0.0,0.0,0.0,0.0,0.0,0.0,0.0,0.0,0.0,0.0,0.0,0.0,0.0,0.0,0.0,0.0,0.0,0.0,0.0,0.0,0.0,0.0,0.0,0.0,0.0,0.0,0.0,0.0,0.0,0.0,0.0,0.0,0.0,0.0,0.0,0.0,0.0,0.0,0.0,0.0,0.0,0.0,0.0,0.0,0.0,2.1995,2.2008,2.1493,2.1402,2.1771,2.2129,2.2585,0.0,0.0,0.0,0.0,0.0,0.0,0.0,0.0,0.0,0.0,0.0,0.0,0.0,0.0,0.0,0.0,0.0,0.0,0.0,0.0,0.0,0.0,0.0,0.0,0.0,0.0,0.0,0.0,0.0,0.0,0.0,0.0,0.0,0.0,0.0,0.0,0.0,0.0,0.0,0.0,0.0,0.0,0.0,0.0,0.0,0.0,0.0,0.0,0.0,0.0,0.0,0.0,0.0,0.0,0.0,0.0,0.0,0.0,0.0,0.0,0.0,0.0,0.0,0.0,0.0,0.0,0.0,0.0,0.0,0.0,0.0,0.0,0.0,0.0,0.0,0.0,0.0,0.0,0.0,0.0,0.0,0.0,0.0,0.0,0.0,0.0,0.0,0.0,0.0,0.0,0.0,0.0,0.0,0.0,0.0,0.0,0.0,0.0,0.0,0.0,0.0,0.0,0.0,0.0,0.0,0.0,0.0,0.0,2.1512,2.1869,2.1065,2.1221,2.2338,2.2223,2.2536,0.0,0.0,0.0,0.0,0.0,0.0,0.0,0.0,0.0,0.0,0.0,0.0,0.0,0.0,0.0,0.0,0.0,0.0,0.0,0.0,0.0,0.0,0.0,0.0,0.0,0.0,0.0,0.0,0.0,0.0,0.0,0.0,0.0,0.0,0.0,0.0,0.0,0.0,0.0,0.0,0.0,0.0,0.0,0.0,0.0,0.0,0.0,0.0,0.0,0.0,0.0,0.0,0.0,0.0,0.0,0.0,0.0,0.0,0.0,0.0,0.0,0.0,0.0,0.0,0.0,0.0,0.0,0.0,0.0,0.0,0.0,0.0,0.0,0.0,0.0,0.0,0.0,0.0,0.0,0.0,0.0,0.0,0.0,0.0,0.0,0.0,0.0,0.0,0.0,0.0,0.0,0.0,0.0,0.0,0.0,0.0,0.0,0.0,0.0,0.0,0.0,0.0,0.0,0.0,0.0,0.0,0.0,0.0,2.1496,2.1869,2.1275,2.138,2.2371,2.2348,2.2831,0.0,0.0,0.0,0.0,0.0,0.0,0.0,0.0,0.0,0.0,0.0,0.0,0.0,0.0,0.0,0.0,0.0,0.0,0.0,0.0,0.0,0.0,0.0,0.0,0.0,0.0,0.0,0.0,0.0,0.0,0.0,0.0,0.0,0.0,0.0,0.0,0.0,0.0,0.0,0.0,0.0,0.0,0.0,0.0,0.0,0.0,0.0,0.0,2.5284,0.0,0.0,0.0,0.0,0.0,0.0,0.0,0.0,0.0,0.0,0.0,0.0,0.0,0.0,0.0,0.0,0.0,0.0,0.0,0.0,0.0,0.0,0.0,0.0,0.0,0.0,0.0,0.0,0.0,0.0,0.0,0.0,0.0,0.0,0.0,0.0,0.0,0.0,0.0,0.0,0.0,0.0,0.0,0.0,0.0,0.0,0.0,0.0,0.0,0.0,0.0,0.0,0.0,0.0,0.0,0.0,0.0,0.0,0.0,2.1374,2.174,2.1573,2.2041,2.3053,2.3161,2.3381,0.0,0.0,0.0,0.0,0.0,0.0,0.0,0.0,0.0,0.0,0.0,0.0,0.0,0.0,0.0,0.0,0.0,0.0,0.0,0.0,0.0,0.0,0.0,0.0,0.0,0.0,0.0,0.0,0.0,0.0,0.0,0.0,0.0,0.0,0.0,0.0,0.0,0.0,0.0,0.0,0.0,0.0,0.0,0.0,0.0,0.0,0.0,0.0,0.0,0.0,0.0,0.0,0.0,0.0,0.0,0.0,0.0,0.0,0.0,0.0,0.0,0.0,0.0,0.0,0.0,0.0,0.0,0.0,0.0,0.0,0.0,0.0,0.0,0.0,0.0,0.0,0.0,0.0,0.0,0.0,0.0,0.0,0.0,0.0,0.0,0.0,0.0,0.0,0.0,0.0,0.0,0.0,0.0,0.0,0.0,0.0,0.0,0.0,0.0,0.0,0.0,0.0,0.0,0.0,0.0,0.0,0.0,2.105,2.1274,2.165,2.1988,2.274,2.3865,2.3967,2.4043,2.3888,0.0,0.0,0.0,0.0,0.0,0.0,0.0,0.0,0.0,0.0,0.0,0.0,0.0,0.0,0.0,0.0,0.0,0.0,0.0,0.0,0.0,0.0,0.0,0.0,0.0,0.0,0.0,0.0,0.0,0.0,0.0,0.0,0.0,0.0,0.0,0.0,0.0,0.0,2.8603,2.9514,0.0,0.0,0.0,0.0,0.0,0.0,0.0,0.0,2.5606,0.0,0.0,0.0,0.0,0.0,0.0,0.0,0.0,0.0,0.0,0.0,0.0,0.0,0.0,0.0,0.0,0.0,0.0,0.0,0.0,0.0,0.0,0.0,0.0,0.0,0.0,0.0,0.0,0.0,0.0,0.0,0.0,0.0,0.0,0.0,0.0,0.0,0.0,0.0,0.0,0.0,0.0,0.0,0.0,0.0,0.0,0.0,0.0,0.0,0.0,0.0,0.0,0.0,0.0,0.0,0.0,2.1573,2.1414,2.1571,2.1904,2.2323,2.2965,2.3865,2.4211,2.4404,2.4603,0.0,0.0,0.0,0.0,0.0,0.0,0.0,0.0,0.0,0.0,0.0,0.0,0.0,0.0,0.0,0.0,0.0,0.0,0.0,0.0,0.0,0.0,0.0,0.0,0.0,0.0,0.0,0.0,0.0,0.0,0.0,0.0,0.0,0.0,0.0,0.0,0.0,0.0,0.0,3.046,3.088,0.0,0.0,0.0,0.0,0.0,0.0,0.0,0.0,2.5771,0.0,0.0,0.0,0.0,0.0,0.0,0.0,0.0,0.0,0.0,0.0,0.0,0.0,0.0,0.0,0.0,0.0,0.0,0.0,0.0,0.0,0.0,0.0,0.0,0.0,0.0,0.0,0.0,0.0,0.0,0.0,0.0,0.0,0.0,0.0,0.0,0.0,0.0,0.0,0.0,0.0,0.0,0.0,0.0,0.0,0.0,0.0,0.0,0.0,0.0,0.0,0.0,0.0,0.0,0.0,2.1299,2.1554,2.1824,2.208,2.2702,2.3406,2.4145,2.448,2.4794,0.0,0.0,0.0,0.0,0.0,0.0,0.0,0.0,0.0,0.0,0.0,0.0,0.0,0.0,0.0,0.0,0.0,0.0,0.0,0.0,0.0,0.0,0.0,0.0,0.0,0.0,0.0,0.0,0.0,0.0,0.0,0.0,0.0,0.0,0.0,0.0,0.0,0.0,0.0,0.0,3.1552,3.202,3.2723,0.0,0.0,0.0,0.0,0.0,0.0,2.7592,2.6915,0.0,0.0,0.0,0.0,0.0,0.0,0.0,0.0,0.0,0.0,0.0,0.0,0.0,0.0,0.0,0.0,0.0,0.0,0.0,0.0,0.0,0.0,0.0,0.0,0.0,0.0,0.0,0.0,0.0,0.0,0.0,0.0,0.0,0.0,0.0,0.0,0.0,0.0,0.0,0.0,0.0,0.0,0.0,0.0,0.0,0.0,0.0,0.0,0.0,0.0,0.0,0.0,0.0,0.0,0.0,2.1094,2.1661,2.203,2.2182,2.3092,2.386,2.4367,2.4758,2.5025,0.0,0.0,0.0,0.0,0.0,0.0,0.0,0.0,0.0,0.0,0.0,0.0,0.0,0.0,0.0,0.0,0.0,0.0,0.0,0.0,0.0,0.0,0.0,0.0,0.0,0.0,0.0,0.0,0.0,0.0,0.0,0.0,0.0,0.0,0.0,0.0,0.0,0.0,0.0,0.0,0.0,3.296,3.4075,3.3552,0.0,0.0,0.0,0.0,2.9872,2.8985,0.0,0.0,0.0,0.0,0.0,0.0,0.0,0.0,0.0,0.0,0.0,0.0,0.0,0.0,0.0,0.0,0.0,0.0,0.0,0.0,0.0,0.0,0.0,0.0,0.0,0.0,0.0,0.0,0.0,0.0,0.0,0.0,0.0,0.0,0.0,0.0,0.0,0.0,0.0,0.0,0.0,0.0,0.0,0.0,0.0,0.0,0.0,0.0,0.0,0.0,0.0,0.0,0.0,0.0,0.0,0.0,2.1656,2.1856,2.2135,2.2376,2.3416,2.4089,2.4396,2.4964,2.5186,0.0,0.0,0.0,0.0,0.0,0.0,0.0,0.0,0.0,0.0,0.0,0.0,0.0,0.0,0.0,0.0,0.0,0.0,0.0,0.0,0.0,0.0,0.0,0.0,0.0,0.0,0.0,0.0,0.0,0.0,0.0,0.0,0.0,0.0,0.0,0.0,0.0,0.0,0.0,0.0,0.0,3.3288,3.4548,3.4454,3.3931,0.0,0.0,3.147,3.0916,3.0193,0.0,0.0,0.0,0.0,0.0,0.0,0.0,0.0,0.0,0.0,0.0,0.0,0.0,0.0,0.0,0.0,0.0,0.0,0.0,0.0,0.0,0.0,0.0,0.0,0.0,0.0,0.0,0.0,0.0,0.0,0.0,0.0,0.0,0.0,0.0,0.0,0.0,0.0,0.0,0.0,0.0,0.0,0.0,0.0,0.0,0.0,0.0,0.0,0.0,0.0,0.0,0.0,0.0,0.0,0.0,2.2283,2.2519,2.2481,2.2797,2.3497,2.3977,2.4637,2.5401,2.5628,2.5826,0.0,0.0,0.0,0.0,0.0,0.0,0.0,0.0,0.0,0.0,0.0,0.0,0.0,0.0,0.0,0.0,0.0,0.0,0.0,0.0,0.0,0.0,0.0,0.0,0.0,0.0,0.0,0.0,0.0,0.0,0.0,0.0,0.0,0.0,0.0,0.0,0.0,0.0,0.0,0.0,0.0,0.0,3.5295,3.5419,0.0,0.0,0.0,3.3262,3.2581,0.0,0.0,0.0,0.0,0.0,0.0,0.0,0.0,0.0,0.0,0.0,0.0,0.0,0.0,0.0,0.0,0.0,0.0,0.0,0.0,0.0,0.0,0.0,0.0,0.0,0.0,0.0,0.0,0.0,0.0,0.0,0.0,0.0,0.0,0.0,0.0,0.0,0.0,0.0,0.0,0.0,0.0,0.0,0.0,0.0,0.0,0.0,0.0,0.0,0.0,0.0,0.0,0.0,0.0,0.0,0.0,0.0,2.3306,2.3092,2.356,2.4531,2.4761,2.5322,2.6383,2.65,0.0,0.0,0.0,0.0,0.0,0.0,0.0,0.0,0.0,0.0,0.0,0.0,0.0,0.0,0.0,0.0,0.0,0.0,0.0,0.0,0.0,0.0,0.0,0.0,0.0,0.0,0.0,2.6892,0.0,0.0,0.0,0.0,0.0,0.0,0.0,0.0,0.0,0.0,0.0,0.0,0.0,0.0,3.432,3.5901,3.6098,3.586,0.0,0.0,3.4677,3.3991,3.3172,3.2476,0.0,0.0,0.0,0.0,0.0,0.0,0.0,0.0,0.0,0.0,0.0,0.0,0.0,0.0,0.0,0.0,0.0,0.0,0.0,0.0,0.0,0.0,0.0,0.0,0.0,0.0,0.0,0.0,0.0,0.0,0.0,0.0,0.0,0.0,0.0,0.0,0.0,0.0,0.0,0.0,0.0,0.0,0.0,0.0,0.0,0.0,0.0,0.0,0.0,0.0,0.0,0.0,0.0,0.0,2.3716,2.3836,2.3722,2.412,2.5058,2.5684,2.6282,2.6918,2.7422,2.7554,0.0,0.0,0.0,0.0,0.0,0.0,0.0,0.0,0.0,0.0,0.0,0.0,0.0,0.0,0.0,0.0,0.0,0.0,0.0,0.0,0.0,0.0,0.0,0.0,0.0,0.0,0.0,0.0,0.0,0.0,0.0,0.0,0.0,0.0,0.0,0.0,0.0,0.0,0.0,0.0,0.0,3.4552,3.616,3.6358,3.6263,0.0,3.5476,3.5066,3.4726,3.4066,3.3499,3.3499,0.0,0.0,0.0,0.0,0.0,0.0,0.0,0.0,0.0,0.0,0.0,0.0,0.0,0.0,0.0,0.0,0.0,0.0,0.0,0.0,0.0,0.0,0.0,0.0,0.0,0.0,0.0,0.0,0.0,0.0,0.0,0.0,0.0,0.0,0.0,0.0,0.0,0.0,0.0,0.0,0.0,0.0,0.0,0.0,0.0,0.0,0.0,0.0,0.0,0.0,0.0,0.0,0.0,2.5622,2.5735,2.5182,2.5532,2.6691,2.6842,2.7349,2.8262,2.8475,2.8605,0.0,0.0,0.0,0.0,0.0,0.0,0.0,0.0,0.0,0.0,0.0,0.0,0.0,0.0,0.0,0.0,0.0,0.0,0.0,0.0,0.0,0.0,0.0,0.0,0.0,0.0,0.0,0.0,2.9766,2.96,2.8688,0.0,0.0,0.0,0.0,0.0,0.0,0.0,0.0,0.0,0.0,3.4761,3.6207,3.6405,0.0,0.0,3.5812,3.5524,3.5114,3.4677,3.4286,3.4139,3.3433,0.0,0.0,0.0,0.0,0.0,0.0,0.0,0.0,0.0,0.0,0.0,0.0,0.0,0.0,0.0,0.0,0.0,0.0,0.0,0.0,0.0,0.0,0.0,0.0,0.0,0.0,0.0,0.0,0.0,0.0,0.0,0.0,0.0,0.0,0.0,0.0,0.0,0.0,0.0,0.0,0.0,0.0,0.0,0.0,0.0,0.0,0.0,0.0,0.0,0.0,0.0,0.0,2.793,2.7874,2.7129,2.7324,2.8382,2.8262,2.8522,2.9245,2.9454,2.9485,0.0,0.0,0.0,0.0,0.0,0.0,0.0,0.0,0.0,0.0,0.0,0.0,0.0,0.0,0.0,0.0,0.0,0.0,0.0,0.0,0.0,0.0,0.0,0.0,0.0,0.0,0.0,0.0,3.0143,2.9999,2.9336,0.0,0.0,0.0,0.0,0.0,0.0,0.0,0.0,0.0,0.0,3.4853,3.6207,3.6405,3.631,3.6146,3.6051,3.586,3.5524,3.5163,3.4872,3.4677,0.0,0.0,0.0,0.0,0.0,0.0,0.0,0.0,0.0,0.0,0.0,0.0,0.0,0.0,0.0,0.0,0.0,0.0,0.0,0.0,0.0,0.0,0.0,0.0,0.0,0.0,0.0,1.5553,0.0,0.0,1.9428,0.0,0.0,0.0,0.0,0.0,0.0,0.0,0.0,0.0,0.0,0.0,0.0,0.0,0.0,0.0,0.0,0.0,0.0,0.0,0.0,0.0,0.0,3.0417,3.0048,2.9492,2.9415,2.9838,2.9932,2.9829,2.974,3.0155,3.0126,2.9463,0.0,0.0,0.0,0.0,0.0,0.0,0.0,0.0,0.0,0.0,0.0,0.0,0.0,0.0,0.0,0.0,0.0,0.0,0.0,0.0,0.0,0.0,0.0,0.0,0.0,0.0,2.9597,2.9698,2.991,0.0,0.0,0.0,0.0,0.0,0.0,0.0,0.0,0.0,3.378,3.4226,3.4877,3.6207,3.6405,3.6405,3.6405,3.6193,3.6003,3.5955,3.5524,3.5187,0.0,0.0,0.0,0.0,0.0,0.0,0.0,0.0,0.0,0.0,0.0,0.0,0.0,0.0,0.0,0.0,0.0,0.0,0.0,0.0,0.0,0.0,0.0,0.0,0.0,0.0,0.0,1.4169,1.4976,0.0,0.0,0.0,0.0,0.0,0.0,0.0,0.0,0.0,0.0,0.0,3.5381,3.6428,0.0,0.0,0.0,0.0,0.0,0.0,0.0,0.0,0.0,0.0,0.0,0.0,3.2622,3.2374,3.1394,3.1112,3.1513,3.0874,3.0586,3.0758,3.0581,3.0568,3.067,0.0,0.0,0.0,0.0,0.0,0.0,0.0,0.0,0.0,0.0,0.0,0.0,0.0,0.0,0.0,0.0,0.0,0.0,0.0,0.0,0.0,0.0,0.0,0.0,0.0,2.7923,0.0,0.0,0.0,0.0,0.0,0.0,0.0,0.0,0.0,0.0,0.0,3.2306,3.3646,3.4456,3.5322,3.6257,3.6405,3.6405,0.0,0.0,0.0,0.0,0.0,0.0,0.0,0.0,0.0,0.0,0.0,0.0,0.0,0.0,3.3424,3.2472,3.2088,3.1724,3.0937,0.0,0.0,0.0,0.0,0.0,0.0,0.0,0.0,0.0,0.0,0.0,0.0,0.0,0.0,1.3964,1.4546,1.5873,0.0,0.0,0.0,0.0,0.0,0.0,0.0,0.0,3.3315,3.4749,3.6155,3.7216,3.8013,3.8565,3.8943,3.8524,0.0,0.0,0.0,0.0,0.0,0.0,0.0,0.0,3.4627,3.4365,3.3216,3.263,3.2528,3.1609,3.1029,3.0918,3.0682,3.0833,3.1445,3.1084,3.0785,0.0,0.0,0.0,0.0,0.0,0.0,0.0,0.0,0.0,0.0,0.0,0.0,0.0,0.0,0.0,0.0,0.0,0.0,0.0,0.0,0.0,0.0,0.0,2.7719,0.0,0.0,0.0,0.0,0.0,0.0,0.0,0.0,0.0,3.0307,3.1273,3.2456,3.3661,3.4541,3.5335,3.6166,0.0,0.0,0.0,0.0,0.0,0.0,0.0,3.5908,3.5764,3.5668,3.5524,3.538,3.4969,3.4749,3.4917,0.0,0.0,3.3845,3.3576,3.3205,3.2424,3.1776,3.1322,3.1166,3.1061,3.0947,0.0,0.0,0.0,0.0,1.6311,0.0,0.0,0.0,1.3856,1.3856,0.0,1.5351,0.0,0.0,0.0,0.0,2.7282,2.9321,0.0,0.0,3.4165,3.5682,3.7184,3.7693,3.8495,3.9519,3.9121,3.8992,3.9181,3.8635,0.0,0.0,0.0,0.0,0.0,0.0,3.6427,3.5879,3.4936,3.3958,3.2951,3.2105,3.1172,3.0247,3.0482,3.1014,3.1708,3.106,3.0731,3.0868,3.0204,0.0,0.0,0.0,0.0,0.0,0.0,0.0,0.0,0.0,0.0,0.0,0.0,0.0,0.0,0.0,0.0,0.0,0.0,0.0,0.0,2.6356,0.0,0.0,0.0,0.0,0.0,0.0,0.0,0.0,0.0,0.0,3.1224,3.1507,3.2345,3.3791,0.0,0.0,0.0,0.0,3.6405,3.6405,3.6405,3.6405,3.6405,3.6193,3.6028,3.6003,0.0,0.0,3.562,3.538,3.5405,3.5892,3.6152,3.5989,3.4684,3.4652,3.4555,3.3759,3.3292,3.3211,3.316,3.2805,3.2721,2.1141,0.0,0.0,0.0,0.0,1.6747,1.5725,1.4719,1.4018,1.3748,1.391,1.4869,0.0,0.0,0.0,0.0,0.0,0.0,3.209,3.3931,3.4758,3.6013,3.7789,3.8316,3.9025,3.9894,3.9803,3.9445,3.8896,3.8007,3.7557,3.7594,0.0,0.0,0.0,0.0,3.6709,3.6684,3.5597,3.4644,3.3982,3.2628,3.139,3.0216,3.1017,3.1474,3.1467,3.1213,3.1035,3.0916,3.04,0.0,0.0,0.0,0.0,0.0,0.0,0.0,0.0,0.0,0.0,0.0,0.0,0.0,0.0,0.0,0.0,0.0,0.0,0.0,2.4032,2.566,2.6955,0.0,0.0,0.0,0.0,0.0,0.0,0.0,0.0,0.0,3.2279,3.2799,3.331,0.0,0.0,3.5089,3.5883,3.6051,3.6193,3.6358,3.6405,0.0,3.6405,3.631,3.6263,3.6288,3.6051,3.586,3.586,3.5988,3.5917,3.5527,3.6109,3.6394,3.5535,3.5494,3.5278,3.4426,3.3678,3.3197,3.2972,3.2987,3.3042,2.2503,2.1681,2.0633,1.9682,1.8781,1.7847,1.673,1.56,1.4735,1.4307,1.4266,1.5113,1.648,1.8314,2.1525,0.0,0.0,0.0,3.2464,3.4361,3.4831,3.5865,3.7337,3.7667,3.8222,3.8881,3.8717,3.8437,3.8004,3.722,3.6816,3.674,0.0,3.6998,3.7283,3.6704,3.6474,3.6543,3.569,3.4856,3.4125,3.2769,3.1692,3.0905,3.1616,3.1908,3.1472,3.1353,3.1184,3.0846,3.0235,2.9785,0.0,0.0,0.0,0.0,0.0,0.0,0.0,0.0,0.0,0.0,0.0,2.5446,2.3901,0.0,0.0,0.0,2.2397,2.3092,2.4244,2.5504,0.0,0.0,0.0,0.0,0.0,0.0,0.0,3.2734,3.3074,3.3182,3.3115,3.3561,3.3866,3.3713,3.434,3.4969,3.5476,0.0,3.5908,3.6026,3.6073,3.6073,3.6073,3.6098,3.6073,3.6073,3.6154,3.6182,3.6158,3.6383,3.6357,3.6013,3.6178,3.6242,3.5563,3.5479,3.5345,3.4684,3.4028,3.3518,3.3315,3.3288,3.3346,2.3528,2.2488,2.1284,2.0255,1.9443,1.8782,1.7759,1.6614,1.5772,1.5255,1.5066,1.5857,1.7139,1.9005,2.3597,0.0,2.9632,3.0925,3.2418,3.4125,3.4599,3.5365,3.636,3.6338,3.6614,3.7091,3.6554,3.6398,3.6564,3.6273,3.5799,3.5268,3.5282,3.574,3.6505,3.6083,3.581,3.5786,3.5291,3.455,3.3577,3.2581,3.1969,3.1802,3.219,3.215,3.1703,3.1406,3.1098,3.0806,2.9931,2.9622,3.0004,0.0,0.0,0.0,0.0,0.0,0.0,0.0,0.0,0.0,0.0,0.0,0.0,0.0,0.0,0.0,2.3078,0.0,2.4798,2.5774,0.0,0.0,0.0,3.0554,3.189,3.2566,3.3202,3.3987,0.0,0.0,3.3599,3.3944,3.4084,3.3658,3.4237,3.4726,3.4775,3.5163,3.5524,3.5524,3.5572,3.5572,3.562,3.567,3.5767,3.5791,3.6088,3.6456,3.653,3.6724,3.6891,3.6717,3.6384,3.5907,3.5334,3.5034,3.4762,3.4809,3.4337,3.3912,3.3765,3.3697,3.3727,2.3548,2.2601,2.1555,2.0716,1.9989,1.8755,1.7647,1.6658,1.5578,1.5188,1.5356,1.5928,1.8169,2.1676,2.5038,2.7819,3.0185,3.1601,3.3,3.4316,3.4679,3.5308,3.6137,3.5893,3.6013,3.6297,3.5741,3.5217,3.4637,3.4109,3.363,3.3309,3.3068,3.36,3.4819,3.4598,3.4581,3.4775,3.4078,3.3291,3.2487,3.2205,3.1969,3.1731,3.1606,3.1517,3.1406,3.113,3.1019,3.1032,3.0546,3.0446,3.0663,3.0309,0.0,0.0,0.0,0.0,0.0,0.0,0.0,0.0,0.0,2.5136,2.4246,0.0,2.3857,0.0,2.3872,2.4294,2.4872,2.6018,0.0,0.0,2.9738,3.1027,3.2044,3.2711,3.3395,3.4009,3.4199,3.4108,3.3599,3.3626,3.3533,3.3128,3.3592,3.4064,3.4433,3.458,3.4775,3.4993,3.5138,3.5284,3.5332,3.5819,3.6186,3.6235,3.6653,3.6972,3.6996,3.7388,3.7455,3.6734,3.6747,3.6514,3.5675,3.5095,3.4734,3.4688,3.4032,3.3353,3.3151,3.3485,3.3779,2.3885,2.2811,2.2008,2.1058,2.0014,1.891,1.7784,1.6669,1.5863,1.5648,1.5896,1.7409,2.0039,2.3366,2.5825,2.8209,3.0528,3.1871,3.3108,3.4237,3.4286,3.4599,3.5158,3.4615,3.443,3.4435,3.3874,3.3213,3.2541,3.219,3.1975,3.1918,3.1675,3.1986,3.277,3.3061,3.3206,3.33,3.3277,3.3116,3.2938,3.2938,3.2724,3.2248,3.2176,3.1806,3.0958,3.1345,3.134,3.0977,3.0789,3.0799,3.086,3.0625,3.0284,0.0,0.0,0.0,0.0,0.0,0.0,0.0,0.0,0.0,0.0,0.0,2.4377,2.412,2.4139,2.4474,2.5107,2.6094,2.712,2.8337,2.9751,3.0956,3.171,3.2534,3.3182,3.3636,3.3918,3.3917,3.3508,3.3492,3.336,3.2913,3.3005,3.3369,3.3817,3.3991,3.4111,3.4445,3.4691,3.4911,3.5125,3.5635,3.6052,3.6076,3.6461,3.6823,3.6847,3.7256,3.732,3.6606,3.6441,3.6203,3.537,3.4733,3.4291,3.396,3.3548,3.3211,3.327,3.3511,3.3617,2.4453,2.3202,2.2511,2.1307,1.9826,1.9122,1.7998,1.6621,1.6253,1.6229,1.6614,1.9377,2.1901,2.4299,2.6306,2.8502,3.0736,3.1961,3.303,3.3965,3.3645,3.3595,3.3793,3.2974,3.242,3.2117,3.1534,3.0976,3.0393,3.0401,3.0486,3.0694,3.0656,3.0585,3.0559,3.1358,3.185,3.1973,3.2752,3.344,3.3902,3.3833,3.3554,3.2964,3.3074,3.2347,3.0738,3.1715,3.1868,3.0942,3.0956,3.1058,3.0988,3.0752,3.0454,0.0,2.9352,0.0,0.0,0.0,0.0,0.0,0.0,0.0,0.0,2.4607,2.4646,2.444,2.42,2.4444,2.5468,2.6099,2.7034,2.8372,2.9608,3.0567,3.1208,3.2018,3.2706,3.3069,3.3579,3.3725,3.3375,3.342,3.3325,3.2967,3.2775,3.2909,3.3224,3.348,3.3646,3.3925,3.4198,3.4593,3.4941,3.538,3.5606,3.5653,3.608,3.6379,3.6432,3.6731,3.6818,3.639,3.5901,3.539,3.4827,3.4305,3.3772,3.3387,3.3182,3.3148,3.3444,3.3435,3.3495,2.5124,2.3778,2.2686,2.139,2.0073,1.8945,1.7645,1.6253,1.5716,1.6168,1.752,1.9847,2.2215,2.4487,2.6859,2.8971,3.0877,3.2012,3.2828,3.3442,3.317,3.2919,3.2672,3.1885,3.1146,3.0474,2.9848,2.9258,2.872,2.8859,2.882,2.8682,2.8988,2.8949,2.8677,0.0,0.0,0.0,3.2671,3.3256,3.3337,3.3158,3.301,3.2869,3.251,0.0,3.1425,3.2014,3.2146,3.165,3.1705,0.0,0.0,0.0,0.0,0.0,0.0,0.0,0.0,0.0,0.0,0.0,2.4535,2.4479,2.444,2.444,2.4535,2.4701,2.4646,2.4952,2.5741,2.6388,2.7285,2.8372,2.939,3.0274,3.0898,3.1325,3.1845,3.2685,3.2877,3.3029,3.3274,3.3322,3.3356,3.3294,3.3118,3.3126,3.3443,3.3346,3.3456,3.3855,3.4125,3.4409,3.4739,3.5182,3.5488,3.561,3.5956,3.6256,3.6279,3.6325,3.6309,3.5931,3.5627,3.5331,3.4967,3.4494,3.3985,3.3917,3.3506,3.3048,3.2652,3.2802,3.2916,2.6239,2.4756,2.3307,2.1925,0.0,1.9044,1.7661,1.655,1.5715,1.629,1.802,2.0238,2.258,2.4985,2.7168,2.9147,3.0958,3.2018,3.2881,3.3614,3.2982,3.2701,3.2545,3.1378,3.0391,2.9533,2.8973,2.8335,2.7711,2.7576,2.7509,2.7382,2.7642,2.7698,2.7678,2.8633,2.9776,3.1084,3.2405,3.3153,3.3331,3.3369,3.3225,3.3028,3.2805,0.0,0.0,0.0,0.0,0.0,0.0,0.0,0.0,3.1614,0.0,3.0605,2.9738,2.8859,2.7879,2.7053,2.6049,2.4766,2.4188,2.3977,2.4144,2.4033,2.4161,2.4552,2.476,2.5156,2.5816,2.6505,2.7323,2.817,2.8975,2.9686,3.0333,3.0684,3.115,3.1883,3.2285,3.2582,3.2938,3.3185,3.3322,3.3356,3.3116,3.3051,3.3495,3.3347,3.3268,3.357,3.4095,3.439,3.4445,3.4709,3.4997,3.5042,3.5199,3.5411,3.5433,3.5433,3.5378,3.5212,3.4936,3.468,3.459,3.4086,3.3614,3.3388,3.3027,3.2478,3.1816,3.2079,3.2413,2.7528,2.5827,2.4208,2.2708,2.1279,1.9371,1.7887,1.68,1.5905,0.0,0.0,2.0381,2.2828,2.5433,2.7223,2.9044,3.0989,3.205,3.3107,3.393,3.3124,3.2737,3.2663,3.1177,2.9931,2.9026,2.8441,2.773,2.7047,2.6755,2.6645,2.6655,2.6693,2.6807,2.7086,2.8397,2.953,3.0396,3.2062,3.3062,3.3391,3.3679,3.3548,3.3019,3.3146,3.2842,3.2066,3.2968,3.3182,3.2635,3.3064,3.2841,3.1903,3.1787,3.1498,3.0918,2.9949,2.9064,2.841,2.7423,2.6203,2.4835,2.3934,2.3537,2.3697,2.3585,2.3697,2.4217,2.4591,2.5057,2.5676,2.6385,2.712,2.7727,2.8379,2.8975,2.9568,2.9981,3.0392,3.0976,3.1594,3.2113,3.2493,3.2917,3.324,3.3253,3.3071,3.2954,3.3496,3.3454,3.3291,3.3418,3.3908,3.4211,3.4065,3.4134,3.4246,3.4168,3.419,3.4211,3.4211,3.4211,3.4211,3.4134,3.3931,3.3784,3.3727,3.3275,3.2877,3.2571,3.2285,3.1856,3.1301,3.1324,3.1543,2.8977,2.7255,2.5593,2.3986,2.227,2.0349,1.8252,1.6228,1.6057,1.6762,1.8102,1.9975,2.247,2.5318,2.6786,2.8813,3.1162,3.2281,3.3241,3.3976,3.3772,3.3257,3.2402,3.1212,2.9974,2.8761,2.7906,2.7394,2.7087,2.679,2.6596,2.6443,2.6402,2.6346,2.6408,2.7716,2.8686,2.9258,3.1678,3.2952,3.3093,3.3413,3.313,3.2221,3.2712,3.2763,3.2372,3.3307,3.3526,3.2912,3.3268,3.3012,3.1903,3.1787,3.1518,3.0957,2.9924,2.913,2.8447,2.7246,2.5822,2.4285,2.3541,2.3184,2.3167,2.336,2.3528,2.3657,2.4154,2.4672,2.5078,2.5738,2.6466,2.7125,2.7539,2.8002,2.86,2.8975,2.945,2.9981,3.0684,3.1305,3.1825,3.2374,3.288,3.3127,3.3282,3.3423,3.3332,3.3655,3.3802,3.362,3.3628,3.3614,3.3388,3.331,3.3254,3.3027,3.297,3.3027,3.3027,3.3027,3.297,3.297,3.2742,3.2514,3.2457,3.2248,3.2018,3.1903,3.1594,3.1184,3.071,3.0353,3.0151,3.0587,2.8814,2.6844,2.5015,2.3201,2.0684,1.8641,1.7081,1.719,1.7528,1.8205,2.0273,2.2661,2.5241,2.6898,2.9,3.1398,3.2367,3.3421,3.4546,3.4313,3.3757,3.2986,3.1795,3.0408,2.894,2.8462,2.7912,2.7401,2.7137,2.6882,2.6641,2.625,2.6113,2.6335,2.7468,2.8296,2.8853,3.106,3.2403,3.2749,3.2884,3.2796,3.2641,3.292,3.3063,3.303,3.3706,3.3791,3.3295,3.3508,3.3048,3.1903,3.1787,3.1441,3.0704,2.9844,2.9102,2.8523,2.6772,2.5277,2.4146,2.3315,2.2657,2.23,2.2544,2.2818,2.2991,2.361,2.4194,2.465,2.5381,2.5962,2.6493,2.6796,2.722,2.7659,2.8002,2.8379,2.8838,2.9608,3.0314,3.0976,3.173,3.2399,3.2856,3.3275,3.3409,3.3033,3.3317,3.3523,3.3182,3.3105,3.2991,3.2763,3.2534,3.2399,3.2248,3.2248,3.217,3.217,3.2076,3.194,3.194,3.1652,3.1459,3.1459,3.1247,3.1092,3.0995,3.0567,3.0122,2.9658,2.9133,2.8906,3.2244,3.0381,2.8158,2.5932,2.3651,2.1082,1.9261,1.8226,1.8459,1.8451,1.862,2.0487,2.2733,2.502,2.6828,2.8951,3.1222,3.2358,3.3626,3.484,3.4637,3.4146,3.3422,3.2201,3.084,2.946,2.9021,2.8528,2.7921,2.7633,2.7319,2.6765,2.6087,2.5881,2.6198,2.7022,2.7746,2.8521,3.0108,3.1353,3.2148,3.2177,3.2424,3.2871,3.3027,3.3212,3.3492,3.392,3.3955,3.3537,3.3501,3.3033,3.2044,3.1812,3.1386,3.0701,2.9736,2.8732,2.7744,2.6061,2.463,2.384,2.281,2.197,2.1371,2.1378,2.167,2.2228,2.2898,2.3561,2.3929,2.4637,2.5288,2.5578,2.5961,2.6266,2.651,2.6918,2.728,2.7642,2.854,2.9431,2.9962,3.0859,3.173,3.2399,3.3131,3.3329,3.2986,3.3184,3.3267,3.2975,3.2736,3.2477,3.2133,3.1787,3.1614,3.1498,3.1383,3.1325,3.1267,3.1092,3.0976,3.0859,3.0665,3.047,3.0431,3.0314,3.0197,3.0177,2.987,2.9373,2.8899,2.8377,2.8091,3.3801,3.183,2.9714,2.6577,2.323,2.1587,2.025,1.9292,1.945,1.9416,1.9332,2.03,2.2199,2.4423,2.6109,2.8282,3.0793,3.225,3.3497,3.4598,3.4868,3.4328,3.319,3.2254,3.1171,3.0099,2.9362,2.8911,2.8687,2.8336,2.7674,2.6565,2.5829,2.556,2.5594,2.5983,2.6717,2.7803,2.8502,2.9505,3.0835,3.1317,3.172,3.2014,3.2559,3.2999,3.3312,3.3879,3.39,3.331,3.3239,3.2929,3.2369,3.1801,3.1501,3.1408,2.9709,2.7783,2.5688,2.4949,2.4054,2.286,2.1844,2.0999,2.0381,1.9772,1.9939,2.0999,2.2086,2.2503,2.2393,2.3163,2.3914,2.4224,2.461,2.4919,2.5288,2.5839,2.625,2.625,2.7581,2.86,2.8838,2.9882,3.0957,3.1848,3.281,3.3364,3.3289,3.3537,3.3685,3.3366,3.2878,3.214,3.1636,3.115,3.1054,3.0742,3.0352,3.0294,3.0235,3.0157,2.9981,2.9785,2.9608,2.949,2.9372,2.9331,2.949,2.9471,2.9458,2.9504,2.8823,2.8229,2.7983,3.4741,3.3243,3.0888,2.7618,2.4038,2.2529,2.1354,2.0481,2.0307,2.0321,2.0565,2.1423,2.2835,2.4444,2.6214,2.8311,3.0671,3.2204,3.3593,3.478,3.5113,3.4823,3.4038,3.316,3.2163,3.1166,3.0495,2.99,2.9278,2.855,2.7789,2.7081,2.6219,2.5915,2.6083,2.6253,2.672,2.7517,2.7856,2.8671,2.9904,3.0673,3.1423,3.2212,3.2674,3.2976,3.331,3.3667,3.3669,3.326,3.3262,3.2892,3.2136,3.1918,3.1469,3.0704,2.8826,2.6948,2.5234,2.4202,2.3107,2.179,2.0975,2.0155,1.9271,1.8908,1.8848,1.9086,2.011,2.0894,2.1194,2.1769,2.2341,2.2856,2.323,2.3542,2.3852,2.4548,2.4964,2.5272,2.6493,2.7521,2.8097,2.9576,3.0916,3.1643,3.2552,3.317,3.327,3.3413,3.3315,3.3075,3.2535,3.2256,3.2019,3.1621,3.1206,3.0834,3.046,3.0184,2.9683,2.945,2.9272,2.8879,2.8719,2.86,2.8498,2.8498,2.854,2.8605,2.8327,2.8192,2.779,2.7564,2.7552,3.5782,3.4289,3.1466,2.8257,2.5071,2.3589,2.2496,2.1594,2.1221,2.1218,2.1586,2.2481,2.3605,2.4887,2.6605,2.8597,3.0648,3.205,3.342,3.468,3.498,3.477,3.4272,3.3573,3.2742,3.1905,3.1391,3.0767,2.9872,2.881,2.8002,2.7469,2.656,2.6277,2.6564,2.65,2.672,2.7346,2.7561,2.8143,2.9255,2.9923,3.0908,3.2196,3.2556,3.2733,3.2971,3.3198,3.3224,3.297,3.2933,3.267,3.2136,3.1886,3.1015,2.952,2.7908,2.6296,2.4756,2.3449,2.213,2.0901,1.9975,1.9006,1.8293,1.7837,1.7511,1.7304,1.7927,1.8804,1.9889,2.0439,2.1003,2.1528,2.1974,2.2328,2.2511,2.3175,2.3708,2.4007,2.5306,2.6756,2.7791,2.9483,3.0819,3.1238,3.2213,3.3034,3.3135,3.3215,3.3254,3.2848,3.2623,3.2444,3.2348,3.1706,3.1226,3.0812,3.0339,2.9795,2.926,2.8984,2.8618,2.8241,2.8002,2.784,2.784,2.7779,2.79,2.7896,2.7682,2.7452,2.7539,2.7234,2.7416,3.7155,3.5002,3.1132,2.8343,2.6277,2.4702,2.3486,2.2605,2.2166,2.2069,2.2273,2.3152,2.4316,2.5618,2.7252,2.8933,3.0653,3.1812,3.2985,3.4142,3.4199,3.3883,3.3375,3.3023,3.2635,3.2135,3.1825,3.1157,3.0334,2.939,2.8439,2.7564,2.6815,2.6517,2.6591,2.6337,2.6619,2.7347,2.7298,2.7776,2.8762,2.9088,2.9971,3.1437,3.1911,3.2138,3.224,3.255,3.2642,3.243,3.2136,3.2156,3.2455,3.1408,2.9849,2.8056,2.7068,2.5674,2.3775,2.2476,2.1266,1.9917,1.8484,1.7591,1.7057,1.6261,1.5856,1.603,1.5856,1.6536,1.8126,1.901,1.9736,2.029,2.091,2.111,2.1019,2.1896,2.2334,2.27,2.4343,2.6303,2.822,2.9448,3.0211,3.084,3.1865,3.2816,3.3102,3.3503,3.3473,3.3324,3.3097,3.2961,3.1892,3.1361,3.081,3.0359,2.9972,2.9112,2.8724,2.8339,2.7963,2.7702,2.7521,2.7418,2.7297,2.7358,2.7539,2.7597,2.7487,2.7409,2.7387,2.7262,2.7456,3.6484,3.382,3.1325,2.8979,2.6762,2.5745,2.4578,2.3286,2.2894,2.2865,2.3215,2.3882,2.5,2.6308,2.7926,2.9343,3.0567,3.1707,3.2856,3.3974,3.4086,3.4224,3.435,3.3716,3.3268,3.3029,3.2576,3.1854,3.0836,2.9841,2.8992,2.8097,2.7297,2.6893,2.684,2.6574,2.6695,2.7168,2.7075,2.7633,2.8799,2.8777,2.9278,3.047,3.1202,3.1569,3.1652,3.173,3.1814,3.1841,3.1558,3.1478,3.1577,3.0291,2.8881,2.744,2.5819,2.4137,2.2485,2.0759,1.9273,1.8183,1.6881,1.5953,1.54,1.4787,1.4378,1.4276,1.4302,1.4784,1.5562,1.6865,1.7903,1.8519,1.8977,1.9421,1.9868,2.0558,2.1293,2.2138,2.3887,2.5929,2.7554,2.8691,2.9608,3.0607,3.1596,3.2264,3.2574,3.2835,3.2969,3.2804,3.253,3.2263,3.1619,3.1336,3.1009,3.0427,2.9904,2.9092,2.8491,2.8018,2.7669,2.7297,2.7177,2.6995,2.6874,2.6874,2.7116,2.7125,2.7063,2.7204,2.724,2.7262,2.7482,3.6348,3.3733,3.1842,2.9747,2.7607,2.6554,2.5333,2.4085,2.3626,2.3641,2.4163,2.4666,2.5671,2.6961,2.8379,2.9568,3.0606,3.171,3.2877,3.3861,3.403,3.4311,3.4556,3.4237,3.3905,3.3741,3.3331,3.2533,3.1404,3.0468,2.9601,2.8654,2.8037,2.7616,2.7358,2.7056,2.6995,2.7168,2.6977,2.7493,2.8527,2.8414,2.8747,2.967,3.0392,3.0743,3.0859,3.0859,3.0878,3.0988,3.0751,3.0513,3.0149,2.8892,2.7637,2.647,2.4655,2.2875,2.148,1.9599,1.8031,1.6922,1.5803,1.4769,1.4016,1.3522,1.3114,1.2936,1.2998,1.3302,1.3687,1.4815,1.5958,1.6795,1.7381,1.7895,1.8575,1.9294,2.0434,2.1899,2.3483,2.5241,2.6939,2.7963,2.9059,3.0341,3.1117,3.1679,3.2153,3.2366,3.2431,3.2431,3.2208,3.1912,3.1386,3.1019,3.0653,3.0173,2.9833,2.902,2.8323,2.7817,2.7401,2.7029,2.6753,2.6571,2.651,2.6449,2.651,2.6554,2.6772,2.6978,2.7086,2.727,2.7647,3.6888,3.5013,3.2737,3.0626,2.8742,2.7021,2.5778,2.4964,2.4394,2.4456,2.4919,2.5394,2.6277,2.7521,2.8618,2.9686,3.0898,3.192,3.2799,3.3636,3.3974,3.4164,3.4285,3.4574,3.4604,3.4322,3.3844,3.3032,3.1999,3.1265,3.026,2.9227,2.8916,2.8498,2.796,2.7642,2.7461,2.7452,2.7173,2.7368,2.7931,2.8038,2.8473,2.9335,2.9568,2.9686,2.9863,2.9922,2.9993,3.005,2.9762,2.9145,2.8307,2.7214,2.6114,2.4973,2.357,2.2065,2.0617,1.8997,1.7388,1.6084,1.4991,1.3831,1.2828,1.2408,1.1987,1.1695,1.1944,1.223,1.2496,1.3245,1.4203,1.5435,1.624,1.6867,1.7493,1.8157,1.9494,2.1797,2.3132,2.4381,2.6136,2.7506,2.8557,2.9646,3.0472,3.1152,3.172,3.212,3.2466,3.2459,3.2155,3.172,3.1181,3.0609,3.0188,2.9735,2.9451,2.8974,2.8351,2.7785,2.7251,2.6888,2.6466,2.6266,2.6022,2.5961,2.6205,2.6311,2.6503,2.6712,2.6936,2.7232,2.7914,3.769,3.5749,3.3564,3.1476,2.953,2.8062,2.6675,2.5456,2.5226,2.5103,2.5226,2.5961,2.6874,2.796,2.9094,3.0274,3.1536,3.2628,3.331,3.3692,3.4142,3.4597,3.4858,3.5032,3.5042,3.4829,3.4253,3.3513,3.2734,3.176,3.0755,2.9761,2.9231,2.8815,2.8397,2.802,2.784,2.7822,2.7716,2.7913,2.8319,2.8331,2.8569,2.9076,2.8934,2.8874,2.8934,2.9172,2.9237,2.9058,2.8526,2.7764,2.6776,2.5569,2.4481,2.3493,2.1726,2.0117,1.8729,1.7067,1.5593,1.4315,1.3174,1.2173,1.1384,1.1175,1.0887,1.0612,1.0825,1.1205,1.1617,1.2153,1.3067,1.427,1.5065,1.5831,1.6678,1.8328,2.0142,2.1488,2.2837,2.4289,2.5775,2.6908,2.7974,2.9154,2.9833,3.0412,3.1092,3.1399,3.1598,3.1765,3.1537,3.1532,3.1039,3.0561,3.0118,2.9713,2.9353,2.9072,2.842,2.786,2.7328,2.665,2.6227,2.59,2.5594,2.5594,2.5839,2.6022,2.625,2.6537,2.6796,2.7315,2.7892,3.8271,3.6348,3.4314,3.2166,3.0177,2.8778,2.7401,2.6189,2.59,2.5778,2.6022,2.6631,2.7521,2.86,2.9726,3.0898,3.217,3.3289,3.3961,3.4415,3.4909,3.531,3.5619,3.5857,3.5845,3.561,3.4945,3.4015,3.3032,3.2118,3.1111,3.0174,2.9568,2.9153,2.8874,2.8576,2.8379,2.8379,2.8259,2.8379,2.8576,2.8576,2.8576,2.8755,2.8636,2.8397,2.8199,2.8259,2.8186,2.7913,2.7153,2.6346,2.558,2.4267,2.3116,2.2058,2.0533,1.8889,1.7506,1.6042,1.4457,1.3246,1.218,1.1247,1.0527,1.0311,1.0167,1.0041,1.0359,1.0829,1.1334,1.183,1.2531,1.3424,1.4125,1.5041,1.6131,1.8175,1.9765,2.0886,2.2275,2.3799,2.5003,2.6261,2.729,2.8424,2.9163,2.9818,3.0373,3.0805,3.1064,3.1356,3.1337,3.1197,3.097,3.0507,3.0062,2.9671,2.9347,2.9004,2.8563,2.8056,2.7563,2.6513,2.5896,2.5565,2.5288,2.5349,2.5488,2.5733,2.6011,2.6305,2.6661,2.7234,2.7809,3.8662,3.6911,3.4891,3.2815,3.082,2.9294,2.808,2.7177,2.6631,2.6631,2.7133,2.7599,2.8343,2.9471,3.0529,3.1632,3.2778,3.3706,3.4731,3.5589,3.614,3.6421,3.651,3.6814,3.678,3.6475,3.5512,3.4313,3.3062,3.2273,3.1505,3.0547,3.0098,2.9745,2.945,2.9153,2.9035,2.8975,2.8797,2.8778,2.9053,2.8755,2.8576,2.8517,2.8397,2.808,2.7599,2.7177,2.7012,2.6847,2.5827,2.4984,2.4401,2.3177,2.1967,2.1002,1.9725,1.8276,1.6916,1.5527,1.4148,1.2817,1.1893,1.1025,1.0023,0.9879,0.9951,0.9891,1.0383,1.0952,1.1444,1.1976,1.2567,1.3125,1.3945,1.4836,1.6037,1.7669,1.9105,2.0252,2.1571,2.3034,2.43,2.5611,2.6746,2.7696,2.8685,2.9369,3.0046,3.0529,3.101,3.1158,3.1164,3.1012,3.084,3.058,3.0068,2.9776,2.9353,2.8864,2.8459,2.8017,2.7383,2.6352,2.5794,2.5386,2.5119,2.5181,2.5306,2.5633,2.5928,2.6163,2.6649,2.7154,2.782,3.908,3.7233,3.5443,3.3572,3.1767,3.0197,2.8975,2.8182,2.7942,2.7762,2.802,2.8856,2.9667,3.047,3.1401,3.2493,3.3614,3.4401,3.5502,3.6701,3.7448,3.7816,3.7724,3.7381,3.7008,3.6507,3.5275,3.418,3.3522,3.2362,3.158,3.1054,3.0509,3.0098,2.9804,2.9686,2.9686,2.9686,2.9568,2.945,2.9331,2.9272,2.8975,2.8457,2.802,2.7599,2.7116,2.6144,2.5656,2.5594,2.4857,2.4069,2.3488,2.2244,2.1107,2.0173,1.8714,1.7318,1.6136,1.4789,1.3397,1.2094,1.1319,1.0311,0.9163,0.959,0.9663,0.9702,1.0222,1.1046,1.1495,1.2139,1.2909,1.3953,1.4642,1.5345,1.6246,1.7859,1.9286,1.9971,2.1515,2.293,2.4197,2.5398,2.6485,2.7495,2.8281,2.9097,2.9739,3.0066,3.046,3.0938,3.1006,3.0828,3.07,3.0498,3.0206,2.9814,2.934,2.8704,2.8156,2.7551,2.6758,2.588,2.5832,2.5516,2.5278,2.5197,2.537,2.5672,2.5891,2.6238,2.6654,2.7151,2.7887,3.9262,3.7364,3.5795,3.3966,3.217,3.084,2.9726,2.8957,2.8719,2.8778,2.8975,2.9686,3.0606,3.1459,3.2379,3.3473,3.4718,3.5525,3.6486,3.7445,3.7881,3.8216,3.8194,3.7556,3.675,3.6042,3.4862,3.3922,3.3078,3.2177,3.1634,3.1112,3.0626,3.0392,3.0333,3.0157,3.0216,3.0274,3.0216,2.9981,2.9686,2.9568,2.9035,2.8379,2.7779,2.722,2.6266,2.5226,2.4795,2.4795,2.4239,2.3417,2.2856,2.1614,2.0489,1.9625,1.8091,1.6804,1.5659,1.4336,1.3138,1.1994,1.1175,1.0455,0.9879,1.0023,1.0023,1.0408,1.086,1.1363,1.2033,1.2789,1.3637,1.4523,1.5418,1.6052,1.6221,1.7712,1.8983,1.9961,2.1337,2.2814,2.3807,2.4953,2.6088,2.6999,2.7771,2.8627,2.9508,2.968,2.9892,3.0462,3.0733,3.0617,3.043,3.0151,2.9833,2.9581,2.8976,2.8344,2.7949,2.7295,2.681,2.6216,2.6009,2.5786,2.5564,2.5469,2.5722,2.5945,2.6087,2.6358,2.6808,2.7342,2.8022,3.926,3.7364,3.5959,3.419,3.2342,3.1285,3.0353,2.9608,2.9372,2.9546,3.0076,3.0527,3.1561,3.2486,3.3455,3.4566,3.5811,3.6488,3.7369,3.7893,3.8067,3.8103,3.8066,3.7071,3.6197,3.5386,3.4583,3.3461,3.2601,3.1981,3.1518,3.1054,3.0626,3.0626,3.0743,3.0626,3.0684,3.0801,3.0684,3.0392,3.0039,2.9745,2.9153,2.8259,2.7358,2.6493,2.5349,2.4425,2.4239,2.4857,2.3743,2.3043,2.248,2.1299,2.017,1.9209,1.81,1.6876,1.5681,1.451,1.342,1.2501,1.1685,1.1109,1.1031,1.0887,1.0959,1.139,1.1663,1.2359,1.3086,1.3992,1.4761,1.5435,1.6173,1.6492,1.673,1.7643,1.8765,1.9558,2.1212,2.2346,2.3312,2.4341,2.5611,2.6598,2.7415,2.8347,2.9079,2.9407,2.9727,3.0185,3.03,3.0379,3.0097,2.9847,2.9484,2.9104,2.8426,2.7866,2.7701,2.7277,2.7018,2.6695,2.6375,2.6136,2.6057,2.6073,2.6184,2.6359,2.6519,2.6793,2.7116,2.7736,2.836,3.9371,3.7096,3.5904,3.4469,3.2913,3.171,3.0956,3.0548,3.049,3.0702,3.1329,3.2212,3.3197,3.4094,3.4651,3.5656,3.6471,3.6916,3.7451,3.8355,3.8401,3.7927,3.7336,3.6134,3.5501,3.4883,3.3684,3.2903,3.242,3.173,3.1344,3.119,3.0898,3.084,3.0898,3.0995,3.1092,3.1208,3.115,3.0918,3.049,3.0039,2.9331,2.8241,2.6874,2.5656,2.4734,2.3805,2.3432,2.3417,2.323,2.2731,2.2104,2.1172,2.0157,1.9197,1.8285,1.7198,1.6001,1.5045,1.4193,1.3508,1.261,1.1965,1.1965,1.1886,1.1893,1.223,1.2897,1.3783,1.4713,1.5264,1.5906,1.6569,1.7249,1.7848,1.8231,1.872,1.9298,1.9964,2.0976,2.2167,2.3098,2.4017,2.51,2.6146,2.7098,2.7968,2.8644,2.9154,2.9634,3.0103,3.0121,3.0203,2.9919,2.9558,2.9106,2.8679,2.804,2.7584,2.7419,2.732,2.7094,2.6869,2.6694,2.6501,2.647,2.6423,2.6422,2.6692,2.6978,2.7203,2.7563,2.8127,2.8411,3.93,3.7371,3.5776,3.4413,3.314,3.2018,3.1441,3.1306,3.1211,3.1564,3.2195,3.2987,3.3844,3.4741,3.5098,3.578,3.6858,3.718,3.7578,3.8001,3.7565,3.6707,3.6086,3.4938,3.418,3.4028,3.3161,3.2415,3.177,3.1306,3.1035,3.1309,3.0937,3.1016,3.127,3.123,3.1286,3.1383,3.1228,3.0995,3.0606,3.0157,2.9094,2.7762,2.6083,2.4795,2.4115,2.3293,2.2856,2.2668,2.2495,2.2244,2.1803,2.0919,2.003,1.9365,1.8404,1.7531,1.6543,1.5734,1.5043,1.4449,1.3674,1.3396,1.3253,1.3246,1.3389,1.3602,1.4286,1.5093,1.6066,1.6487,1.7057,1.7796,1.8125,1.8544,1.9358,1.9696,1.9796,2.0179,2.0906,2.1716,2.2662,2.3593,2.4588,2.5635,2.6845,2.7805,2.8798,2.9333,2.9686,3.0044,3.0124,3.0009,2.9777,2.9318,2.8611,2.8225,2.774,2.7464,2.7318,2.7235,2.7137,2.6994,2.6883,2.7057,2.7026,2.6899,2.6946,2.7391,2.7693,2.7804,2.8008,2.8419,2.8574,3.9248,3.7715,3.5756,3.4357,3.3275,3.2305,3.1845,3.1732,3.1545,3.184,3.2668,3.2973,3.3649,3.456,3.4752,3.5656,3.6692,3.7318,3.7577,3.7613,3.6416,3.5635,3.4916,3.3943,3.3015,3.2673,3.2394,3.1821,3.1132,3.0662,3.0813,3.1146,3.0855,3.0974,3.1505,3.1427,3.1327,3.1518,3.1228,3.0879,3.0509,3.0039,2.8856,2.6978,2.5517,2.4363,2.3604,2.2918,2.2383,2.2048,2.1683,2.152,2.1293,2.0744,1.9978,1.9606,1.8738,1.8083,1.7323,1.6629,1.5999,1.5381,1.4955,1.4822,1.4822,1.475,1.4813,1.5292,1.5813,1.6508,1.7189,1.7798,1.8488,1.907,1.9054,1.9486,2.0366,2.0658,2.0458,2.0248,2.0998,2.1817,2.2443,2.3219,2.4128,2.5218,2.6425,2.7544,2.8613,2.9419,2.9793,2.9942,2.9923,2.9831,2.9585,2.9305,2.8601,2.8132,2.7633,2.7375,2.7264,2.7185,2.7185,2.7216,2.7216,2.7375,2.7534,2.7518,2.7725,2.8186,2.8297,2.8265,2.8445,2.8676,2.8802,3.9449,3.7739,3.6077,3.4791,3.384,3.2628,3.1998,3.173,3.1444,3.1662,3.2156,3.2729,3.325,3.385,3.4446,3.529,3.6096,3.654,3.6738,3.6542,3.5596,3.4903,3.4141,3.3211,3.2354,3.1818,3.1574,3.1325,3.0948,3.078,3.0522,3.0757,3.0846,3.1073,3.1283,3.1465,3.1466,3.1306,3.1092,3.0918,3.0509,2.9608,2.8421,2.6449,2.5197,2.4161,2.326,2.2572,2.1977,2.1636,2.1277,2.1085,2.098,2.0629,2.0163,1.9691,1.9409,1.8789,1.8129,1.7722,1.7368,1.6875,1.6381,1.6098,1.6169,1.6178,1.633,1.6739,1.7579,1.8443,1.9187,1.9724,2.0331,2.0835,2.1078,2.129,2.1834,2.1713,2.1279,2.0912,2.1447,2.1894,2.2494,2.3176,2.4206,2.5348,2.6534,2.7395,2.8189,2.9049,2.9671,2.9805,2.9731,2.9571,2.9377,2.9099,2.8637,2.8334,2.7884,2.755,2.7407,2.7248,2.7216,2.7328,2.7471,2.7629,2.7736,2.7942,2.8281,2.8583,2.8646,2.8662,2.8932,2.9151,2.9133,3.9362,3.8114,3.6246,3.4769,3.3762,3.2685,3.1825,3.1286,3.1035,3.1131,3.1523,3.1918,3.2614,3.3276,3.3476,3.408,3.4816,3.519,3.5253,3.4963,3.4258,3.3631,3.3082,3.2256,3.1396,3.0747,3.061,3.0453,3.0062,2.9653,2.9922,3.0325,3.0525,3.0691,3.0869,3.1063,3.1111,3.084,3.0684,3.045,3.002,2.8778,2.7237,2.6239,2.4968,2.3858,2.2941,2.2268,2.1746,2.128,2.1058,2.0872,2.0696,2.0626,2.0485,2.0062,1.9792,1.9529,1.9015,1.8838,1.8552,1.8212,1.7801,1.765,1.764,1.7661,1.7965,1.8778,1.9205,2.0134,2.0916,2.1517,2.2011,2.2445,2.2505,2.2693,2.2983,2.2705,2.2207,2.1762,2.19,2.2233,2.2561,2.3312,2.4349,2.5466,2.6615,2.7429,2.809,2.8909,2.9808,2.9973,3.0005,2.965,2.9441,2.9075,2.8773,2.8471,2.8217,2.7884,2.7677,2.7582,2.7518,2.755,2.7709,2.7784,2.8217,2.8471,2.8726,2.8932,2.8964,2.9051,2.9318,2.9542,2.958,3.938,3.8712,3.6617,3.5024,3.3818,3.2664,3.1516,3.0606,3.0184,2.9998,3.0212,3.0429,3.1134,3.1934,3.2199,3.2522,3.3164,3.3328,3.3442,3.3335,3.2511,3.1873,3.1488,3.0861,3.0178,2.9752,2.9392,2.9232,2.9235,2.8939,2.9252,2.9658,2.9924,3.0153,3.0377,3.0607,3.0414,3.0232,2.9981,2.9627,2.881,2.7522,2.6371,2.5928,2.47,2.3499,2.2613,2.2051,2.149,2.1117,2.0889,2.0781,2.0533,2.065,2.065,2.0447,2.0107,1.9918,1.9794,1.983,1.9541,1.9052,1.9122,1.8982,1.8865,1.9071,1.9804,2.0839,2.139,2.1728,2.2447,2.298,2.3453,2.3779,2.364,2.3489,2.3792,2.368,2.3129,2.2748,2.2508,2.2662,2.315,2.3903,2.4906,2.5727,2.6881,2.7756,2.8481,2.9353,3.0038,3.0311,3.0297,2.9907,2.9536,2.9171,2.89,2.8678,2.8471,2.8233,2.809,2.7979,2.7931,2.7852,2.7868,2.8043,2.8487,2.8853,2.8996,2.9139,2.925,2.9393,2.9583,2.9824,2.9946,3.9714,3.934,3.7673,3.6059,3.4547,3.2851,3.1129,2.9512,2.8612,2.7977,2.7557,2.8097,2.8527,2.9048,3.0103,3.0806,3.1325,3.1585,3.1744,3.1809,3.1019,3.0567,3.0372,2.9478,2.9168,2.8839,2.8296,2.8345,2.8538,2.8587,2.8736,2.908,2.9496,2.9782,2.9689,3.0137,3.0377,2.9955,2.9587,2.9039,2.814,2.7103,2.6335,2.5453,2.4372,2.3233,2.2462,2.1846,2.1286,2.0871,2.0829,2.0749,2.0658,2.0662,2.0686,2.065,2.0605,2.0421,2.019,2.0352,2.0318,1.9889,1.9889,1.975,1.9889,2.0321,2.1029,2.1748,2.2645,2.3276,2.3719,2.4462,2.4857,2.5005,2.4918,2.4656,2.4649,2.4267,2.3796,2.3828,2.3555,2.3689,2.4055,2.4739,2.5544,2.6264,2.7042,2.7969,2.8856,2.9819,3.0192,3.0382,3.0387,2.9971,2.9584,2.9218,2.9059,2.8869,2.8757,2.8583,2.8424,2.8313,2.8265,2.8201,2.8201,2.8313,2.871,2.9012,2.9202,2.9338,2.9354,2.9585,2.9855,3.008,3.0319,4.0507,3.9953,3.8905,3.7107,3.4703,3.2612,3.0316,2.8086,2.6583,2.5681,2.5467,2.5943,2.6516,2.7239,2.8334,2.8926,2.9302,2.9635,2.9935,3.0095,2.9639,2.9461,2.9347,2.8839,2.8444,2.8081,2.7716,2.7451,2.7783,2.8048,2.8163,2.8296,2.8854,2.9017,2.8937,2.9315,2.9346,2.9118,2.8796,2.8253,2.7503,2.6736,2.585,2.4994,2.3985,2.3015,2.2205,2.161,2.117,2.0759,2.0565,2.0533,2.056,2.0527,2.0457,2.0665,2.0665,2.0653,2.0723,2.0943,2.0873,2.0943,2.0955,2.1073,2.1126,2.1426,2.2053,2.2887,2.351,2.4097,2.4777,2.5653,2.6019,2.621,2.5965,2.5808,2.543,2.4761,2.4349,2.4502,2.4578,2.4707,2.4918,2.5368,2.6053,2.6763,2.7551,2.84,2.9404,3.0438,3.0526,3.0308,3.0209,3.0076,2.9631,2.925,2.9234,2.9107,2.9107,2.8932,2.8726,2.8614,2.8599,2.8662,2.8742,2.8869,2.9043,2.9028,2.9091,2.9258,2.9513,2.9728,3.0085,3.0496,3.0788,4.1903,4.1864,4.1273,3.806,3.3154,3.186,2.8351,2.373,2.3019,2.263,2.2871,2.353,2.4633,2.5657,2.6366,2.6757,2.6988,2.7603,2.79,2.7949,2.8015,2.7998,2.7851,2.772,2.7637,2.7322,2.7368,2.7185,2.7134,2.7318,2.7584,2.7501,2.818,2.8374,2.8294,2.8438,2.8591,2.8385,2.8043,2.7584,2.6953,2.6199,2.5421,2.4561,2.3595,2.2755,2.1978,2.1239,2.0889,2.0801,2.0391,2.0321,2.0403,2.0391,2.0332,2.0505,2.0596,2.0943,2.1151,2.1358,2.1496,2.1716,2.1931,2.1906,2.2211,2.248,2.2924,2.3766,2.4348,2.4934,2.551,2.6473,2.691,2.6939,2.6792,2.666,2.6357,2.5524,2.4929,2.5021,2.5179,2.5513,2.5759,2.6067,2.6578,2.7358,2.8096,2.8872,2.9715,3.0716,3.0615,3.0304,3.005,2.9876,2.9584,2.9298,2.9298,2.9298,2.9298,2.9234,2.8996,2.898,2.9012,2.9107,2.9202,2.9298,2.9361,2.9155,2.8964,2.9226,2.9585,2.9942,3.0299,3.0797,3.1034,4.415,4.5934,4.4702,3.7953,2.8823,3.0655,2.4827,1.6241,1.7532,1.8572,1.9421,2.0655,2.2215,2.3364,2.3933,2.4328,2.468,2.5167,2.5525,2.5782,2.5887,2.6131,2.6371,2.6676,2.6803,2.6588,2.6858,2.7134,2.7134,2.7067,2.7051,2.6934,2.7648,2.7915,2.808,2.8154,2.795,2.7697,2.7463,2.7051,2.6435,2.5692,2.4952,2.4299,2.3243,2.2332,2.2103,2.1227,2.0746,2.0852,2.0422,2.0138,2.0213,2.0332,2.0392,2.0367,2.0599,2.1061,2.144,2.1622,2.176,2.1836,2.2102,2.2421,2.2832,2.3288,2.3839,2.4512,2.498,2.5629,2.6225,2.6983,2.7478,2.746,2.7281,2.7,2.6626,2.597,2.5539,2.548,2.5618,2.575,2.615,2.6425,2.6725,2.7445,2.826,2.8975,2.9669,3.0499,3.0429,3.0229,2.9971,2.9686,2.9369,2.9298,2.9298,2.9298,2.9298,2.9298,2.9218,2.9266,2.9361,2.9393,2.9457,2.9568,2.9663,2.9536,2.9425,2.9457,2.9656,3.0157,3.0655,3.1081,3.1107,3.1508,3.5532,2.8301,2.6409,2.7847,2.0104,1.4881,1.2375,1.3374,1.5412,1.7458,1.8611,1.9599,2.0456,2.1318,2.1703,2.1897,2.2869,2.3408,2.3977,2.4473,2.5071,2.5535,2.6017,2.6546,2.628,2.662,2.6733,2.6548,2.68,2.6867,2.6898,2.7391,2.7662,2.7899,2.79,2.7555,2.7182,2.6986,2.6751,2.5701,2.5472,2.4804,2.3722,2.341,2.2589,2.2065,2.1222,2.0935,2.0717,2.0329,2.0116,2.012,2.0301,2.0377,2.038,2.0684,2.1229,2.166,2.1841,2.1966,2.25,2.271,2.2972,2.3355,2.3779,2.413,2.4715,2.535,2.5932,2.6093,2.7114,2.7897,2.7837,2.7583,2.7255,2.6795,2.6212,2.5841,2.5712,2.5666,2.5674,2.6147,2.6669,2.7015,2.7528,2.8297,2.9112,2.9684,3.0023,2.9971,2.9778,2.9508,2.9372,2.9073,2.9154,2.9298,2.9329,2.9345,2.9393,2.9457,2.9584,2.9663,2.9679,2.979,2.9997,3.0076,2.9997,2.9854,2.9704,2.9945,3.0442,3.0939,3.1364,3.1284,2.1379,2.4144,1.2756,1.2538,1.8739,1.1596,0.7495,0.706,0.8992,1.2086,1.5466,1.6238,1.7046,1.7855,1.8687,1.9376,1.9783,2.08,2.1516,2.2361,2.321,2.4064,2.4723,2.5402,2.5952,2.5941,2.6249,2.6398,2.6398,2.6599,2.6811,2.7154,2.7566,2.7788,2.7675,2.7519,2.726,2.6864,2.6604,2.6402,2.5295,2.5201,2.4804,2.3574,2.3169,2.2696,2.204,2.1365,2.0915,2.0681,2.0348,1.9914,2.0078,2.0229,2.0416,2.0542,2.0875,2.1319,2.1729,2.2143,2.2362,2.2908,2.3244,2.3537,2.3875,2.4155,2.4449,2.479,2.5433,2.5887,2.596,2.7114,2.7768,2.7722,2.7538,2.7154,2.6937,2.6467,2.6154,2.5869,2.6027,2.6369,2.6686,2.7211,2.7575,2.7944,2.8453,2.9041,2.9333,2.9534,2.9365,2.9192,2.8927,2.8826,2.8753,2.8882,2.9129,2.9552,2.9584,2.9647,2.9727,2.987,3.0076,3.0219,3.0362,3.0505,3.0537,3.0505,3.0219,2.987,3.0195,3.0617,3.1152,3.1472,3.1284,1.6332,1.4838,0.2333,-0.1263,0.2684,0.707,0.4906,0.0641,0.4536,0.8831,1.2529,1.3566,1.4579,1.567,1.6546,1.7193,1.7914,1.911,2.0044,2.0601,2.1886,2.2638,2.3488,2.4378,2.5323,2.53,2.5747,2.6264,2.6599,2.6666,2.6957,2.7451,2.7717,2.7932,2.7693,2.7353,2.7045,2.6677,2.633,2.5972,2.5524,2.5198,2.4551,2.3812,2.3275,2.2866,2.2324,2.1481,2.1036,2.0866,2.0303,1.9852,1.9732,2.0376,2.0546,2.0462,2.0888,2.1466,2.2096,2.2549,2.2865,2.319,2.3417,2.3736,2.4142,2.4422,2.4697,2.5012,2.5589,2.6017,2.6501,2.7071,2.7537,2.7695,2.7455,2.7229,2.6941,2.6653,2.6283,2.6126,2.6837,2.7452,2.7596,2.783,2.8122,2.845,2.8786,2.8969,2.906,2.8867,2.8762,2.8624,2.838,2.8473,2.8449,2.8681,2.8992,2.9445,2.9838,2.9901,3.0044,3.0219,3.0442,3.0712,3.0823,3.0886,3.0966,3.1045,3.0707,3.0467,3.0388,3.0667,3.1257,3.1508,3.1354,0.2847,0.4555,-0.9032,-1.2787,-0.9439,-0.653,-0.4771,-0.2233,0.3184,0.7715,1.0119,1.1579,1.2619,1.3607,1.4651,1.54,1.5808,1.6959,1.7903,1.8799,2.0483,2.1577,2.2552,2.3736,2.466,2.4905,2.536,2.5928,2.6264,2.6532,2.6898,2.7359,2.7637,2.7586,2.7593,2.7317,2.6867,2.6474,2.6289,2.615,2.5536,2.5215,2.4825,2.4107,2.3687,2.3245,2.283,2.1781,2.1331,2.1048,2.0383,1.994,1.9939,2.0527,2.0797,2.075,2.1148,2.1727,2.2107,2.2428,2.2915,2.3205,2.3421,2.3713,2.4109,2.4402,2.4764,2.5175,2.5648,2.6103,2.6659,2.7378,2.7777,2.7834,2.7683,2.7368,2.7075,2.6715,2.64,2.6385,2.6808,2.7437,2.7803,2.8081,2.8373,2.8461,2.8615,2.8633,2.8618,2.819,2.791,2.7925,2.7864,2.8034,2.8217,2.8557,2.9075,2.966,3.0013,3.0172,3.033,3.0632,3.0775,3.1014,3.1125,3.1236,3.122,3.1217,3.1264,3.1144,3.0982,3.1009,3.1466,3.1559,3.1405,-0.6586,-0.5615,-1.4388,-1.6467,-1.3444,-1.208,-0.8141,-0.2028,0.3556,0.7001,0.8713,1.0106,1.1154,1.2022,1.2948,1.3976,1.4259,1.563,1.6821,1.7737,1.9642,2.0829,2.1965,2.3079,2.3828,2.4292,2.4984,2.5592,2.5928,2.6465,2.7028,2.7474,2.7458,2.7645,2.7652,2.7426,2.6969,2.6694,2.6619,2.6405,2.5926,2.5597,2.5419,2.4879,2.4329,2.387,2.3215,2.2483,2.166,2.121,2.0684,2.0221,2.0458,2.0737,2.0968,2.1077,2.1432,2.1886,2.21,2.2001,2.2426,2.3073,2.3249,2.3543,2.3964,2.428,2.4552,2.5024,2.5609,2.6061,2.6488,2.7283,2.7538,2.7539,2.757,2.7261,2.7363,2.7027,2.694,2.6954,2.7013,2.7538,2.7917,2.8212,2.8505,2.852,2.8505,2.8432,2.8344,2.7978,2.7627,2.7673,2.7689,2.7937,2.8258,2.8627,2.9205,2.9892,3.0251,3.0553,3.0934,3.1268,3.13,3.1315,3.149,3.1554,3.1363,3.1357,3.1409,3.1501,3.1548,3.1582,3.1725,3.1679,3.1576,-1.0876,-1.3571,-1.406,-1.2686,-1.0407,-0.933,-0.5072,0.1238,0.408,0.6296,0.8002,0.8931,1.0,1.1067,1.1524,1.2444,1.3733,1.5039,1.6125,1.7431,1.8885,2.0073,2.1158,2.2297,2.3133,2.3747,2.4428,2.5187,2.5659,2.6356,2.7185,2.7797,2.7605,2.7742,2.7783,2.7608,2.7162,2.6974,2.7034,2.6772,2.6358,2.6257,2.6139,2.567,2.5198,2.4562,2.3809,2.2992,2.2259,2.166,2.0973,2.091,2.091,2.1135,2.1135,2.1291,2.1636,2.1727,2.1873,2.168,2.1885,2.2566,2.3079,2.3356,2.3648,2.4042,2.4373,2.472,2.5259,2.5657,2.6107,2.6537,2.6965,2.7074,2.7273,2.7337,2.7653,2.7638,2.7698,2.7728,2.7784,2.8089,2.8187,2.839,2.8322,2.838,2.8337,2.8311,2.8238,2.818,2.7949,2.7803,2.782,2.797,2.834,2.8801,2.9582,3.034,3.0807,3.1125,3.1538,3.1824,3.184,3.1856,3.1935,3.1872,3.1633,3.1597,3.1666,3.1745,3.1968,3.2016,3.2151,3.2039,3.1885,-0.8698,-0.9784,-1.0209,-0.9269,-0.7187,-0.3807,-0.0515,0.2287,0.4719,0.6516,0.767,0.875,0.9758,1.0562,1.1188,1.1952,1.2871,1.3861,1.4797,1.6173,1.7809,1.896,2.0156,2.1415,2.2448,2.3338,2.402,2.4795,2.5614,2.6313,2.6854,2.7269,2.7454,2.7687,2.7827,2.7733,2.7427,2.7251,2.7395,2.7254,2.7025,2.6954,2.6779,2.6473,2.6135,2.5474,2.4562,2.387,2.3129,2.2172,2.1574,2.136,2.1071,2.1372,2.1585,2.1885,2.1727,2.1433,2.1597,2.1425,2.1375,2.1719,2.2052,2.2881,2.3367,2.3782,2.4049,2.4419,2.4817,2.5205,2.5687,2.6077,2.6516,2.689,2.7038,2.7296,2.7588,2.7773,2.7835,2.7926,2.8085,2.7879,2.8003,2.8028,2.799,2.8091,2.826,2.8264,2.8282,2.8253,2.8209,2.8139,2.8039,2.8132,2.8747,2.9288,3.0049,3.0817,3.1255,3.1649,3.2015,3.2253,3.2316,3.2332,3.2316,3.2126,3.1856,3.1836,3.177,3.2162,3.239,3.2425,3.2481,3.2373,3.2244,-0.6902,-0.6978,-0.7042,-0.5732,-0.2985,0.0516,0.2899,0.4255,0.568,0.6841,0.7902,0.8962,0.9696,1.0209,1.0805,1.1375,1.2022,1.2873,1.3808,1.5221,1.6513,1.7921,1.9251,2.0584,2.176,2.2722,2.3639,2.4513,2.5408,2.6306,2.6985,2.736,2.7321,2.7605,2.7946,2.7896,2.7772,2.7632,2.7665,2.7695,2.761,2.7612,2.7612,2.7421,2.7159,2.6455,2.546,2.4918,2.4105,2.3067,2.2545,2.2172,2.181,2.1897,2.1747,2.1885,2.1499,2.1262,2.1314,2.1089,2.0973,2.1019,2.1087,2.165,2.2388,2.285,2.33,2.3766,2.4207,2.4761,2.5248,2.579,2.6255,2.6731,2.6908,2.7079,2.7396,2.7725,2.7851,2.7976,2.7802,2.7565,2.7551,2.7577,2.7745,2.8129,2.84,2.8603,2.8622,2.8593,2.8578,2.8505,2.8391,2.8382,2.9033,2.9701,3.0421,3.1196,3.1698,3.2094,3.2475,3.2634,3.2666,3.265,3.2634,3.2412,3.2189,3.1951,3.1932,3.2406,3.2763,3.281,3.2865,3.2924,3.2724,-0.5235,-0.4796,-0.4361,-0.1964,0.1532,0.3617,0.5376,0.6875,0.7097,0.7632,0.867,0.9324,0.9922,1.0286,1.0534,1.0895,1.1409,1.2052,1.297,1.4441,1.5806,1.7077,1.8412,1.982,2.1069,2.2035,2.3036,2.4078,2.512,2.6051,2.6884,2.7484,2.7458,2.7666,2.7935,2.7943,2.7903,2.8112,2.8112,2.817,2.8112,2.8261,2.863,2.8374,2.8084,2.7674,2.6763,2.5988,2.5373,2.4475,2.3722,2.3351,2.2707,2.2109,2.181,2.151,2.121,2.106,2.091,2.0684,2.0642,2.0569,2.0473,2.0693,2.1234,2.2035,2.2557,2.3043,2.3567,2.4013,2.4434,2.5007,2.5613,2.6154,2.6506,2.6946,2.7541,2.7866,2.8139,2.8189,2.7968,2.7708,2.7695,2.7796,2.8189,2.8389,2.8718,2.8954,2.9003,2.8973,2.8856,2.8827,2.8791,2.8904,2.9592,3.0284,3.0763,3.1465,3.2079,3.2523,3.2888,3.2984,3.3,3.3,3.2984,3.2777,3.2555,3.2348,3.2346,3.2679,3.2962,3.3085,3.323,3.3351,3.3152,-0.2768,-0.2039,-0.0509,0.1827,0.4278,0.5474,0.7087,0.89,0.921,0.9408,0.9607,1.0197,1.0521,1.0401,1.0347,1.0534,1.0735,1.1295,1.2143,1.3397,1.4726,1.6352,1.764,1.9111,2.0445,2.1691,2.2762,2.3736,2.4706,2.5624,2.6255,2.6443,2.6733,2.7258,2.7638,2.7656,2.7821,2.8266,2.8535,2.8714,2.879,2.8864,2.9043,2.9205,2.9208,2.8773,2.797,2.7261,2.6438,2.5488,2.471,2.3896,2.293,2.2184,2.1735,2.1585,2.1071,2.0868,2.0578,2.0384,2.0298,2.0091,1.9934,1.9855,2.0258,2.1153,2.1839,2.2268,2.2794,2.3223,2.3774,2.4353,2.4921,2.5545,2.6152,2.6848,2.7541,2.8039,2.8466,2.8305,2.8064,2.7983,2.797,2.8225,2.8589,2.9005,2.9406,2.9632,2.9653,2.958,2.9286,2.9277,2.9334,2.9571,3.0189,3.0808,3.1418,3.1936,3.265,3.2984,3.3286,3.327,3.3238,3.3333,3.3317,3.3095,3.2936,3.2825,3.2873,3.3133,3.3227,3.3292,3.3534,3.3658,3.3477,-0.0874,0.0291,0.2403,0.4309,0.6026,0.7166,0.8474,0.9802,1.061,1.0826,1.0492,1.0679,1.062,1.0347,1.0138,1.0,1.0046,1.0518,1.1482,1.2529,1.3928,1.5573,1.7027,1.8482,1.9889,2.122,2.2549,2.3651,2.4484,2.5243,2.5769,2.5826,2.6286,2.6692,2.7027,2.7217,2.7643,2.8298,2.8687,2.9033,2.9412,2.976,2.98,3.0053,3.0037,2.9645,2.9133,2.8401,2.7614,2.6407,2.5308,2.4354,2.3451,2.2707,2.2109,2.1695,2.1227,2.0765,2.0483,2.0244,2.0111,2.0008,1.9631,1.973,1.9753,2.0506,2.0931,2.1413,2.1983,2.2419,2.3179,2.3764,2.4626,2.5227,2.5891,2.6592,2.754,2.8311,2.8702,2.8783,2.854,2.8298,2.8365,2.8607,2.8972,2.9134,2.9609,2.991,2.9991,3.0211,2.9931,2.9883,3.0002,3.0088,3.0417,3.1242,3.2029,3.2568,3.3079,3.3238,3.3397,3.3444,3.3476,3.3476,3.346,3.3381,3.3238,3.3111,3.342,3.3621,3.364,3.3531,3.3761,3.4059,3.3837,0.0801,0.255,0.4514,0.6185,0.7425,0.8528,0.9527,1.0437,1.1421,1.1696,1.1299,1.0804,1.0396,1.0089,0.98,0.9602,0.9654,1.004,1.0872,1.2021,1.334,1.4885,1.6465,1.8002,1.9435,2.0926,2.2401,2.3437,2.43,2.4899,2.5352,2.538,2.5648,2.596,2.6381,2.6772,2.7312,2.8008,2.8544,2.9133,2.9808,3.0559,3.058,3.0621,3.0696,3.0577,3.0072,2.9377,2.8642,2.7509,2.6136,2.5039,2.4266,2.3542,2.2603,2.2047,2.1555,2.1,2.0517,2.047,2.0422,2.0326,1.9951,1.9764,1.9695,1.9926,2.0343,2.0847,2.1409,2.1916,2.2673,2.3347,2.4217,2.502,2.5662,2.6588,2.7687,2.8616,2.8874,2.92,2.9037,2.8793,2.8956,2.9186,2.9334,2.9416,2.9645,2.9902,3.0204,3.0565,3.0683,3.074,3.0922,3.1011,3.1081,3.1664,3.2519,3.2901,3.327,3.3397,3.3492,3.3492,3.3492,3.3492,3.346,3.3444,3.3381,3.3254,3.3645,3.4029,3.3958,3.3897,3.4203,3.4368,3.4196,0.3205,0.5604,0.6406,0.7638,0.9235,0.9618,1.0354,1.1227,1.1549,1.1628,1.1398,1.0999,1.0643,1.0365,1.0129,0.9751,0.9302,0.9695,1.046,1.1469,1.2843,1.4271,1.591,1.7561,1.9045,2.0696,2.2141,2.285,2.3735,2.4457,2.4781,2.463,2.5458,2.5926,2.6192,2.6608,2.716,2.7903,2.8549,2.9138,2.9681,3.0361,3.09,3.1159,3.1389,3.1289,3.093,3.008,2.9426,2.8462,2.7309,2.6109,2.5175,2.4315,2.3389,2.2472,2.1974,2.1323,2.0934,2.0697,2.0716,2.0528,2.0206,2.0169,2.011,1.999,2.0386,2.0915,2.1415,2.1776,2.2364,2.2933,2.3697,2.4726,2.5543,2.7207,2.8564,2.8966,2.9132,2.9464,2.963,2.963,2.9796,2.9947,3.0029,3.018,3.0413,3.066,3.0877,3.1153,3.1302,3.1614,3.1828,3.2027,3.2115,3.2344,3.295,3.3254,3.3413,3.346,3.3492,3.3492,3.3492,3.3492,3.3492,3.3476,3.3413,3.3447,3.3807,3.4113,3.4158,3.4246,3.4558,3.4676,3.4522]}]]